[[{"header":{"parameterUnit":"m.s-1","parameterCategory":1,"la1":30.6,"la2":29.2853,"lo1":-89.7004,"lo2":-87.6739,"dy":0.0162,"dx":0.0183,"nx":112,"ny":82,"refTime":"2023-06-02T06:00:00:Z","depth":0,"parameterNumber":2,"parameterNumberName":"U-component_of_WINDS"},"data":[0.0,0.0,0.0,0.0,0.0,0.0,0.0,0.0,0.0,0.0,0.0,0.0,0.0,0.0,0.0,0.0,0.0,0.0,0.0,0.0,0.0,0.0,0.0,0.0,0.0,0.0,0.0,0.0,0.0,0.0,0.0,0.0,0.0,0.0,0.0,0.0,0.0,0.0,0.0,0.0,0.0,0.0,0.0,0.0,0.0,0.0,0.0,0.0,0.0,0.0,0.0,0.0,0.0,0.0,0.0,0.0,0.0,0.0,0.0,0.0,0.0,0.0,0.0,0.0,0.0,0.0,0.0,0.0,0.0,0.0,0.0,0.0,0.0,0.0,0.0,0.0,0.0,0.0,0.0,0.0,0.0,0.0,0.0,0.0,0.0,0.0,0.0,0.0,0.0,0.0,2.5153,2.8196,3.4317,3.8246,3.8355,3.7607,3.4702,2.8998,0.0,0.0,0.0,0.0,0.0,0.0,0.0,0.0,0.0,0.0,0.0,0.0,0.0,0.0,0.0,0.0,0.0,0.0,0.0,0.0,0.0,0.0,0.0,0.0,0.0,0.0,0.0,0.0,0.0,0.0,0.0,0.0,0.0,0.0,0.0,0.0,0.0,0.0,0.0,0.0,0.0,0.0,0.0,0.0,0.0,0.0,0.0,0.0,0.0,0.0,0.0,0.0,0.0,0.0,0.0,0.0,0.0,0.0,0.0,0.0,0.0,0.0,0.0,0.0,0.0,0.0,0.0,0.0,0.0,0.0,0.0,0.0,0.0,0.0,0.0,0.0,0.0,0.0,0.0,0.0,0.0,0.0,0.0,0.0,0.0,0.0,0.0,0.0,0.0,0.0,0.0,0.0,0.0,0.0,0.0,0.0,0.0,0.0,0.0,0.0,0.0,0.0,0.0,0.0,2.7055,3.2886,3.6309,3.8464,3.9152,3.6041,3.2985,3.0424,0.0,0.0,0.0,0.0,0.0,0.0,0.0,0.0,0.0,0.0,0.0,0.0,0.0,0.0,0.0,0.0,0.0,0.0,0.0,0.0,0.0,0.0,0.0,0.0,0.0,0.0,0.0,0.0,0.0,0.0,0.0,0.0,0.0,0.0,0.0,0.0,0.0,0.0,0.0,0.0,0.0,0.0,0.0,0.0,0.0,0.0,0.0,0.0,0.0,0.0,0.0,0.0,0.0,0.0,0.0,0.0,0.0,0.0,0.0,0.0,0.0,0.0,0.0,0.0,0.0,0.0,0.0,0.0,0.0,0.0,0.0,0.0,0.0,0.0,0.0,0.0,0.0,0.0,0.0,0.0,0.0,0.0,0.0,0.0,0.0,0.0,0.0,0.0,0.0,0.0,0.0,0.0,0.0,0.0,0.0,0.0,0.0,0.0,0.0,0.0,0.0,0.0,0.0,2.5524,2.7779,3.3357,3.5729,3.7051,3.7431,3.4969,3.2256,2.9518,2.7799,0.0,0.0,0.0,0.0,0.0,0.0,0.0,0.0,0.0,0.0,0.0,0.0,0.0,0.0,0.0,0.0,0.0,0.0,0.0,0.0,0.0,0.0,0.0,0.0,0.0,0.0,0.0,0.0,0.0,0.0,0.0,0.0,0.0,0.0,0.0,0.0,0.0,0.0,0.0,0.0,0.0,0.0,0.0,0.0,0.0,0.0,0.0,0.0,0.0,0.0,0.0,0.0,0.0,0.0,0.0,0.0,0.0,0.0,0.0,0.0,0.0,0.0,0.0,0.0,0.0,0.0,0.0,0.0,0.0,0.0,0.0,0.0,0.0,0.0,0.0,0.0,0.0,0.0,0.0,0.0,0.0,0.0,0.0,0.0,0.0,0.0,0.0,0.0,0.0,0.0,0.0,0.0,0.0,0.0,0.0,0.0,0.0,0.0,0.0,0.0,0.0,0.0,2.6962,2.8323,3.2397,3.428,3.524,3.524,3.3592,3.1335,2.847,2.6601,0.0,0.0,0.0,0.0,0.0,0.0,0.0,0.0,0.0,0.0,0.0,0.0,0.0,0.0,0.0,0.0,0.0,0.0,0.0,0.0,0.0,0.0,0.0,0.0,0.0,0.0,0.0,0.0,0.0,0.0,0.0,0.0,0.0,0.0,0.0,0.0,0.0,0.0,0.0,0.0,0.0,0.0,0.0,0.0,0.0,0.0,0.0,0.0,0.0,0.0,0.0,0.0,0.0,0.0,0.0,0.0,0.0,0.0,0.0,0.0,0.0,0.0,0.0,0.0,0.0,0.0,0.0,0.0,0.0,0.0,0.0,0.0,0.0,0.0,0.0,0.0,0.0,0.0,0.0,0.0,0.0,0.0,0.0,0.0,0.0,0.0,0.0,0.0,0.0,0.0,0.0,0.0,0.0,0.0,0.0,0.0,0.0,0.0,0.0,0.0,0.0,0.0,2.7562,2.9137,3.0966,3.2614,3.3574,3.3574,3.1401,2.9565,2.8362,2.6083,0.0,0.0,0.0,0.0,0.0,0.0,0.0,0.0,0.0,0.0,0.0,0.0,0.0,0.0,0.0,0.0,0.0,0.0,0.0,0.0,0.0,0.0,0.0,0.0,0.0,0.0,0.0,0.0,0.0,0.0,0.0,0.0,0.0,0.0,0.0,0.0,0.0,0.0,0.0,0.0,0.0,0.0,0.0,0.0,0.0,0.0,0.0,0.0,0.0,0.0,0.0,0.0,0.0,0.0,0.0,0.0,0.0,0.0,0.0,0.0,0.0,0.0,0.0,0.0,0.0,0.0,0.0,0.0,0.0,0.0,0.0,0.0,0.0,0.0,0.0,0.0,0.0,0.0,0.0,0.0,0.0,0.0,0.0,0.0,0.0,0.0,0.0,0.0,0.0,0.0,0.0,0.0,0.0,0.0,0.0,0.0,0.0,0.0,0.0,0.0,0.0,0.0,2.6799,2.8105,3.0713,3.1981,3.2451,3.1944,3.0604,2.8977,2.7051,0.0,0.0,0.0,0.0,0.0,0.0,0.0,0.0,0.0,0.0,0.0,0.0,0.0,0.0,0.0,0.0,0.0,0.0,0.0,0.0,0.0,0.0,0.0,0.0,0.0,0.0,0.0,0.0,0.0,0.0,0.0,0.0,0.0,0.0,0.0,0.0,0.0,0.0,0.0,0.0,0.0,0.0,0.0,0.0,0.0,0.0,0.0,0.0,0.0,0.0,0.0,0.0,0.0,0.0,0.0,0.0,0.0,0.0,0.0,0.0,0.0,0.0,0.0,0.0,0.0,0.0,0.0,0.0,0.0,0.0,0.0,0.0,0.0,0.0,0.0,0.0,0.0,0.0,0.0,0.0,0.0,0.0,0.0,0.0,0.0,0.0,0.0,0.0,0.0,0.0,0.0,0.0,0.0,0.0,0.0,0.0,0.0,0.0,0.0,0.0,0.0,0.0,2.6176,2.6295,2.7236,2.9952,3.0731,3.0731,2.9934,2.9119,2.7802,2.5823,0.0,0.0,0.0,0.0,0.0,0.0,0.0,0.0,0.0,0.0,0.0,0.0,0.0,0.0,0.0,0.0,0.0,0.0,0.0,0.0,0.0,0.0,0.0,0.0,0.0,0.0,0.0,0.0,0.0,0.0,0.0,0.0,0.0,0.0,0.0,0.0,0.0,0.0,0.0,0.0,0.0,0.0,0.0,0.0,0.0,0.0,0.0,0.0,0.0,0.0,0.0,0.0,0.0,0.0,0.0,0.0,0.0,0.0,0.0,0.0,0.0,0.0,0.0,0.0,0.0,0.0,0.0,0.0,0.0,0.0,0.0,0.0,0.0,0.0,0.0,0.0,0.0,0.0,0.0,0.0,0.0,0.0,0.0,0.0,0.0,0.0,0.0,0.0,0.0,0.0,0.0,0.0,0.0,0.0,0.0,0.0,0.0,0.0,0.0,0.0,0.0,0.0,2.614,2.6227,2.6819,2.8424,2.8587,2.8261,2.7489,2.6675,2.5832,0.0,0.0,0.0,0.0,0.0,0.0,0.0,0.0,0.0,0.0,0.0,0.0,0.0,0.0,0.0,0.0,0.0,0.0,0.0,0.0,0.0,0.0,0.0,0.0,0.0,0.0,0.0,0.0,0.0,0.0,0.0,0.0,0.0,0.0,0.0,0.0,0.0,0.0,0.0,0.0,0.0,0.0,0.0,0.0,0.0,0.0,0.0,0.0,0.0,0.0,0.0,0.0,0.0,0.0,0.0,0.0,0.0,0.0,0.0,0.0,0.0,0.0,0.0,0.0,0.0,0.0,0.0,0.0,0.0,0.0,0.0,0.0,0.0,0.0,0.0,0.0,0.0,0.0,0.0,0.0,0.0,0.0,0.0,0.0,0.0,0.0,0.0,0.0,0.0,0.0,0.0,0.0,0.0,0.0,0.0,0.0,0.0,0.0,0.0,0.0,0.0,0.0,0.0,2.6113,2.6227,2.6819,2.8424,2.8587,2.8261,2.7489,2.6675,2.5837,2.5018,0.0,0.0,0.0,0.0,0.0,0.0,0.0,0.0,0.0,0.0,0.0,0.0,0.0,0.0,0.0,0.0,0.0,0.0,0.0,0.0,0.0,0.0,0.0,0.0,0.0,0.0,0.0,0.0,0.0,0.0,0.0,0.0,0.0,0.0,0.0,0.0,0.0,0.0,0.0,0.0,0.0,0.0,0.0,0.0,0.0,0.0,0.0,0.0,0.0,0.0,0.0,0.0,0.0,0.0,0.0,0.0,0.0,0.0,0.0,0.0,0.0,0.0,0.0,0.0,0.0,0.0,0.0,0.0,0.0,0.0,0.0,0.0,0.0,0.0,0.0,0.0,0.0,0.0,0.0,0.0,0.0,0.0,0.0,0.0,0.0,0.0,0.0,0.0,0.0,0.0,0.0,0.0,0.0,0.0,0.0,0.0,0.0,0.0,0.0,0.0,0.0,0.0,2.6095,2.6227,2.6819,2.8424,2.8587,2.8135,2.7037,2.6493,2.5715,2.4592,0.0,0.0,0.0,0.0,0.0,0.0,0.0,0.0,0.0,0.0,0.0,0.0,0.0,0.0,0.0,0.0,0.0,0.0,0.0,0.0,0.0,0.0,0.0,0.0,0.0,0.0,0.0,0.0,0.0,0.0,0.0,0.0,0.0,0.0,0.0,0.0,0.0,0.0,0.0,0.0,0.0,0.0,0.0,0.0,0.0,0.0,0.0,0.0,0.0,0.0,0.0,0.0,0.0,0.0,0.0,0.0,0.0,0.0,0.0,0.0,0.0,0.0,0.0,0.0,0.0,0.0,0.0,0.0,0.0,0.0,0.0,0.0,0.0,0.0,0.0,0.0,0.0,0.0,0.0,0.0,0.0,0.0,0.0,0.0,0.0,0.0,0.0,0.0,0.0,0.0,0.0,0.0,0.0,0.0,0.0,0.0,0.0,0.0,0.0,0.0,0.0,0.0,2.6113,2.6227,2.6819,2.8424,2.8587,2.7997,2.6439,2.624,2.5552,2.4013,0.0,0.0,0.0,0.0,0.0,0.0,0.0,0.0,0.0,0.0,0.0,0.0,0.0,0.0,0.0,0.0,0.0,0.0,0.0,0.0,0.0,0.0,0.0,0.0,0.0,0.0,0.0,0.0,0.0,0.0,0.0,0.0,0.0,0.0,0.0,0.0,0.0,0.0,0.0,0.0,0.0,0.0,0.0,0.0,0.0,0.0,0.0,0.0,0.0,0.0,0.0,0.0,0.0,0.0,0.0,0.0,0.0,0.0,0.0,0.0,2.6067,2.5601,0.0,0.0,0.0,0.0,0.0,0.0,0.0,0.0,0.0,0.0,0.0,0.0,0.0,0.0,0.0,0.0,0.0,0.0,0.0,0.0,0.0,0.0,0.0,0.0,0.0,0.0,0.0,0.0,0.0,0.0,0.0,0.0,0.0,0.0,0.0,0.0,0.0,0.0,0.0,0.0,2.6027,2.6204,2.6819,2.8424,2.8587,2.8189,2.7236,2.6566,2.5787,2.4809,2.4089,0.0,0.0,0.0,0.0,0.0,0.0,0.0,0.0,0.0,0.0,0.0,0.0,0.0,0.0,0.0,0.0,0.0,0.0,0.0,0.0,0.0,0.0,0.0,0.0,0.0,0.0,0.0,0.0,0.0,0.0,0.0,0.0,0.0,0.0,0.0,0.0,0.0,0.0,0.0,0.0,0.0,0.0,0.0,0.0,0.0,0.0,0.0,0.0,0.0,0.0,0.0,0.0,0.0,0.0,0.0,0.0,0.0,0.0,0.0,2.8223,2.7349,0.0,0.0,0.0,0.0,0.0,0.0,0.0,0.0,0.0,0.0,0.0,0.0,0.0,0.0,0.0,0.0,0.0,0.0,0.0,0.0,0.0,0.0,0.0,0.0,0.0,0.0,0.0,0.0,0.0,0.0,0.0,0.0,0.0,0.0,0.0,0.0,0.0,0.0,0.0,0.0,2.6041,2.6548,2.7254,2.846,2.8587,2.8261,2.7489,2.6675,2.586,2.5045,2.4205,0.0,0.0,0.0,0.0,0.0,0.0,0.0,0.0,0.0,0.0,0.0,0.0,0.0,0.0,0.0,0.0,0.0,0.0,0.0,0.0,0.0,0.0,0.0,0.0,0.0,0.0,0.0,0.0,0.0,0.0,0.0,0.0,0.0,0.0,0.0,0.0,0.0,0.0,0.0,0.0,0.0,0.0,0.0,0.0,0.0,0.0,0.0,0.0,0.0,0.0,0.0,0.0,0.0,3.8363,3.6945,3.576,3.4167,3.3448,3.3351,3.1681,3.0321,2.9221,2.8126,0.0,0.0,0.0,0.0,0.0,0.0,0.0,0.0,0.0,0.0,0.0,0.0,0.0,0.0,0.0,0.0,0.0,0.0,0.0,0.0,0.0,0.0,2.7052,2.7931,2.8141,2.7759,2.6376,0.0,0.0,0.0,0.0,0.0,0.0,0.0,0.0,0.0,0.0,0.0,2.6113,2.691,2.7725,2.8496,2.8587,2.8316,2.7689,2.6747,2.5914,2.5244,2.432,2.3771,0.0,0.0,0.0,0.0,0.0,0.0,0.0,0.0,0.0,0.0,0.0,0.0,0.0,0.0,0.0,0.0,0.0,0.0,0.0,0.0,0.0,0.0,0.0,0.0,0.0,0.0,0.0,0.0,0.0,0.0,0.0,0.0,2.6772,2.5732,0.0,0.0,0.0,0.0,0.0,0.0,0.0,0.0,0.0,0.0,0.0,0.0,0.0,2.7039,2.9991,3.0923,3.3099,3.6537,4.2034,4.1548,3.5838,3.7061,3.7605,3.7586,3.7333,0.0,3.0243,2.7194,0.0,0.0,0.0,0.0,0.0,0.0,0.0,0.0,0.0,0.0,0.0,0.0,0.0,0.0,0.0,0.0,0.0,0.0,0.0,0.0,0.0,0.0,2.8804,2.965,2.986,2.9803,2.9593,2.7717,2.5811,2.493,2.4753,2.4707,0.0,0.0,0.0,0.0,0.0,0.0,2.6113,2.691,2.7725,2.8496,2.8587,2.8551,2.8442,2.7073,2.6149,2.6059,2.4628,2.3795,2.3774,2.3747,0.0,0.0,0.0,0.0,0.0,0.0,0.0,0.0,0.0,0.0,0.0,0.0,0.0,0.0,0.0,0.0,0.0,0.0,0.0,0.0,0.0,0.0,0.0,0.0,0.0,0.0,0.0,0.0,0.0,2.7786,2.8631,2.6835,2.6035,2.5663,0.0,0.0,0.0,0.0,0.0,0.0,0.0,0.0,0.0,2.8495,3.2186,3.4925,3.642,3.8343,4.0053,4.1548,4.2617,4.2578,4.1568,4.2325,4.2675,4.2675,4.2675,4.1393,3.8868,3.3526,2.9078,2.5653,0.0,0.0,0.0,0.0,2.8664,2.9462,3.0379,3.0309,2.9965,3.0706,0.0,0.0,0.0,0.0,0.0,0.0,0.0,2.8217,3.0051,3.0777,3.1255,3.2134,3.221,3.186,3.0959,2.9616,2.8258,2.7113,2.6067,2.5319,2.5094,2.4635,0.0,0.0,0.0,2.5968,2.6783,2.7598,2.8207,2.8551,2.8587,2.8587,2.8587,2.7145,2.6204,2.6204,2.4683,2.3795,2.3795,2.3771,2.3747,0.0,0.0,0.0,0.0,0.0,0.0,0.0,0.0,0.0,0.0,0.0,0.0,0.0,0.0,0.0,0.0,0.0,0.0,0.0,0.0,0.0,0.0,0.0,0.0,0.0,0.0,0.0,0.0,2.8983,3.0429,2.85,2.748,2.6772,0.0,0.0,0.0,0.0,0.0,0.0,4.0558,3.5463,3.2032,3.1397,3.7139,4.0888,4.2189,4.4734,4.5997,4.5958,4.3413,4.353,4.5997,4.5997,4.5997,4.5997,4.5997,4.5997,4.5608,4.0519,3.5339,3.0627,3.0527,3.0821,3.1349,3.1576,3.2148,3.3039,3.427,3.4263,3.3627,3.3471,3.2114,3.0152,2.8255,0.0,0.0,0.0,0.0,3.0133,3.2672,3.3341,3.3566,3.4426,3.4499,3.3938,3.2458,3.1656,3.0742,2.9115,2.7506,2.6321,2.6095,2.5371,0.0,2.5357,2.6027,2.6729,2.7327,2.808,2.8587,2.8587,2.8587,2.8587,2.8587,2.7327,2.6421,2.6222,2.4882,2.4013,2.3813,2.3795,2.3792,2.3725,0.0,0.0,0.0,0.0,0.0,0.0,0.0,0.0,0.0,0.0,0.0,0.0,0.0,0.0,0.0,0.0,0.0,0.0,0.0,0.0,0.0,0.0,0.0,0.0,0.0,0.0,0.0,0.0,0.0,3.0747,3.0586,0.0,0.0,0.0,0.0,2.5615,3.3269,3.8799,4.0791,3.8285,3.5671,3.3254,3.6653,4.0849,4.5705,4.5899,4.5997,4.5997,4.5822,4.5822,4.5997,4.5997,4.5997,4.5997,4.5997,4.5997,4.5958,4.5627,4.5017,4.4,4.0864,3.901,3.7861,3.5799,3.5557,3.6279,3.6356,3.6356,3.6566,3.8132,3.6929,3.4426,3.1923,3.0605,0.0,0.0,3.1255,3.1866,3.4407,3.5076,3.5286,3.6184,3.6358,3.6039,3.4945,3.3902,3.242,2.9844,2.8466,2.768,2.7596,0.0,2.6275,2.6245,2.6866,2.7363,2.7399,2.808,2.8587,2.8587,2.8587,2.8587,2.8587,2.7809,2.7019,2.6258,2.5407,2.4592,2.3831,2.3795,2.3795,2.3795,2.3795,0.0,0.0,0.0,0.0,0.0,0.0,0.0,0.0,0.0,0.0,0.0,0.0,0.0,0.0,0.0,0.0,0.0,0.0,0.0,0.0,0.0,0.0,0.0,0.0,0.0,0.0,0.0,0.0,3.3281,3.5234,0.0,3.3379,2.9608,2.9578,3.5038,3.9315,4.2403,4.4093,4.1238,3.9645,3.9858,3.9956,4.1937,4.5958,4.5997,4.5997,4.5997,4.5997,4.5997,4.5997,4.5997,4.5997,4.5997,4.5997,4.5997,4.5986,4.5673,4.5457,4.5182,4.3978,4.3271,4.2545,3.9602,3.9029,3.9794,4.0368,4.0196,3.947,3.7903,3.605,3.4159,3.2688,3.2439,3.2802,3.3624,3.4254,3.5152,3.7139,3.7655,3.7731,3.8037,3.787,3.744,3.6631,3.5806,3.484,3.351,3.1136,2.9347,2.9305,2.8114,2.7515,2.853,2.7961,2.7779,2.8811,2.8739,2.8587,2.8587,2.8587,2.8587,2.8587,2.7399,2.6512,2.6222,2.4954,2.4103,2.3813,2.3795,2.4031,2.4556,2.4574,2.4494,0.0,0.0,0.0,0.0,0.0,0.0,0.0,0.0,0.0,0.0,0.0,0.0,0.0,0.0,0.0,0.0,0.0,0.0,0.0,0.0,0.0,0.0,0.0,0.0,0.0,3.4137,3.6601,3.5994,3.92,4.0242,3.7052,3.452,3.5003,3.9693,4.2714,4.4831,4.5938,4.384,4.3141,4.4307,4.3219,4.3704,4.5977,4.5997,4.5997,4.5997,4.5997,4.5997,4.5997,4.5997,4.5997,4.5997,4.5997,4.591,4.5733,4.5419,4.5297,4.5297,4.5297,4.5297,4.5029,4.2813,4.2316,4.2851,4.3443,4.3061,4.1934,3.9451,3.7502,3.5954,3.5095,3.5018,3.542,3.626,3.691,3.7731,3.9412,3.9833,3.9775,3.9508,3.92,3.8647,3.7454,3.6863,3.6369,3.5814,3.3386,3.1329,3.1072,2.9777,2.9174,3.0232,2.9384,2.8902,2.9707,2.9318,2.8902,2.8623,2.8587,2.8587,2.8587,2.7634,2.6892,2.662,2.5606,2.49,2.461,2.461,2.4737,2.499,2.4422,2.4802,2.6204,0.0,0.0,0.0,0.0,0.0,0.0,0.0,0.0,0.0,0.0,0.0,0.0,0.0,0.0,0.0,0.0,0.0,0.0,0.0,0.0,0.0,0.0,0.0,3.2187,3.7358,4.048,3.8921,4.2403,4.3287,3.9123,4.1177,4.1626,3.8848,4.3258,4.6055,4.5997,4.5997,4.5997,4.5997,4.5997,4.5997,4.5997,4.5997,4.5997,4.5997,4.5997,4.5997,4.5997,4.5997,4.5997,4.5997,4.5997,4.5733,4.5317,4.5317,4.5317,4.5317,4.5297,4.5297,4.5297,4.5297,4.5297,4.5297,4.5297,4.4723,4.3883,4.31,4.1724,4.0234,3.9374,3.8534,3.8037,3.8877,3.9126,3.9489,4.1113,4.1533,4.1342,4.0559,4.0349,3.9756,3.7589,3.7117,3.6951,3.6435,3.5018,3.366,3.2845,3.1916,3.1326,3.1326,3.1138,0.0,2.9997,2.9834,2.95,2.8775,2.8641,2.8623,2.8623,2.8605,2.8243,2.7453,2.7381,2.7019,2.624,2.6204,2.586,2.5099,2.3433,2.3811,2.6276,0.0,0.0,0.0,0.0,0.0,0.0,0.0,0.0,0.0,0.0,0.0,0.0,0.0,0.0,0.0,0.0,0.0,0.0,0.0,0.0,0.0,3.4744,3.7204,3.6852,3.9815,4.2539,4.3928,4.6182,4.7145,4.5901,4.6143,4.5686,4.4035,4.6385,4.7337,4.6074,4.5997,4.5997,4.5997,4.5997,4.5997,4.5997,4.5997,4.5997,4.5997,4.5997,4.5997,4.5997,4.5997,4.5997,4.5997,4.5997,4.5848,4.5565,4.5475,4.5457,4.5438,4.5339,4.5297,4.5297,4.5297,4.5297,4.5297,4.5297,4.4723,4.3978,4.3749,4.2966,4.2068,4.1839,4.159,4.1457,4.1686,4.1762,4.1858,4.2316,4.2431,4.2393,4.2163,4.1781,4.1122,3.9946,3.9378,3.8715,3.7426,3.678,3.6211,3.5282,3.442,3.3806,3.3738,3.2672,3.1781,3.1564,3.0514,2.9934,3.0296,2.9826,2.9463,2.9463,2.8938,2.8243,2.7453,2.6856,2.6439,2.6222,2.6204,2.6367,2.6729,2.6844,2.7242,0.0,0.0,0.0,0.0,0.0,0.0,0.0,0.0,0.0,0.0,0.0,0.0,0.0,0.0,0.0,0.0,0.0,0.0,0.0,0.0,0.0,0.0,3.8453,4.1244,4.222,4.3933,4.5761,4.7572,4.8625,4.9198,4.9146,4.8522,4.7842,4.7143,4.7356,4.7065,4.6055,4.7376,4.7512,4.6055,4.7414,4.8172,4.8172,4.6735,4.5997,4.5997,4.5997,4.5997,4.5997,4.5997,4.5997,4.5997,4.5997,4.5922,4.5794,4.5528,4.5457,4.5495,0.0,0.0,0.0,0.0,4.5297,4.5297,4.5297,4.4972,4.4551,4.4551,4.3978,4.331,4.331,4.308,4.2794,4.2794,4.2794,4.2889,4.3214,4.331,4.327,4.3166,4.2886,4.2309,4.1266,4.0781,4.0259,3.9215,3.8726,0.0,3.7674,3.6298,3.5162,3.4763,3.3869,3.2958,3.2288,3.1365,3.0713,3.0514,3.0061,2.9644,2.9318,2.8884,0.0,0.0,0.0,2.7218,2.7218,2.6892,0.0,0.0,0.0,2.8243,2.8587,2.8587,0.0,0.0,2.7615,2.7832,0.0,0.0,0.0,0.0,0.0,0.0,0.0,0.0,0.0,0.0,0.0,0.0,0.0,0.0,0.0,0.0,4.1869,4.427,4.7569,4.8648,4.9313,4.9934,5.0029,5.0057,5.0059,4.9357,4.8891,4.8891,4.7453,4.6579,4.6579,4.9512,0.0,0.0,0.0,5.1202,5.1202,4.8133,4.6385,4.5997,4.6404,4.6579,4.6579,4.6579,4.6579,4.6579,4.6579,4.6366,4.5975,4.5528,4.54,4.5457,4.5339,4.5297,4.5297,4.5297,4.5297,4.5297,4.5297,0.0,0.0,4.5297,4.4781,4.415,4.415,4.3654,4.308,4.308,4.308,4.3252,4.3959,4.415,4.4088,4.3852,4.3763,4.3347,4.1977,4.1664,4.1526,4.1176,4.0524,3.9965,3.9783,3.7799,3.5964,3.509,3.4818,3.419,3.2669,3.2306,3.1691,3.0333,3.0025,0.0,2.8938,2.8786,2.8721,2.8605,2.8587,2.8587,2.8587,2.7924,2.7863,2.8587,2.7881,2.7906,2.8587,2.8587,2.8587,2.8587,2.8587,2.8533,0.0,0.0,0.0,0.0,0.0,0.0,0.0,0.0,0.0,0.0,0.0,0.0,0.0,0.0,0.0,4.2435,4.5539,4.8291,5.0379,5.0795,5.0662,5.0071,5.0605,5.1005,5.0953,5.0794,5.0697,5.0697,5.0386,5.0192,5.0192,5.0833,5.0891,5.0212,5.0853,5.1202,5.1202,5.0522,4.8774,4.6035,4.8852,0.0,5.0192,5.0192,5.0192,5.0192,5.0192,4.8599,4.5986,4.578,4.5565,4.5338,4.5317,4.5297,4.5297,4.5297,4.5297,4.5297,4.5297,4.5297,4.5297,4.5297,4.5182,4.5048,4.5048,4.4934,0.0,4.4819,4.4819,4.4838,4.501,4.5048,4.5048,4.4987,4.4753,4.4247,4.3125,4.2669,4.2205,4.1287,4.0983,4.0808,4.0604,3.9094,3.7621,3.6699,3.5983,3.5222,3.4262,3.2995,3.2325,3.2669,3.1528,3.0695,3.055,2.9934,2.9282,2.8623,2.8587,2.8587,2.8587,2.8442,2.8424,2.8587,2.8442,2.8424,2.8587,2.8587,2.8587,2.8587,2.8587,2.8243,0.0,0.0,0.0,0.0,0.0,0.0,0.0,0.0,0.0,0.0,0.0,3.5876,3.7594,0.0,4.3255,4.5831,4.8427,5.0555,5.1863,5.2169,5.2011,5.1382,5.1274,5.1238,5.1194,5.1202,5.1202,5.1202,5.1202,5.1202,5.1202,5.1202,5.1202,5.1202,5.1202,5.1202,5.1202,5.1202,5.0328,4.8619,5.0367,5.0736,4.994,5.0794,5.1202,5.1105,4.9357,4.7544,4.5854,4.5712,4.5743,4.5851,4.5449,4.5297,4.5297,4.5297,4.5297,4.5297,4.5297,4.5297,4.5297,4.5297,4.5297,4.5297,4.5297,4.5297,4.5297,4.5297,4.5297,4.5297,4.5297,4.5297,4.5256,4.5087,4.4934,4.4613,4.3958,4.3557,4.3194,4.2654,4.2106,4.1504,4.0896,3.9786,3.8664,3.7736,3.6906,3.5965,3.4769,3.39,3.3248,3.2832,3.2071,3.1437,3.1021,3.0622,3.0224,2.9826,2.9807,2.9807,2.9807,2.9409,2.9391,2.9789,2.9029,2.9011,2.9807,2.9409,2.9409,2.9807,2.9807,2.9373,0.0,0.0,0.0,0.0,0.0,0.0,0.0,0.0,3.3992,3.537,3.7882,4.0307,4.183,4.4094,4.6456,4.8623,5.0477,5.196,5.2819,5.3022,5.3021,5.2884,5.1889,5.1211,5.12,5.1208,5.1197,5.1202,5.1202,5.1202,5.1202,5.1202,5.1202,5.1202,5.1202,5.1202,5.1202,5.1202,5.1202,5.1202,5.0989,5.0076,4.8638,4.9707,5.0192,5.0056,4.7818,4.6631,4.6285,4.5936,4.607,4.6424,4.5602,4.5297,4.5297,4.5297,4.5297,4.5297,4.5297,4.5297,4.5297,4.5297,4.5297,4.5297,4.5297,4.5297,4.5297,4.5297,4.5297,4.5297,4.5297,4.5297,4.5235,4.4957,4.491,4.4819,4.4546,4.4279,4.4079,4.4005,4.307,4.2017,4.117,4.0224,3.9264,3.8334,3.7537,3.6472,3.5023,3.4715,3.4045,3.2596,3.2288,3.1872,3.1057,3.0985,3.0985,3.0985,3.0985,3.0985,3.0985,3.0369,3.0333,3.0985,2.9735,2.9699,3.0985,3.0333,3.0351,3.0985,3.0985,3.0568,2.822,2.9257,3.0989,3.2467,3.2954,3.4686,0.0,0.0,3.9832,4.3042,4.4003,4.4571,4.5539,4.7178,4.8642,4.9462,5.1258,5.2858,5.3737,5.3374,5.3222,5.3771,5.2324,5.1265,5.1213,5.1206,5.1198,5.1194,5.1202,5.1202,5.1202,5.1202,5.1202,5.1202,5.1202,5.1202,5.1202,5.1202,5.1202,5.1183,5.0173,4.9318,4.8541,4.7201,4.6579,4.6704,4.8894,4.9313,4.8452,4.7315,4.6713,4.6424,4.5602,4.5297,4.5297,4.5297,4.5297,4.5297,4.5297,4.5297,4.5297,4.5297,4.5297,4.5297,4.5297,4.5297,4.5297,4.5297,4.5297,4.5297,4.5297,4.5297,4.5297,4.5256,4.5235,4.5132,4.4819,4.4546,4.4289,4.4048,4.307,4.22,4.1918,4.0607,3.9264,3.8334,3.7537,3.6671,3.5783,3.5041,3.4262,3.3357,3.2632,3.1872,3.1057,3.0985,3.0985,3.0985,3.0985,3.0985,3.0985,3.0894,3.0894,3.0985,3.0803,3.0803,3.0985,3.0894,3.0894,3.0985,3.0985,3.0568,3.1932,3.2869,3.4051,3.5305,3.7141,3.938,4.2236,4.322,4.4071,4.6053,4.7673,4.885,4.9206,4.983,5.0396,5.065,5.183,5.2889,5.3391,5.3533,5.3307,5.2569,5.0923,5.0191,5.1111,5.1203,5.1195,5.1194,5.1202,5.1396,5.1863,5.1455,5.1416,5.1882,5.1435,5.1202,5.1202,5.1202,5.1202,5.1183,5.0717,5.0095,4.9299,4.8075,4.7641,4.792,4.9009,4.9354,4.9048,4.7943,4.7379,4.7169,4.6328,4.5698,4.5297,4.5297,4.5297,4.5297,4.5297,4.5297,4.5297,4.5297,4.5297,4.5297,4.5297,4.5297,4.5297,4.5297,4.5297,4.5297,4.5297,4.5297,4.5297,4.5297,4.5297,4.5256,4.5109,4.472,4.4224,4.3662,4.2847,4.1891,4.0805,4.0008,3.9249,3.8334,3.7902,3.7232,3.5965,3.553,3.4824,3.3538,3.3103,3.2759,3.2433,3.2397,3.2397,3.2397,3.2397,3.2397,3.2397,3.1944,3.1908,3.2379,3.1473,3.1455,3.2397,3.1926,3.1926,3.2397,3.2397,3.2216,3.3812,3.5291,3.6965,3.8302,4.1265,4.4005,4.467,4.6265,4.7881,4.8749,5.023,5.1388,5.1394,5.1394,5.1394,5.1408,5.2122,5.2679,5.2645,5.3006,5.2459,5.0225,4.9137,4.9003,5.014,5.0626,5.0965,5.118,5.1194,5.1455,5.2037,5.1513,5.1474,5.2057,5.1494,5.1202,5.1202,5.1202,5.1202,5.1202,5.0969,5.0503,4.9881,4.9163,4.9033,4.9339,4.9371,4.949,4.9585,4.8553,4.8105,4.7933,4.6901,4.6137,4.5602,4.5373,4.5297,4.5297,4.5297,4.5297,4.5297,4.5297,4.5297,4.5297,4.5297,4.5297,4.5297,4.5297,4.5297,4.5297,4.5297,4.5297,4.5297,4.5297,4.5297,4.5297,4.5297,4.4887,4.4248,4.3359,4.2537,4.1464,3.9856,3.9355,3.8961,3.8316,3.8192,3.7612,3.6019,3.5421,3.4697,3.352,3.3393,3.3393,3.3393,3.3393,3.3393,3.3393,3.3393,3.3393,3.3393,3.2832,3.2814,3.3393,3.2252,3.2234,3.3393,3.2814,3.2832,3.3393,3.3393,3.3393,3.2168,3.5271,3.9117,4.1615,4.4855,4.8096,5.0555,5.1189,5.1498,5.2361,5.1882,5.1317,5.1394,5.1394,5.1388,5.1401,5.2129,5.24,5.1566,5.146,5.0191,4.6775,4.7294,4.793,4.7903,4.9196,5.0357,5.1145,5.121,5.1202,5.1241,5.1202,5.1202,5.1241,5.1202,5.1202,5.1202,5.1202,5.1202,5.1183,5.0328,4.992,4.9881,4.959,4.955,4.9732,5.0314,5.0548,5.0471,4.9477,4.8869,4.843,4.7035,4.65,4.6366,4.5583,4.5297,4.5297,4.5297,4.5297,4.5297,4.5297,4.5297,4.5297,4.5297,4.5297,4.5297,4.5297,4.5297,4.5297,4.5297,4.5297,4.5297,4.5297,4.5297,4.5297,4.5297,4.5023,4.4455,4.3412,4.223,4.1046,3.9831,3.89,3.831,3.8225,3.8192,3.7612,3.6019,3.4443,3.3447,3.3411,3.3393,3.3393,3.3393,3.3393,3.3393,3.3393,3.3393,3.3393,3.3393,3.3375,3.3375,3.3393,3.3357,3.3357,3.3393,3.3375,3.3375,3.3393,3.3393,3.3393,3.6443,3.9976,4.3469,4.6007,4.8837,5.1355,5.28,5.3084,5.298,5.2748,5.1069,4.9464,4.8906,4.834,4.8146,4.8723,5.0024,5.1064,5.1297,5.1362,5.0387,4.7645,4.7671,4.7803,4.7559,4.9036,5.0098,5.0325,5.0875,5.1435,5.1979,5.1494,5.1435,5.1979,5.1474,5.1202,5.1202,5.1202,5.1202,5.1202,5.0891,5.0755,5.0755,5.0678,5.0532,5.0378,5.0582,5.0567,5.0358,5.0042,4.9519,4.8831,4.778,4.7016,4.6405,4.5602,4.5297,4.5297,4.5297,4.5297,4.5297,4.5297,4.5297,4.5297,4.5297,4.5297,4.5297,4.5297,4.5297,4.5297,4.5297,4.5297,4.5297,4.5297,4.5297,4.5297,4.5297,4.5045,4.4549,4.3648,4.2754,4.1656,4.0204,3.9433,3.8842,3.8264,3.7739,3.7015,3.5946,3.486,3.3991,3.3465,3.3393,3.3393,3.3393,3.3393,3.3393,3.3393,3.3393,3.3393,3.3393,3.3393,3.3393,3.3393,3.3393,3.3393,3.3393,3.3393,3.3393,3.3393,3.3393,3.3393,4.0483,4.3743,4.669,4.9872,5.2156,5.3776,5.4342,5.3943,5.306,5.1615,4.9464,4.7501,4.6313,4.5397,4.5183,4.6371,4.7255,4.8607,5.0969,5.0555,4.9627,4.8633,4.834,4.8127,4.7883,4.9165,4.9962,4.9904,5.0717,5.1435,5.194,5.1746,5.1727,5.196,5.1746,5.1494,5.1202,5.1202,5.1202,5.1202,5.1202,5.1202,5.1202,5.1146,5.0981,5.0696,5.0642,5.0488,5.0302,5.0302,4.9767,4.885,4.8086,4.7474,4.6825,4.5698,4.5468,4.5679,4.5392,4.5297,4.5297,4.5297,4.5488,4.5679,4.5392,4.5488,4.566,4.5373,4.5297,4.5297,4.5297,4.5297,4.5297,4.5297,4.5297,4.5297,4.5297,4.5132,4.471,4.3767,4.3098,4.2187,4.0762,3.9918,3.9115,3.8301,3.7739,3.7123,3.6327,3.5294,3.4407,3.3882,3.3574,3.3393,3.3393,3.3393,3.3393,3.3393,3.3393,3.3393,3.3393,3.3393,3.3393,3.3393,3.3393,3.3393,3.3393,3.3393,3.3393,3.3393,3.3393,3.3393,4.4055,4.6534,4.8915,5.3034,5.4713,5.5337,5.524,5.3844,5.1831,4.9214,4.7186,4.5338,0.0,0.0,4.2747,4.4481,4.4228,4.5572,5.0599,4.9216,4.8164,0.0,0.0,0.0,0.0,0.0,4.9976,4.9915,5.0717,5.1222,5.126,5.196,5.2037,5.1358,5.1999,5.1999,5.128,5.1222,5.1202,5.1202,5.1202,5.1202,5.1202,5.1062,5.0887,5.0696,5.0548,5.0402,5.0245,5.0283,4.9614,4.8506,4.8009,4.778,4.7551,4.5889,4.5774,4.6328,4.5564,4.5297,4.5297,4.5297,4.5812,4.6309,4.5526,4.5831,4.629,4.5507,4.5297,4.5297,4.5297,4.5297,4.5297,4.5297,4.5297,4.5297,4.5297,4.5297,4.4987,4.3889,4.3276,4.2584,4.1563,4.0284,3.9168,3.8389,3.8244,3.7902,3.712,3.5675,3.4697,3.4624,3.3918,3.3447,3.3393,3.3393,3.3393,3.3393,3.3393,3.3393,3.3393,3.3393,3.3393,3.3393,3.3393,3.3393,3.3393,3.3393,3.3393,3.3393,3.3393,3.3393,4.7022,5.0048,5.28,5.4537,5.5611,5.5923,5.4635,5.2477,5.0016,4.7399,4.3966,4.0896,3.9143,3.9708,4.0994,4.2689,4.4968,0.0,5.0852,5.0735,0.0,4.9937,0.0,4.943,4.8769,4.9491,4.9977,4.9907,5.0701,5.1455,5.2057,5.1727,5.1979,5.3028,5.2057,5.1707,5.2096,5.1494,5.1202,5.1202,5.1202,5.1202,5.1202,5.1062,5.0887,5.0696,5.0548,5.0076,4.9442,5.0054,4.9385,4.799,4.7857,4.7398,4.671,4.5679,4.543,4.5583,4.5373,4.5297,4.5297,4.5297,4.543,4.5564,4.5354,4.543,4.5564,4.5354,4.5297,4.5297,4.5297,4.5297,4.5297,4.5297,4.5297,4.5297,4.5297,4.5297,4.522,4.4908,4.3956,4.3015,4.2437,4.0822,3.9546,3.9345,3.867,3.7902,3.712,3.6635,3.5928,3.4733,3.4425,3.4063,3.3447,3.3393,3.3393,3.3393,3.3393,3.3393,3.3393,3.3393,3.3393,3.3393,3.3393,3.3393,3.3393,3.3393,3.3393,3.3393,3.3393,3.3393,5.0496,5.3073,5.5259,5.5747,5.5669,5.4791,5.2284,4.9725,4.6794,4.304,4.0329,3.8013,3.5928,3.6921,3.8656,0.0,0.0,0.0,4.9118,4.9625,4.9878,0.0,5.0579,0.0,5.0429,5.0859,5.1277,5.1635,5.1726,5.1944,5.2387,5.2698,5.3125,5.3669,5.2795,5.2154,5.1882,5.1435,5.1202,5.1202,5.1202,5.1202,5.1202,5.1062,5.0887,5.0696,5.0548,5.0172,4.9633,4.9729,4.9213,4.8296,4.7532,4.694,4.6405,4.5602,4.5507,4.5774,4.5411,4.5526,4.5774,4.5411,4.5545,4.5831,4.5831,4.608,4.6328,4.5927,4.5831,4.5755,4.5392,4.5297,4.5297,4.5297,4.5297,4.5297,4.5297,4.5297,4.5235,4.5065,4.4435,4.3657,4.2832,4.1477,4.0289,3.9768,3.8944,3.8125,3.7609,3.7229,3.6508,3.5276,3.4824,3.428,3.3465,3.3393,3.3393,3.3393,3.3393,3.3393,3.3393,3.3393,3.3393,3.3393,3.3393,3.3393,3.3393,3.3393,3.3393,3.3393,3.3393,3.3393,5.3893,5.5532,5.6723,5.6489,5.5201,5.3038,4.9307,4.6484,4.316,3.7931,3.6688,3.5811,3.3473,3.4525,3.6376,3.8344,0.0,4.2065,4.7111,4.7832,4.869,5.1028,5.13,5.1648,5.2538,5.2617,5.2961,5.3837,5.3243,5.2825,5.276,5.4058,5.4485,5.3708,5.3689,5.295,5.1377,5.126,5.1202,5.1202,5.1202,5.1202,5.1202,5.1062,5.0887,5.0696,5.0548,5.0363,5.0092,4.95,4.906,4.8621,4.7226,4.6538,4.6252,4.5564,4.5812,4.6385,4.5583,4.5908,4.6519,4.5602,4.5774,4.6347,4.6347,4.694,4.7455,4.6577,4.6424,4.6309,4.5507,4.5297,4.5297,4.5297,4.5297,4.5297,4.5297,4.5297,4.5213,4.4862,4.4745,4.4346,4.3202,4.218,4.1167,4.0129,3.914,3.8446,3.8274,3.7609,3.6798,3.591,3.5186,3.4389,3.3484,3.3393,3.3393,3.3393,3.3393,3.3393,3.3393,3.3393,3.3393,3.3393,3.3393,3.3393,3.3393,3.3393,3.3393,3.3393,3.3393,3.3393,5.5872,5.6899,5.7328,5.5884,5.4752,5.2729,4.7846,4.4726,0.0,0.0,3.3996,3.2635,3.1466,3.322,3.5869,3.9065,4.1481,4.4501,4.8943,4.9566,4.9995,0.0,5.13,5.1661,5.259,5.2671,5.3027,5.3832,5.4424,5.4699,5.4644,5.4191,5.3863,5.3689,5.3689,5.3203,5.2193,5.1532,5.1202,5.1202,5.1202,5.1202,5.1202,5.1062,5.0887,5.0696,5.0548,5.0038,4.9347,4.9882,4.885,4.6997,4.7417,4.6729,4.5488,4.5354,4.5812,4.6385,4.5583,4.6309,4.7322,4.5793,4.5392,4.5507,4.5507,4.608,4.6557,4.5736,4.5984,4.6309,4.5507,4.5297,4.5297,4.5297,4.5297,4.5297,4.5297,4.5297,4.5297,4.5213,4.5014,4.4789,4.4562,4.2921,4.1585,4.1396,3.9725,3.8478,3.8446,3.8162,3.7413,3.5965,3.5693,3.5005,3.352,3.3393,3.3393,3.3393,3.3393,3.3393,3.3393,3.3393,3.3393,3.3393,3.3393,3.3393,3.3393,3.3393,3.3393,3.3393,3.3393,3.3393,5.7198,5.7832,5.8094,5.6269,5.3535,5.0039,4.5263,0.0,0.0,0.0,3.2313,3.1777,3.0915,3.3229,0.0,3.7506,3.9552,4.2435,4.6741,4.7345,4.8164,5.0365,5.1417,5.2162,5.2646,5.3078,5.3691,5.4567,5.4976,5.5177,5.5093,5.5072,5.4852,5.4388,5.3941,5.3281,5.2407,5.161,5.1202,5.1202,5.1202,5.1202,5.1202,5.1134,5.1015,5.0855,5.068,5.0317,4.9825,4.9717,4.8697,4.7169,4.715,4.6385,4.5354,4.5774,4.6462,4.7131,4.6729,4.7417,4.8181,4.6481,4.5927,4.5927,4.5927,4.6194,4.6424,4.6023,4.6194,4.6309,4.5507,4.5297,4.5297,4.5297,4.5297,4.5297,4.5297,4.5297,4.5297,4.5297,4.5192,4.5103,4.5033,4.3372,4.2006,4.1838,4.0141,3.8766,3.8523,3.8433,3.7867,3.6576,3.6417,3.5765,3.4172,3.4027,3.3846,3.3429,3.3393,3.3212,3.2795,3.3176,3.3194,3.2777,3.3194,3.3393,3.3393,3.3393,3.3393,3.3393,3.3393,3.3393,5.7915,5.8358,5.8485,5.6114,5.2112,4.7522,4.2767,3.8624,0.0,3.1158,3.097,3.1236,3.0555,3.2803,3.5026,3.5786,3.7208,3.9786,4.4267,4.5066,4.6371,0.0,5.1378,0.0,5.2919,5.3527,5.4297,5.5224,5.5084,5.5074,5.5361,5.5804,5.5733,5.5034,5.4179,5.3293,5.2407,5.161,5.1202,5.1202,5.1202,5.1202,5.1202,5.1202,5.1134,5.0986,5.0803,5.0547,5.0179,4.9436,4.8487,4.7474,4.6978,4.629,4.566,4.6481,4.7341,4.8048,4.7876,4.8487,4.906,4.7341,4.6787,4.671,4.6347,4.65,4.671,4.6347,4.6366,4.6309,4.5507,4.5297,4.5297,4.5297,4.5297,4.5297,4.5297,4.5297,4.5297,4.5297,4.5275,4.5213,4.5125,4.3563,4.2257,4.2006,4.039,3.9073,3.8707,3.8554,3.8209,3.7417,3.7152,3.6399,3.4987,3.486,3.4588,3.3954,3.3755,3.3375,3.2741,3.3158,3.3103,3.2469,3.3085,3.3484,3.3665,3.3484,3.3502,3.3665,3.3665,3.3556,5.7706,5.8293,5.7968,5.4024,5.0805,4.712,4.1335,0.0,3.4606,3.04,2.9583,2.9609,2.9531,3.0432,3.2207,3.5386,3.6696,3.9084,4.4189,4.5572,4.7053,4.9683,0.0,0.0,5.3644,5.3861,5.4297,5.5224,5.4556,5.4747,5.6199,5.5598,5.5171,5.5102,5.4255,5.3339,5.2407,5.161,5.1202,5.1202,5.1202,5.1202,5.1202,5.1202,5.1134,5.0986,5.0803,5.022,4.9393,4.9207,4.8124,4.6691,4.7398,4.715,4.65,4.736,4.8239,4.8869,4.8067,4.885,4.992,4.8239,4.7685,4.7398,4.587,4.6462,4.736,4.5831,4.5946,4.6309,4.5507,4.5297,4.5297,4.5297,4.5297,4.5297,4.5297,4.5297,4.5297,4.5297,4.5192,4.5125,4.5103,4.3512,4.2227,4.2178,4.0469,3.9183,3.9156,3.8766,3.8473,3.8368,3.7558,3.6635,3.5765,3.5693,3.5675,3.5584,3.4896,3.4461,3.4389,3.3755,3.3375,3.3284,3.3357,3.3755,3.4498,3.3755,3.3791,3.4498,3.4498,3.4099,5.6239,5.7445,5.7325,5.4012,4.9692,4.5101,4.0629,0.0,3.2776,3.0563,2.9707,2.9509,3.0032,3.0432,3.1507,3.3939,3.4664,3.6356,4.0467,4.1792,4.3682,4.7287,4.9839,5.1798,5.3056,5.4093,5.4648,5.4521,5.3717,5.3962,5.5658,5.5367,5.5135,5.5093,5.4294,5.3428,5.2534,5.1677,5.1249,5.12,5.12,5.1197,5.1202,5.1202,5.1159,5.1082,5.0317,4.977,4.9394,4.9188,4.8372,4.7379,4.8239,4.8048,4.7398,4.8258,4.8793,4.9117,4.927,4.9423,4.9461,4.8793,4.8582,4.8258,4.6538,4.6156,4.6156,4.5488,4.587,4.6424,4.6118,4.6023,4.5908,4.5411,4.5297,4.5297,4.5297,4.5297,4.5297,4.5297,4.5275,4.5213,4.5213,4.4045,4.291,4.2399,4.108,3.9922,3.9266,3.9045,3.8796,3.8523,3.8031,3.7395,3.658,3.6508,3.6327,3.5838,3.5512,3.5113,3.4624,3.4769,3.4624,3.4135,3.4606,3.5005,3.5331,3.5005,3.5023,3.5331,3.4842,3.4697,5.3213,5.5331,5.6069,5.3154,4.8343,4.3376,0.0,0.0,3.1507,3.0424,2.9735,2.9489,3.01,3.0249,3.086,3.2636,3.3173,3.4578,3.8013,3.9474,4.1598,4.5377,0.0,5.0647,5.1826,5.3474,5.4335,5.4014,5.2956,5.2956,5.4439,5.4484,5.4554,5.4746,5.3947,5.3109,5.2216,5.1612,5.1284,5.123,5.122,5.121,5.1206,5.1214,5.1202,5.1132,5.0046,4.9528,4.9451,4.8985,4.8398,4.7895,4.8754,4.8716,4.8296,4.9137,4.9442,4.9538,5.0092,4.9767,4.9137,4.9366,4.8945,4.8143,4.7188,4.65,4.5984,4.5736,4.6252,4.6882,4.6882,4.6691,4.6366,4.5793,4.5468,4.5297,4.5297,4.5297,4.5297,4.5297,4.5297,4.5297,4.5297,4.444,4.3468,4.2549,4.1529,4.0497,3.9447,3.9256,3.9055,3.8737,3.8465,3.8038,3.7428,3.7341,3.7105,3.6562,3.629,3.591,3.5331,3.5639,3.5548,3.4969,3.553,3.5928,3.6164,3.5928,3.5928,3.6146,3.5566,3.5602,4.8318,5.165,5.4039,5.0774,4.6598,4.2447,3.9077,3.4932,3.1333,2.965,2.9302,2.9302,2.9302,2.9306,2.9908,3.172,3.2746,3.451,3.8007,4.0,4.2046,0.0,4.6468,4.8229,4.9953,5.1693,5.3073,5.3932,5.239,5.1804,5.2683,5.2722,5.3084,5.3891,5.3072,5.2201,5.132,5.13,5.13,5.13,5.123,5.1211,5.1211,5.1206,5.1202,5.1132,5.0137,4.9614,4.9423,4.8433,4.7928,4.7895,4.8754,4.9079,4.9175,4.9996,5.0283,5.0283,5.0302,4.9767,4.9232,5.0034,4.8582,4.6691,4.7532,4.778,4.7589,4.6729,4.7111,4.7799,4.7799,4.715,4.65,4.65,4.587,4.5297,4.5297,4.5297,4.5297,4.5297,4.5297,4.5297,4.5297,4.4524,4.3577,4.2553,4.16,4.0669,3.9714,3.9362,3.9183,3.9183,3.8766,3.8415,3.8207,3.8174,3.8174,3.8174,3.7413,3.6993,3.6993,3.6218,3.582,3.5802,3.582,3.62,3.6979,3.62,3.6218,3.6979,3.6993,3.6993,4.1724,4.4128,4.5374,4.2595,3.9997,3.7522,3.527,3.2793,3.0656,2.9534,2.9302,2.9302,2.9302,2.9298,3.0269,3.3234,3.3946,3.5123,3.7949,0.0,0.0,4.46,4.8513,5.1483,5.259,5.2709,5.28,5.3093,5.2058,5.1785,5.2644,5.2136,5.2191,5.3045,5.2811,5.226,5.1372,5.1372,5.1361,5.1375,5.1349,5.1308,5.1276,5.1279,5.1259,5.122,5.0206,4.9679,4.9457,4.9064,4.8816,4.8774,4.9595,4.992,4.9939,5.0206,5.0302,5.0225,4.9671,4.8926,4.8258,4.8525,4.7646,4.6557,4.6825,4.6538,4.6156,4.6424,4.7131,4.7799,4.7799,4.7608,4.7245,4.6653,4.6309,4.5965,4.5411,4.5297,4.5297,4.5297,4.5297,4.5297,4.5297,4.4982,4.4436,4.3555,4.2498,4.1523,4.0688,3.9921,3.9388,3.921,3.9073,3.8826,3.8433,3.8274,3.8192,3.8192,3.7938,3.7812,3.7812,3.7576,3.7431,3.7431,3.7431,3.7558,3.7812,3.7558,3.7286,3.6997,3.754,3.7522,0.0,3.8755,4.0101,3.8187,3.6195,0.0,3.2928,3.1313,2.9863,2.8992,2.907,2.9302,2.9302,2.9309,3.0225,3.3052,3.3796,3.4908,3.7486,0.0,0.0,4.5496,4.902,5.1674,5.2845,5.2494,5.2351,5.2683,5.1882,5.1648,5.2175,5.1687,5.1648,5.2195,5.2214,5.1941,5.1414,5.1394,5.1406,5.1391,5.14,5.1382,5.1342,5.1312,5.1295,5.1256,5.0285,4.992,0.0,4.957,4.9471,4.9641,5.0134,5.0134,4.9843,4.9843,4.9633,4.9289,4.8774,4.8048,4.736,4.7704,4.7207,4.6443,4.6137,4.5908,4.5851,4.6366,4.736,4.822,4.7895,4.8048,4.8067,4.7207,4.6748,4.6366,4.5851,4.5507,4.5297,4.5297,4.5297,4.5297,4.5297,4.5213,4.4903,4.404,4.2966,4.1973,4.1113,4.0183,3.9527,3.9362,3.9264,3.9101,3.8796,3.8496,3.8256,3.8207,3.8192,3.8192,3.8192,3.8192,3.8192,3.8192,3.8192,3.8192,3.8192,3.8225,3.7987,3.7515,3.8038,3.8034,0.0,3.4855,3.7158,3.6288,3.4348,3.2425,3.1623,3.0288,0.0,2.8169,2.8683,2.9321,2.9379,2.9437,3.0074,3.1881,3.2897,3.4348,3.6915,3.9634,0.0,0.0,4.8443,4.9603,5.1166,5.1361,5.1746,5.2546,5.1863,5.1394,5.1394,5.1394,5.1394,5.1394,5.1394,5.1394,5.1394,5.1394,5.1394,5.1394,5.1391,5.14,5.1394,5.1342,5.1308,5.1269,5.0451,5.0422,5.086,5.0037,4.9982,5.0416,5.0412,4.9912,4.9197,4.9121,4.8621,4.7952,4.778,4.7226,4.671,4.7398,4.7073,4.629,4.5526,4.5851,4.65,4.6424,4.7665,4.8812,4.8009,4.8391,4.8793,4.799,4.7131,4.6481,4.6424,4.5831,4.5297,4.5297,4.5297,4.5297,4.5297,4.5297,4.5008,4.4138,4.3152,4.2204,4.1331,4.032,3.9695,3.9695,3.9425,3.921,3.921,3.8766,3.8433,3.8241,3.8225,3.8192,3.8192,3.8192,3.8192,3.8192,3.8192,3.8207,3.8207,3.8274,3.8307,3.8307,3.8368,3.8382,2.6833,0.0,2.9187,2.8318,2.8143,2.8152,0.0,2.8103,2.8247,2.8053,0.0,2.9495,3.0172,3.081,3.199,3.4429,3.5493,3.6704,3.8673,4.2344,0.0,4.8982,5.0206,5.0695,5.0424,5.101,5.1472,5.1687,5.1511,5.1394,5.1394,5.1394,5.1394,5.1394,5.1394,5.1394,5.1394,5.1394,5.1394,5.1394,5.141,5.1406,5.1406,5.1381,5.1377,5.1377,5.1162,5.1057,5.1035,5.079,5.065,5.0625,5.0523,5.0363,5.0074,4.936,4.9395,4.9488,4.7515,4.7111,4.7322,4.6233,4.5755,4.5545,4.5354,4.5851,4.6366,4.5755,4.6806,4.8067,4.7857,4.7952,4.8048,4.7857,4.7131,4.6328,4.5717,4.543,4.5297,4.5297,4.5297,4.5297,4.5297,4.5297,4.5239,4.5008,4.4157,4.346,4.3247,4.1737,4.0669,4.0669,3.9958,3.9432,3.921,3.8766,3.8478,3.8415,3.8307,3.8192,3.8192,3.8192,3.8192,3.8192,3.8192,3.8241,3.8368,3.8322,3.8322,3.8368,3.8382,3.8382,2.5303,2.5967,2.6544,2.6081,2.6339,2.6693,2.6693,0.0,0.0,0.0,0.0,2.9669,3.0926,3.1507,3.2667,3.5259,3.6071,3.7359,0.0,0.0,4.6396,4.9031,5.0176,5.075,5.0695,5.1127,5.1394,5.1394,5.1394,5.1394,5.1394,5.1394,5.1394,5.1394,5.1394,5.1394,5.1394,5.1394,5.1394,5.1394,5.1394,5.1394,5.1394,5.1394,5.1394,5.1375,5.0984,5.0932,5.1101,5.0642,5.0569,5.0733,5.0605,5.0272,4.9829,4.9329,4.8941,4.846,4.704,4.6598,4.65,4.5583,4.5297,4.5297,4.5297,4.5602,4.5946,4.587,4.6787,4.7799,4.7799,4.8105,4.8296,4.7914,4.7131,4.6385,4.5946,4.5564,4.5297,4.5297,4.5297,4.5297,4.5297,4.5297,4.5297,4.5297,4.4505,4.3885,4.3885,4.2591,4.151,4.1127,4.0646,4.0118,3.9583,3.92,3.8865,3.8523,3.8401,3.8289,3.8192,3.8192,3.8225,3.8259,3.8274,3.8336,3.8382,3.8401,3.8401,3.8446,3.8496,3.8546,2.5303,2.613,2.6949,2.668,2.6756,2.6908,2.6889,0.0,0.0,0.0,0.0,0.0,0.0,3.2126,0.0,3.5336,0.0,0.0,4.228,4.4264,4.6162,4.8584,4.966,5.0457,5.1118,5.1307,5.1382,5.1394,5.1394,5.1394,5.1394,5.1394,5.1336,5.1219,5.1336,5.1336,5.1199,5.1336,5.1394,5.1394,5.1394,5.1394,5.1394,5.1394,5.1336,5.116,5.0418,5.0371,5.0782,5.0101,5.0138,5.0662,5.0644,5.0143,4.941,4.9121,4.816,4.6969,4.6699,4.6047,4.5317,4.5297,4.5297,4.5297,4.5297,4.5297,4.5468,4.6271,4.7035,4.7608,4.7608,4.8143,4.8525,4.778,4.694,4.6328,4.6328,4.5774,4.5297,4.5297,4.5297,4.5297,4.5297,4.5297,4.5297,4.5297,4.4601,4.4119,4.4119,4.3228,4.2363,4.168,4.1355,4.0919,4.0157,3.9834,3.9357,3.8718,3.8585,3.8446,3.8207,3.8225,3.8274,3.8322,3.8368,3.8433,3.8465,3.8478,3.851,3.8541,3.8658,3.8707,2.5303,2.7006,2.8462,2.7036,2.7257,2.7797,2.7804,0.0,0.0,0.0,0.0,0.0,0.0,3.3615,3.522,0.0,0.0,4.226,4.5833,4.7256,4.8334,4.9498,5.0461,5.0809,5.0263,5.0886,5.1346,5.1398,5.1394,5.1394,5.1394,5.1394,5.1063,5.0321,5.1023,5.1043,5.0321,5.1023,5.1394,5.1394,5.1394,5.1394,5.1394,5.1394,5.1004,5.0282,5.0165,4.9751,4.9215,4.9698,4.9917,5.0015,5.0612,5.0715,5.0298,4.8798,4.8528,4.8681,4.7122,4.6068,4.5378,4.5317,4.5297,4.5297,4.5297,4.5297,4.5468,4.6271,4.6596,4.671,4.671,4.6806,4.6863,4.6729,4.608,4.5468,4.5468,4.5392,4.5297,4.5297,4.5297,4.5297,4.5297,4.5297,4.5297,4.5297,4.5182,4.5084,4.5084,4.4274,4.3615,4.3501,4.2101,4.1165,4.1013,4.0306,3.9735,3.9433,3.8961,3.8554,3.8307,3.8354,3.8382,3.8478,3.8415,3.8496,3.8658,3.8559,3.8559,3.8658,3.8707,3.8707,2.5303,2.6862,2.8307,2.7547,2.8367,2.9342,0.0,0.0,0.0,0.0,0.0,0.0,0.0,0.0,3.7116,3.9437,4.1835,4.4117,4.6109,4.7163,4.8269,4.9633,5.0176,5.0702,5.1349,5.1346,5.1132,5.0734,5.1121,5.0984,5.0048,5.0438,5.0301,4.9423,4.9794,4.9794,4.9403,4.9794,5.0477,5.1394,5.1394,5.1394,5.1375,5.0906,5.075,5.0731,4.9345,4.9032,4.9458,4.8815,4.8814,4.9226,4.9426,4.9467,4.9232,4.7895,4.7626,4.776,4.6416,4.5706,4.538,4.5361,4.536,4.5338,4.5338,4.5317,4.5373,4.5755,4.6156,4.6615,4.7092,4.6863,4.65,4.65,4.5889,4.5297,4.5297,4.5297,4.5297,4.5297,4.5297,4.5297,4.5297,4.5297,4.5297,4.5297,4.5297,4.5297,4.5297,4.4911,4.4489,4.399,4.2804,4.1869,4.1393,4.0613,3.9954,3.9623,3.9216,3.8857,3.8585,3.8609,3.8628,3.8491,3.8676,3.8815,3.8939,3.8844,3.8844,3.8892,3.878,3.8927,2.5303,2.6563,2.7853,2.7643,0.0,0.0,0.0,0.0,0.0,0.0,0.0,0.0,0.0,3.6071,0.0,4.2918,4.4485,4.5548,4.6573,4.7444,4.8498,4.9891,5.0067,5.0556,5.1842,5.1372,5.0642,4.9879,5.0418,5.0204,4.8876,4.9423,4.9403,4.8545,4.8701,4.8701,4.8525,4.8701,4.9462,5.0789,5.0789,5.0789,5.0789,5.0321,5.0243,5.0418,4.8642,4.8388,4.9126,4.7936,4.782,4.8394,4.8354,4.8198,4.789,4.712,4.6722,4.6397,4.5688,4.5419,4.5419,4.54,4.54,4.5399,4.5399,4.5359,4.5317,4.5317,4.5776,4.6366,4.7035,4.6729,4.6214,4.6214,4.5755,4.5297,4.5297,4.5297,4.5297,4.5297,4.5297,4.5297,4.5297,4.5297,4.5297,4.5297,4.5297,4.5297,4.5297,4.5297,4.5029,4.438,4.3577,4.266,4.159,4.0769,4.0157,3.9781,3.9494,3.9223,3.8943,3.8999,3.8915,3.8646,3.8998,3.9165,3.9101,3.9165,3.9192,3.921,3.9124,3.9418,2.5303,2.6564,2.7711,2.6901,2.8578,0.0,3.3465,3.392,0.0,3.7201,0.0,0.0,0.0,3.698,3.9514,4.3808,4.5858,4.7502,4.9184,5.0132,5.0674,5.0809,5.0825,5.0631,5.0128,5.0029,4.9708,4.904,4.8993,4.8935,4.8818,4.8857,4.8525,4.7705,4.8408,4.8447,4.7686,4.8427,4.8857,4.8993,4.8993,4.8993,4.9013,4.9755,4.9286,4.79,4.8466,4.79,4.6632,4.7311,4.7552,4.7564,4.8224,4.7893,4.7006,4.7001,4.6433,4.5682,4.5532,4.5495,4.5495,4.5419,4.54,4.54,4.54,4.54,4.5398,4.5398,4.5376,4.5392,4.5449,4.543,4.5392,4.5392,4.5335,4.5297,4.5297,4.5297,4.5297,4.5297,4.5297,4.5297,4.5297,4.5297,4.5297,4.5297,4.5297,4.5297,4.5297,4.5297,4.5277,4.5201,4.4437,4.3271,4.1628,4.0769,4.0291,4.0253,3.9996,3.9679,3.9282,3.9389,3.9331,3.9073,3.9324,3.935,3.9101,3.935,3.9458,3.9477,3.9974,4.0224,2.5303,2.6939,2.845,2.7622,2.9316,0.0,0.0,3.4326,3.5032,3.7665,3.8624,0.0,0.0,0.0,4.1448,4.4156,4.6457,4.8333,4.9533,5.0403,5.1099,5.1641,5.1235,5.0851,5.072,5.0207,4.9393,4.8182,4.8565,4.8398,4.7295,4.7764,4.7666,4.6827,4.7081,4.71,4.6788,4.7081,4.7256,4.7256,4.8291,4.8798,4.8798,4.8623,4.8466,4.831,4.7569,4.7198,4.71,4.6885,4.6757,4.6738,4.6921,4.6682,4.6214,4.6235,4.5966,4.5605,4.5568,4.5568,4.5568,4.5531,4.5495,4.5457,4.5457,4.5438,4.54,4.5399,4.5379,4.5338,4.5317,4.5297,4.5297,4.5297,4.5297,4.5297,4.5297,4.5297,4.5297,4.5297,4.5297,4.5297,4.5297,4.5297,4.5297,4.5297,4.5297,4.5297,4.5297,4.5297,4.5297,4.5297,4.4532,4.3539,4.2393,4.1533,4.1055,4.1055,4.0482,4.0017,3.9698,3.9721,3.9623,3.935,3.9623,3.9939,4.0333,3.9939,4.0268,4.1293,4.0797,4.1008,2.5303,2.6774,2.8179,2.7621,0.0,0.0,3.4639,3.5338,3.647,3.9888,4.023,4.0249,4.1371,4.1603,4.2357,4.462,4.667,4.8295,4.9165,4.9997,5.0635,5.0964,5.0712,5.0368,4.9985,4.9423,4.8548,4.7246,4.7732,4.7553,4.6354,4.6876,4.6912,4.6319,4.63,4.63,4.63,4.63,4.6163,4.5909,4.7334,4.8017,4.7998,4.7725,4.7744,4.7959,4.7081,4.6885,4.7139,4.6554,4.6273,4.624,4.6181,4.6035,4.5829,4.5829,4.5766,4.5651,4.562,4.5586,4.5586,4.5586,4.5568,4.5531,4.5531,4.5495,4.5419,4.5419,4.5419,4.5399,4.5338,4.5317,4.5297,4.5297,4.5297,4.5297,4.5297,4.5297,4.5297,4.5297,4.5297,4.5373,4.564,4.5679,4.5679,4.5679,4.5679,4.5583,4.5316,4.5297,4.5297,4.5297,4.4532,4.3787,4.3233,4.2393,4.1781,4.1514,4.0979,4.0482,4.0057,4.0017,3.9892,3.9647,3.9892,4.0395,4.1086,4.0623,4.114,4.2506,4.1917,4.2126,2.5303,2.5947,2.6621,0.0,0.0,0.0,3.6042,3.7469,3.9548,4.4697,4.3111,4.1313,4.2995,4.1951,4.1912,4.5239,4.6515,4.7405,4.8275,4.9146,4.9378,4.8508,4.9165,4.9034,4.7356,4.7259,4.6995,4.6269,4.6269,4.6308,4.6308,4.6306,4.6297,4.63,4.628,4.628,4.628,4.628,4.5831,4.4992,4.587,4.628,4.6319,4.7198,4.712,4.6358,4.7217,4.71,4.63,4.63,4.6216,4.6125,4.6245,4.6138,4.5899,4.5899,4.5871,4.5786,4.5654,4.5586,4.5586,4.5586,4.5586,4.5586,4.5586,4.5568,4.5495,4.5495,4.5438,4.54,4.5399,4.5338,4.5297,4.5297,4.5297,4.5297,4.5297,4.5297,4.5297,4.5297,4.5297,4.5564,4.6366,4.65,4.65,4.65,4.65,4.6194,4.5392,4.5297,4.5297,4.5297,4.4532,4.4017,4.4017,4.3271,4.2431,4.1571,4.1495,4.1132,4.0329,4.031,4.0176,3.9914,4.0195,4.0596,4.1146,4.1396,4.1953,4.2851,4.3361,4.3606,2.5303,2.6794,0.0,2.8352,0.0,0.0,0.0,3.7855,0.0,0.0,4.2338,4.197,4.3092,4.3401,4.3595,4.3982,4.5761,4.7192,4.7444,4.8237,4.8682,4.843,4.8624,4.8372,4.7294,4.721,4.694,4.6249,4.6211,4.625,4.6308,4.6308,4.6307,4.6306,4.5716,4.5394,4.5382,4.4777,4.4344,4.4091,4.4972,4.5382,4.5421,4.63,4.6534,4.63,4.6573,4.6534,4.63,4.63,4.6273,4.6245,4.6277,4.6187,4.6041,4.6041,4.5938,4.58,4.5757,4.5684,4.549,4.4874,4.5086,4.549,4.4874,4.5105,4.5568,4.5513,4.5495,4.5457,4.5419,4.538,4.5361,4.5298,4.5297,4.5297,4.5297,4.5297,4.5468,4.6023,4.6137,4.6214,4.6462,4.65,4.6309,4.5736,4.566,4.5564,4.5316,4.5297,4.5297,4.5297,4.5067,4.4914,4.4914,4.3615,4.2698,4.2431,4.1304,4.0559,4.031,4.031,4.0521,4.1016,4.1113,4.1799,4.313,4.2639,4.3157,4.4551,4.4107,4.4091,2.5696,2.7428,0.0,2.9948,3.3333,3.7079,3.9302,0.0,0.0,0.0,4.2976,4.2879,4.4078,4.4175,4.4136,4.4272,4.5587,4.6573,4.6573,4.7328,4.7753,4.7405,4.7676,4.756,4.6728,4.6689,4.6562,4.615,4.6161,4.6211,4.6269,4.5957,4.5781,4.5781,4.494,4.4487,4.4481,4.3969,4.3534,4.3193,4.4075,4.4309,4.4016,4.5597,4.6105,4.5773,4.5773,4.5773,4.5812,4.6163,4.63,4.63,4.63,4.6245,4.6176,4.6112,4.5988,4.5841,4.5808,4.5484,4.4989,4.447,4.4432,4.4566,4.4355,4.4662,4.5143,4.5435,4.555,4.5513,4.5476,4.5438,4.5419,4.536,4.5339,4.5338,4.5338,4.5317,4.543,4.5927,4.6023,4.6233,4.6901,4.7016,4.6863,4.6366,4.5717,4.5297,4.5297,4.5297,4.5297,4.5297,4.5297,4.5297,4.5297,4.4055,4.3291,4.3291,4.203,4.1304,4.1304,4.096,4.0998,4.1495,4.1839,4.2679,4.4017,4.352,4.3978,4.5277,4.4762,4.4677,2.6299,2.7802,0.0,3.134,3.5089,0.0,4.065,4.352,4.5737,4.5496,4.4427,4.4001,4.551,4.4543,4.402,4.5548,4.58,4.58,4.58,4.6477,4.6689,4.5877,4.6496,4.667,4.5877,4.5838,4.5872,4.5891,4.591,4.5955,4.5957,4.5273,4.4883,4.4883,4.4043,4.3574,4.3574,4.3493,4.3076,4.2282,4.316,4.318,4.2477,4.4933,4.5636,4.4875,4.4875,4.4875,4.4933,4.5734,4.6066,4.6066,4.6144,4.6183,4.6179,4.6131,4.5982,4.5783,4.5725,4.5051,4.4179,4.4102,4.364,4.322,4.3874,4.4182,4.447,4.5259,4.5528,4.5586,4.5513,4.5513,4.5495,4.5438,4.5419,4.5399,4.5398,4.5359,4.5356,4.5488,4.5526,4.6023,4.7646,4.7933,4.7876,4.7723,4.6328,4.5297,4.5297,4.5297,4.5297,4.5297,4.5297,4.5297,4.5297,4.4494,4.4017,4.4017,4.3252,4.2794,4.2794,4.203,4.1648,4.1724,4.2507,4.331,4.4131,4.4131,4.4532,4.5297,4.5297,4.5297,2.6015,2.7625,0.0,0.0,3.678,4.162,4.4055,4.5182,4.5171,4.3211,4.4114,4.5365,4.5722,4.551,4.5374,4.5742,4.58,4.58,4.58,4.5955,4.6013,4.5819,4.5974,4.6013,4.5819,4.5258,4.491,4.4982,4.4366,4.4043,4.414,4.4004,4.3926,4.3984,4.3125,4.2676,4.2676,4.1992,4.1562,4.1385,4.2259,4.2589,4.2431,4.369,4.4153,4.3977,4.3977,4.3977,4.3997,4.4172,4.425,4.4328,4.5012,4.5285,4.5363,4.6015,4.5747,4.5036,4.5012,4.4323,4.3327,4.2632,4.2733,4.3008,4.2489,4.3258,4.4335,4.4528,4.5066,4.5586,4.5586,4.5586,4.5568,4.5568,4.5476,4.54,4.5399,4.54,4.5744,4.7038,4.7286,4.7652,4.864,4.8812,4.8353,4.6997,4.5946,4.5297,4.5297,4.5297,4.5297,4.5297,4.5297,4.5297,4.5297,4.4494,4.4017,4.4017,4.3252,4.2794,4.2794,4.2622,4.2813,4.3463,4.3654,4.4169,4.501,4.501,4.5125,4.5297,4.5297,4.5297,2.5906,0.0,0.0,3.4199,0.0,4.2258,4.4042,4.4752,4.4669,4.3423,4.4549,4.5805,4.58,4.58,4.58,4.58,4.58,4.58,4.58,4.58,4.58,4.58,4.58,4.5645,4.5258,4.4852,4.4446,4.4059,4.3634,4.3447,4.3546,4.3191,4.3008,4.3086,4.2266,4.1836,4.1836,4.1367,4.1152,4.1151,4.1617,4.1808,4.1802,4.2672,4.3082,4.3088,4.3082,4.3082,4.3102,4.3528,4.3704,4.3743,4.4192,4.4387,4.4426,4.4894,4.467,4.4182,4.4182,4.3481,4.2499,4.2048,4.1875,4.1854,4.1816,4.2701,4.3816,4.4182,4.4932,4.5586,4.5586,4.5586,4.5586,4.5586,4.5513,4.5457,4.5438,4.5419,4.5649,4.6489,4.6682,4.6969,4.7747,4.7879,4.7551,4.6634,4.5812,4.5297,4.5297,4.5297,4.5297,4.5297,4.5297,4.5297,4.5297,4.4494,4.4188,4.4609,4.3845,4.3558,4.3978,4.3997,4.3997,4.4017,4.4418,4.4857,4.5297,4.5297,4.5297,4.5297,4.5297,4.5297,2.5857,0.0,3.0666,3.6363,3.9469,0.0,4.2604,4.3393,4.3929,4.4152,4.5036,4.5786,4.58,4.58,4.58,4.58,4.58,4.5742,4.5606,4.5703,4.5684,4.5394,4.549,4.5278,4.4446,4.4253,4.3846,4.3131,4.3008,4.2989,4.3053,4.2446,4.2108,4.2187,4.1406,4.1055,4.1191,4.1055,4.0976,4.0973,4.0815,4.0793,4.0918,4.1479,4.1897,4.2179,4.2175,4.217,4.2226,4.2946,4.3255,4.3274,4.3411,4.3469,4.3489,4.3645,4.3524,4.3305,4.3305,4.2613,4.1742,4.1742,4.119,4.0694,4.1412,4.2322,4.3269,4.3924,4.4814,4.5586,4.5586,4.5586,4.5586,4.5586,4.5568,4.5513,4.5495,4.5476,4.5515,4.5784,4.5956,4.6205,4.6758,4.6679,4.6522,4.6522,4.5833,4.5317,4.5297,4.5297,4.5297,4.5297,4.5297,4.5297,4.5297,4.4647,4.4532,4.5239,4.4628,4.4551,4.5258,4.5297,4.4953,4.4246,4.4934,4.5297,4.5297,4.5297,4.5297,4.5297,4.5297,4.5297,0.0,0.0,3.1851,0.0,3.77,3.9123,0.0,0.0,4.2418,4.3131,4.4565,4.5731,4.5795,4.5805,4.58,4.58,4.58,4.5548,4.4871,4.5355,4.5258,4.3808,4.4311,4.4427,4.3556,4.2783,4.2299,4.2183,4.1545,4.1209,4.1325,4.1221,4.1234,4.1367,4.0527,4.0449,4.1191,4.0449,4.0078,4.0058,3.9316,3.9335,4.0038,3.94,3.9906,4.1263,4.1268,4.1267,4.1281,4.1406,4.1439,4.1518,4.2282,4.2572,4.2669,4.3411,4.3212,4.2545,4.2545,4.1925,4.1116,4.1116,4.0963,4.0791,4.0897,4.1981,4.3206,4.3322,4.443,4.5586,4.5586,4.5586,4.5586,4.5586,4.5586,4.5568,4.5513,4.555,4.5992,4.7376,4.8218,4.8525,4.791,4.7182,4.6645,4.6604,4.5915,4.5378,4.5317,4.5297,4.5297,4.5297,4.5297,4.5297,4.5297,4.5182,4.5182,4.5277,4.5182,4.5182,4.5297,4.5297,4.5239,4.5125,4.5239,4.5297,4.5297,4.5297,4.5297,4.5297,4.5297,4.5297,2.5718,2.7853,3.035,0.0,3.4911,3.6892,3.8007,3.9754,4.1212,4.1559,4.3065,4.4307,4.4332,4.436,4.4407,4.4407,4.4407,4.4272,4.3924,4.4175,4.4136,4.3382,4.3634,4.3537,4.2667,4.2222,4.1816,4.1351,4.0539,4.0106,4.0222,4.0243,4.0086,3.9707,3.9824,3.9844,3.9746,3.9355,3.918,3.918,3.8789,3.8809,3.916,3.8767,3.9274,4.0409,3.9902,3.9707,3.9744,4.0231,4.0422,4.0513,4.1348,4.1674,4.1713,4.2103,4.2006,4.1674,4.1674,4.1374,4.0994,4.0994,4.0898,4.0888,4.1383,4.2373,4.3393,4.3802,4.4791,4.57,4.562,4.5586,4.5586,4.5586,4.5586,4.5586,4.5568,4.5586,4.5817,4.6512,4.6897,4.7012,4.6666,4.6244,4.5975,4.5917,4.5629,4.54,4.5359,4.5378,4.5338,4.5297,4.5297,4.5297,4.5297,4.5297,4.5297,4.5297,4.5297,4.5297,4.5297,4.5297,4.5297,4.5297,4.5297,4.5297,4.5297,4.5297,4.5297,4.5297,4.5297,4.5297,0.0,0.0,2.8316,2.964,3.2051,3.4213,0.0,3.706,3.9285,3.9777,4.0949,4.1972,4.2193,4.2814,4.3305,4.3305,4.3305,4.3227,4.2995,4.2976,4.2802,4.2376,4.2338,4.2086,4.1429,4.1158,4.0887,4.05,3.9649,3.9185,3.9274,3.9325,3.9087,3.8515,3.8965,3.9023,3.8594,3.8379,3.8262,3.8262,3.8047,3.8066,3.8262,3.8047,3.8418,3.9238,3.9023,3.8809,3.8672,3.9785,4.0097,3.9977,4.0791,4.1099,4.1094,4.1094,4.1094,4.1108,4.1108,4.107,4.1037,4.1037,4.0968,4.0996,4.1646,4.2594,4.3481,4.38,4.4802,4.5713,4.5349,4.5432,4.5586,4.5586,4.5586,4.5586,4.5586,4.5759,4.5855,4.5624,4.5741,4.5782,4.5551,4.5495,4.5457,4.5419,4.5419,4.5419,4.54,4.5399,4.5398,4.5338,4.5317,4.5297,4.5297,4.5297,4.5297,4.5297,4.5297,4.5297,4.5297,4.5297,4.5317,4.5317,4.5317,4.5297,4.5297,4.5297,4.5297,4.5297,4.5297,4.5297,0.0,2.5976,0.0,2.8339,2.9509,3.0662,0.0,3.4221,3.5994,3.7747,3.8271,3.862,3.945,4.1627,4.3305,4.3305,4.3305,4.3015,4.2183,4.2067,4.1487,3.9894,3.97,3.9681,3.9642,3.8876,3.8721,3.9507,3.876,3.8295,3.8365,3.8377,3.8405,3.8496,3.7754,3.7754,3.8594,3.7773,3.7363,3.7363,3.6523,3.6562,3.7344,3.6504,3.6601,3.7519,3.9121,3.9355,3.873,4.043,4.0644,3.998,4.0781,4.1092,4.1107,4.1107,4.1101,4.1108,4.1108,4.1108,4.1088,4.1088,4.1085,4.1085,4.1143,4.2242,4.3323,4.2461,4.3955,4.5578,4.4617,4.497,4.5586,4.5586,4.5586,4.5586,4.5586,4.624,4.6586,4.5759,4.6259,4.6567,4.574,4.5586,4.5568,4.5495,4.5495,4.5476,4.54,4.54,4.5398,4.5398,4.5338,4.5297,4.5297,4.5297,4.5297,4.5297,4.5297,4.5297,4.5297,4.5297,4.5338,4.5379,4.5338,4.5297,4.5297,4.5297,4.5297,4.5297,4.5297,4.5297,0.0,0.0,0.0,2.6081,2.73,2.8624,2.9844,3.1854,3.3944,3.5656,3.6468,3.7132,3.7957,3.9167,4.0036,4.0036,4.0036,3.992,3.9611,3.9572,3.934,3.874,3.8663,3.8663,3.8663,3.8392,3.8334,3.8644,3.787,3.7386,3.7406,3.7436,3.723,3.6715,3.7033,3.7109,3.6934,3.6621,3.6465,3.6465,3.6152,3.6152,3.6465,3.6133,3.6172,3.6523,3.7715,3.8047,3.7773,3.7832,3.8672,3.9863,3.9609,4.0176,4.1151,4.1112,4.1092,4.1108,4.1097,4.1108,4.1108,4.1108,4.1108,4.1205,4.1752,4.2737,4.3534,4.3082,4.3986,4.4962,4.4437,4.4528,4.4913,4.547,4.5586,4.5586,4.5586,4.5836,4.597,4.5663,4.5836,4.597,4.5643,4.5586,4.5586,4.5568,4.5568,4.555,4.5457,4.5457,4.5458,4.54,4.538,4.5361,4.5361,4.5361,4.5361,4.5361,4.5361,4.5361,4.5361,4.5361,4.538,4.54,4.538,4.5361,4.5359,4.5359,4.5359,4.5359,4.5361,4.536,2.4615,0.0,0.0,0.0,2.5812,2.7072,2.7988,2.9948,3.2046,3.3712,3.4545,3.5189,3.6007,3.627,3.6761,3.7868,3.815,3.8194,3.8194,3.7955,3.7754,3.7754,3.7541,3.7464,3.7735,3.7522,3.7464,3.7735,3.698,3.6497,3.6497,3.6547,3.6314,3.5742,3.613,3.6074,3.5566,3.5566,3.5566,3.5566,3.5859,3.5996,3.5996,3.5996,3.5996,3.6035,3.6601,3.6855,3.6855,3.6875,3.7715,3.9023,3.9023,3.9746,4.0781,4.1035,4.1113,4.1094,4.1107,4.1099,4.1097,4.1097,4.1094,4.1208,4.1797,4.2561,4.318,4.2719,4.3413,4.4171,4.3689,4.3952,4.4575,4.5391,4.5586,4.5586,4.5586,4.5586,4.5586,4.5586,4.5586,4.5586,4.5586,4.5586,4.5586,4.5586,4.5586,4.5586,4.555,4.5513,4.5495,4.5438,4.5419,4.54,4.54,4.54,4.54,4.54,4.54,4.54,4.54,4.54,4.5419,4.5438,4.5419,4.5419,4.5438,4.54,4.54,4.54,4.54,4.54,0.0,0.0,0.0,0.0,2.5094,2.5929,2.6943,2.8404,3.0112,3.1933,3.2362,3.2661,3.3496,3.3181,3.3834,3.713,3.7891,3.8092,3.8092,3.7363,3.6826,3.6826,3.611,3.5936,3.6748,3.611,3.5994,3.6806,3.6149,3.5704,3.5704,3.5704,3.5723,3.5781,3.5014,3.4629,3.4707,3.4707,3.4707,3.4707,3.5586,3.5996,3.5996,3.5996,3.5996,3.5996,3.5996,3.5996,3.6133,3.7793,3.8027,3.75,3.918,3.9844,4.0019,4.0879,4.1152,4.1094,4.1094,4.1093,4.1107,4.1107,4.1101,4.1094,4.1105,4.1712,4.2199,4.1267,4.2198,4.3249,4.2343,4.3266,4.4641,4.5387,4.5565,4.5566,4.5603,4.5603,4.5586,4.5586,4.5586,4.5586,4.5586,4.5586,4.5586,4.5586,4.5586,4.5586,4.5586,4.5531,4.5495,4.5495,4.5438,4.54,4.54,4.54,4.54,4.54,4.54,4.54,4.54,4.54,4.5438,4.5495,4.5438,4.5438,4.5495,4.5438,4.54,4.54,4.54,4.54,2.45,0.0,0.0,0.0,0.0,0.0,2.5928,2.6468,2.7457,2.9756,3.0243,3.0733,3.226,3.2484,3.2811,3.3929,3.4815,3.54,3.5441,3.524,3.5085,3.5085,3.435,3.4156,3.5007,3.4891,3.5104,3.5974,3.582,3.5704,3.5704,3.5704,3.5704,3.5723,3.4958,3.4569,3.4629,3.4687,3.4707,3.4707,3.5586,3.5996,3.5996,3.5996,3.5996,3.5996,3.5996,3.5996,3.5996,3.584,3.6758,3.8223,3.8086,3.8789,4.0019,4.0879,4.1191,4.1172,4.1172,4.1172,4.1152,4.1113,4.1132,4.1169,4.1119,4.1712,4.2206,4.1261,4.1797,4.2557,4.2186,4.2826,4.3788,4.4666,4.4761,4.485,4.5576,4.5668,4.5586,4.5586,4.5586,4.5586,4.5586,4.5586,4.5586,4.5586,4.5586,4.5586,4.5586,4.5586,4.5568,4.5568,4.5568,4.5531,4.5531,4.5531,4.5531,4.5531,4.5531,4.5531,4.5531,4.5531,4.555,4.5568,4.5568,4.5568,4.5568,4.5513,4.5457,4.5457,4.5457,4.5457,0.0,0.0,0.0,2.45,0.0,0.0,2.5949,2.621,2.6823,2.8961,2.9407,2.9727,3.0766,3.1148,3.1362,3.1531,3.2519,3.3409,3.3807,3.3856,3.3866,3.3866,3.3421,3.3305,3.3808,3.3866,3.4079,3.4582,3.4621,3.4621,3.4621,3.4621,3.464,3.4649,3.3846,3.3453,3.3555,3.3965,3.416,3.418,3.541,3.5996,3.5996,3.5996,3.5996,3.5996,3.5996,3.5996,3.5957,3.5449,3.6133,3.75,3.7363,3.8144,3.9453,4.0332,4.0898,4.1191,4.1191,4.1191,4.1191,4.1152,4.1172,4.1191,4.1147,4.1501,4.1797,4.1248,4.1423,4.1867,4.2115,4.2505,4.3044,4.3889,4.4008,4.4167,4.5092,4.5233,4.5268,4.5543,4.5586,4.5586,4.5586,4.5586,4.5586,4.5586,4.5586,4.5586,4.5586,4.5586,4.5586,4.5586,4.5586,4.5586,4.5586,4.5586,4.5586,4.5586,4.5586,4.5586,4.5586,4.5586,4.5586,4.5586,4.5586,4.5586,4.5586,4.5568,4.5531,4.5531,4.5513,4.5457,0.0,0.0,0.0,2.463,2.463,0.0,2.634,2.6786,2.7325,2.8831,2.9202,2.9295,2.9411,2.9662,2.988,2.9992,3.0906,3.1929,3.2838,3.2956,3.2947,3.2947,3.287,3.285,3.2947,3.2947,3.3005,3.3082,3.3102,3.3102,3.3102,3.3102,3.3121,3.3188,3.2347,3.1972,3.2085,3.2851,3.3262,3.3281,3.5019,3.5859,3.5859,3.5957,3.5957,3.5859,3.5957,3.5957,3.5859,3.5957,3.5996,3.6094,3.6953,3.7773,3.8555,3.9434,4.0312,4.1055,4.1055,4.1113,4.1172,4.1094,4.1113,4.1152,4.0976,4.1055,4.1191,4.1191,4.1152,4.1269,4.198,4.2168,4.2338,4.3108,4.3268,4.3471,4.4297,4.454,4.4773,4.5375,4.5577,4.5635,4.5635,4.5635,4.5635,4.5635,4.5635,4.5635,4.5635,4.5637,4.562,4.562,4.5603,4.5586,4.5586,4.5586,4.5586,4.5586,4.5586,4.5586,4.5586,4.5586,4.5586,4.5586,4.5586,4.5586,4.5586,4.5586,4.5586,4.5586,4.555,4.5476,0.0,0.0,2.5466,2.5466,2.5466,0.0,2.5039,2.5968,2.699,2.7325,2.7901,2.863,2.9476,2.9608,2.9662,2.9946,3.0242,3.0803,3.1892,3.2058,3.2048,3.2048,3.1487,3.1333,3.199,3.2048,3.2328,3.3044,3.3102,3.3102,3.3102,3.3102,3.3102,3.3121,3.2328,3.1903,3.1942,3.2204,3.2344,3.2363,3.4121,3.4941,3.498,3.5684,3.5625,3.498,3.5703,3.5605,3.5019,3.5703,3.5996,3.6094,3.6953,3.7402,3.7656,3.8535,3.9414,4.0156,4.0156,4.0605,4.1074,4.0371,4.0625,4.0937,3.9531,4.0098,4.1191,4.1191,4.1152,4.1133,4.1288,4.1281,4.1475,4.2377,4.2467,4.2607,4.3518,4.418,4.4635,4.4766,4.5355,4.5832,4.5832,4.5832,4.5832,4.5832,4.5832,4.5832,4.5832,4.5802,4.5757,4.5757,4.5668,4.5586,4.5586,4.5586,4.5586,4.5586,4.5586,4.5586,4.5586,4.5586,4.5586,4.5586,4.5586,4.5586,4.5586,4.5586,4.5586,4.5586,4.5586,4.5531,2.7511,2.6916,2.621,2.5801,2.6005,0.0,0.0,2.634,2.7511,2.7511,2.7807,2.8275,2.8783,2.8933,2.9005,2.9174,2.9722,3.0297,3.0879,3.1107,3.1197,3.1197,3.0849,3.0752,3.1159,3.1197,3.1391,3.1816,3.1855,3.1855,3.1855,3.1855,3.1855,3.1855,3.1468,3.1255,3.1255,3.1741,3.204,3.2129,3.3437,3.4043,3.4082,3.4941,3.5117,3.4746,3.5625,3.5508,3.4766,3.5644,3.5488,3.4824,3.6133,3.6914,3.7344,3.7793,3.8496,3.9258,3.9258,3.9531,3.9824,3.9394,3.9551,3.9746,3.8867,3.9512,4.0547,4.0547,4.084,4.1133,4.1113,4.1073,4.1166,4.1648,4.1663,4.1847,4.2754,4.3584,4.4279,4.4727,4.5494,4.6057,4.592,4.5899,4.5899,4.5899,4.5899,4.5899,4.5899,4.5875,4.5841,4.5794,4.5742,4.5668,4.5603,4.5586,4.5586,4.5586,4.5586,4.5586,4.5586,4.5586,4.5586,4.5586,4.5586,4.5586,4.5586,4.5586,4.5586,4.5586,4.5568,4.5531,2.8366,2.7752,2.699,2.6321,2.6656,2.6935,0.0,0.0,0.0,2.7957,2.7974,2.8086,2.8086,2.8241,2.833,2.833,2.9298,2.9961,2.9808,3.0035,3.0249,3.0279,3.0463,3.053,3.0347,3.0337,3.0424,3.0598,3.0443,3.0424,3.0598,3.0598,3.0598,3.0598,3.0598,3.0598,3.0598,3.1303,3.1702,3.1825,3.271,3.3143,3.3184,3.4043,3.4375,3.4277,3.5137,3.5019,3.4297,3.5156,3.4668,3.3555,3.5137,3.6074,3.6562,3.6738,3.7344,3.8125,3.8281,3.8457,3.8574,3.8398,3.8242,3.8164,3.8496,3.8965,3.9473,3.9805,4.041,4.0976,4.1094,4.1113,4.1113,4.1091,4.1103,4.1348,4.2204,4.2942,4.3762,4.4797,4.5578,4.6026,4.5985,4.5978,4.5978,4.5978,4.5978,4.5978,4.5978,4.5949,4.5919,4.5854,4.5822,4.5757,4.5654,4.562,4.5586,4.5586,4.5586,4.5586,4.5586,4.5586,4.5586,4.5586,4.5586,4.5586,4.5586,4.5586,4.5586,4.5586,4.5531,4.5513,2.9258,2.8626,2.7937,2.7844,2.7881,2.7733,2.6953,0.0,2.8831,2.7344,0.0,2.8086,2.8086,0.0,0.0,2.8126,2.9045,2.9487,2.8695,2.8787,2.8989,2.9147,3.0016,3.0269,2.9447,2.94,2.9766,3.054,2.9882,2.9785,3.0559,3.0598,3.0598,3.0598,3.0598,3.0598,3.0598,3.0694,3.0761,3.0784,3.1718,3.2185,3.2285,3.3144,3.3164,3.2539,3.334,3.3223,3.2559,3.3359,3.3574,3.3496,3.4473,3.4434,3.3945,3.4707,3.5547,3.6406,3.7187,3.7949,3.8476,3.7695,3.6914,3.6582,3.8125,3.8125,3.793,3.9473,3.9961,4.0215,4.0996,4.1191,4.1172,4.1113,4.1091,4.1338,4.2204,4.2474,4.304,4.468,4.509,4.5379,4.6132,4.6249,4.6249,4.6249,4.6249,4.6249,4.6249,4.6144,4.6064,4.6076,4.5914,4.58,4.5786,4.5668,4.5586,4.5586,4.5586,4.5586,4.5586,4.5586,4.5586,4.5586,4.5586,4.5586,4.5586,4.5586,4.5586,4.5586,4.5586,4.5586,2.9407,2.9128,2.8738,2.8216,2.8496,2.8515,2.7213,2.8199,2.9072,2.7864,0.0,0.0,0.0,0.0,0.0,0.0,2.8932,2.9308,2.8464,2.8969,2.9303,2.8872,2.9337,2.9573,2.9274,2.8829,2.8915,2.9785,2.9515,2.9669,3.0559,3.0598,3.0598,3.0598,3.0598,3.0598,3.0598,3.0598,3.0598,3.0598,3.0995,3.1216,3.1309,3.2237,3.2461,3.2187,3.3027,3.2949,3.2266,3.3066,3.2832,3.2031,3.291,3.3613,3.4199,3.457,3.5254,3.6055,3.6426,3.6797,3.7031,3.666,3.6309,3.6133,3.6875,3.7187,3.7441,3.8184,3.9121,3.998,4.0351,4.082,4.1191,4.1152,4.1132,4.1207,4.1563,4.2045,4.263,4.3352,4.3899,4.4367,4.4738,4.5207,4.5558,4.5558,4.5558,4.5558,4.5558,4.5933,4.6181,4.6105,4.6016,4.5936,4.5814,4.5742,4.5684,4.5603,4.5586,4.5586,4.5586,4.5586,4.5586,4.5586,4.5586,4.5586,4.5586,4.5586,4.5586,4.5586,4.5586,4.5586,2.9407,2.9407,2.9258,2.8626,2.8942,2.9091,2.7864,2.8533,2.9165,2.8272,2.8086,0.0,0.0,0.0,2.8086,2.8086,0.0,2.9098,2.8073,2.8817,2.9099,2.8093,2.8122,2.8406,2.8878,2.8134,2.7989,2.8876,2.8934,2.9321,3.0192,3.0462,3.0598,3.0598,3.0598,3.0598,3.0598,3.0598,3.0598,3.0598,3.0598,3.0636,3.0704,3.1373,3.171,3.1777,3.2402,3.2363,3.1894,3.2461,3.1992,3.0957,3.1601,3.2734,3.4004,3.4004,3.4551,3.5312,3.5566,3.5801,3.5996,3.5996,3.5996,3.5996,3.5996,3.6445,3.6992,3.7226,3.8379,3.9609,3.9844,4.0547,4.1191,4.1191,4.1152,4.1171,4.1396,4.1777,4.2181,4.2669,4.3079,4.3411,4.3665,4.4211,4.4641,4.4641,4.4641,4.4738,4.4972,4.5558,4.5996,4.6131,4.6112,4.6033,4.5891,4.5835,4.5742,4.5603,4.5586,4.5586,4.5586,4.5586,4.5586,4.5586,4.5586,4.5586,4.5586,4.5586,4.5586,4.5586,4.5586,4.5586,2.9407,2.9407,2.9388,2.937,2.9388,2.9388,2.9332,2.937,2.9165,2.8272,2.8086,2.8086,2.8086,2.8086,2.8086,2.8086,2.8831,0.0,0.0,2.7641,2.7624,2.6247,2.6218,2.6734,2.7836,2.7152,2.7026,2.7967,2.8053,2.8412,2.9302,3.0133,3.0598,3.0598,3.0598,3.0598,3.0598,3.0598,3.0598,3.0598,3.0598,3.0598,3.0598,3.0626,3.0728,3.084,3.0879,3.0918,3.0937,3.0976,3.0957,3.0898,3.0937,3.1484,3.2285,3.2285,3.2793,3.3594,3.4453,3.5293,3.5996,3.5996,3.5996,3.5996,3.5996,3.6016,3.6211,3.7051,3.7949,3.8848,3.9687,4.0547,4.1191,4.1191,4.1152,4.1328,4.2187,4.1712,4.1635,4.3333,4.3001,4.2708,4.3548,4.3723,4.3743,4.3743,4.3743,4.4055,4.4894,4.5012,4.5363,4.6202,4.6176,4.6098,4.6091,4.5914,4.5742,4.5603,4.5586,4.5586,4.5586,4.5586,4.5586,4.5586,4.5586,4.5586,4.5586,4.5586,4.5586,4.5586,4.5586,4.5586,2.9407,2.9407,2.9407,2.9407,2.9407,2.9407,2.9407,2.9407,2.9332,2.9035,2.8961,2.8961,2.8961,2.8961,2.8961,2.8961,2.9221,2.9037,0.0,2.7643,2.7392,2.7028,2.6405,2.6252,2.6916,2.6187,2.6083,2.7069,2.7136,2.7774,2.9224,2.9573,2.9998,3.0578,3.0598,3.0598,3.0598,3.0598,3.0598,3.0598,3.0598,3.0598,3.0598,3.0598,3.0629,3.0678,3.0751,3.0781,3.0762,3.0859,3.0879,3.084,3.0879,3.1074,3.1406,3.1992,3.3066,3.4375,3.5254,3.5371,3.5234,3.5801,3.5996,3.5996,3.5996,3.5996,3.6055,3.6367,3.707,3.7812,3.8105,3.8828,3.9629,4.0195,4.0312,4.0527,4.1367,4.1308,4.1265,4.1855,4.1732,4.1635,4.1927,4.1986,4.2181,4.2747,4.2845,4.2942,4.3235,4.4289,4.5109,4.5402,4.5917,4.6206,4.6105,4.5925,4.5742,4.5603,4.5586,4.5586,4.5586,4.5586,4.5586,4.5586,4.5586,4.5586,4.5586,4.5586,4.5586,4.5586,4.5586,4.5586,2.9407,2.9407,2.9407,2.9407,2.9407,2.9407,2.9407,2.9407,2.9407,2.9407,2.9409,2.9429,2.9429,2.947,2.9509,2.9509,2.9509,2.9323,0.0,2.8125,2.7685,2.7803,2.6736,2.5991,2.6036,2.5521,2.5505,2.621,2.6547,2.7329,2.876,2.9128,2.9689,3.0578,3.0598,3.0598,3.0598,3.0598,3.0598,3.0598,3.0598,3.0598,3.0598,3.0598,3.0598,3.0597,3.0691,3.0728,3.0703,3.0782,3.0825,3.0801,3.0859,3.0879,3.0976,3.1523,3.2793,3.4355,3.5234,3.5371,3.5195,3.5469,3.5742,3.5996,3.5996,3.5996,3.6055,3.6387,3.6875,3.7363,3.7676,3.8184,3.873,3.9297,3.9668,4.0039,4.0566,4.0898,4.1093,4.1105,4.1097,4.1108,4.1108,4.1108,4.1283,4.1849,4.1947,4.2045,4.2357,4.3645,4.466,4.4972,4.5773,4.6245,4.6105,4.5938,4.5775,4.5684,4.5637,4.5586,4.5586,4.5586,4.5586,4.5586,4.5586,4.5586,4.5586,4.5586,4.5586,4.5586,4.5586,4.5586]},{"header":{"parameterUnit":"m.s-1","parameterCategory":1,"la1":30.6,"la2":29.2853,"lo1":-89.7004,"lo2":-87.6739,"dy":0.0162,"dx":0.0183,"nx":112,"ny":82,"refTime":"2023-06-02T06:00:00:Z","depth":0,"parameterNumber":3,"parameterNumberName":"V-component_of_WINDS"},"data":[0.0,0.0,0.0,0.0,0.0,0.0,0.0,0.0,0.0,0.0,0.0,0.0,0.0,0.0,0.0,0.0,0.0,0.0,0.0,0.0,0.0,0.0,0.0,0.0,0.0,0.0,0.0,0.0,0.0,0.0,0.0,0.0,0.0,0.0,0.0,0.0,0.0,0.0,0.0,0.0,0.0,0.0,0.0,0.0,0.0,0.0,0.0,0.0,0.0,0.0,0.0,0.0,0.0,0.0,0.0,0.0,0.0,0.0,0.0,0.0,0.0,0.0,0.0,0.0,0.0,0.0,0.0,0.0,0.0,0.0,0.0,0.0,0.0,0.0,0.0,0.0,0.0,0.0,0.0,0.0,0.0,0.0,0.0,0.0,0.0,0.0,0.0,0.0,0.0,0.0,1.0163,1.1392,1.3865,1.5452,1.5496,1.5673,1.482,1.2609,0.0,0.0,0.0,0.0,0.0,0.0,0.0,0.0,0.0,0.0,0.0,0.0,0.0,0.0,0.0,0.0,0.0,0.0,0.0,0.0,0.0,0.0,0.0,0.0,0.0,0.0,0.0,0.0,0.0,0.0,0.0,0.0,0.0,0.0,0.0,0.0,0.0,0.0,0.0,0.0,0.0,0.0,0.0,0.0,0.0,0.0,0.0,0.0,0.0,0.0,0.0,0.0,0.0,0.0,0.0,0.0,0.0,0.0,0.0,0.0,0.0,0.0,0.0,0.0,0.0,0.0,0.0,0.0,0.0,0.0,0.0,0.0,0.0,0.0,0.0,0.0,0.0,0.0,0.0,0.0,0.0,0.0,0.0,0.0,0.0,0.0,0.0,0.0,0.0,0.0,0.0,0.0,0.0,0.0,0.0,0.0,0.0,0.0,0.0,0.0,0.0,0.0,0.0,0.0,1.0931,1.3287,1.467,1.554,1.5818,1.4653,1.3663,1.315,0.0,0.0,0.0,0.0,0.0,0.0,0.0,0.0,0.0,0.0,0.0,0.0,0.0,0.0,0.0,0.0,0.0,0.0,0.0,0.0,0.0,0.0,0.0,0.0,0.0,0.0,0.0,0.0,0.0,0.0,0.0,0.0,0.0,0.0,0.0,0.0,0.0,0.0,0.0,0.0,0.0,0.0,0.0,0.0,0.0,0.0,0.0,0.0,0.0,0.0,0.0,0.0,0.0,0.0,0.0,0.0,0.0,0.0,0.0,0.0,0.0,0.0,0.0,0.0,0.0,0.0,0.0,0.0,0.0,0.0,0.0,0.0,0.0,0.0,0.0,0.0,0.0,0.0,0.0,0.0,0.0,0.0,0.0,0.0,0.0,0.0,0.0,0.0,0.0,0.0,0.0,0.0,0.0,0.0,0.0,0.0,0.0,0.0,0.0,0.0,0.0,0.0,0.0,1.0183,1.1224,1.3477,1.4435,1.497,1.5123,1.4128,1.3279,1.2835,1.2377,0.0,0.0,0.0,0.0,0.0,0.0,0.0,0.0,0.0,0.0,0.0,0.0,0.0,0.0,0.0,0.0,0.0,0.0,0.0,0.0,0.0,0.0,0.0,0.0,0.0,0.0,0.0,0.0,0.0,0.0,0.0,0.0,0.0,0.0,0.0,0.0,0.0,0.0,0.0,0.0,0.0,0.0,0.0,0.0,0.0,0.0,0.0,0.0,0.0,0.0,0.0,0.0,0.0,0.0,0.0,0.0,0.0,0.0,0.0,0.0,0.0,0.0,0.0,0.0,0.0,0.0,0.0,0.0,0.0,0.0,0.0,0.0,0.0,0.0,0.0,0.0,0.0,0.0,0.0,0.0,0.0,0.0,0.0,0.0,0.0,0.0,0.0,0.0,0.0,0.0,0.0,0.0,0.0,0.0,0.0,0.0,0.0,0.0,0.0,0.0,0.0,0.0,1.0689,1.1443,1.3089,1.385,1.4238,1.4238,1.3572,1.29,1.2453,1.1705,0.0,0.0,0.0,0.0,0.0,0.0,0.0,0.0,0.0,0.0,0.0,0.0,0.0,0.0,0.0,0.0,0.0,0.0,0.0,0.0,0.0,0.0,0.0,0.0,0.0,0.0,0.0,0.0,0.0,0.0,0.0,0.0,0.0,0.0,0.0,0.0,0.0,0.0,0.0,0.0,0.0,0.0,0.0,0.0,0.0,0.0,0.0,0.0,0.0,0.0,0.0,0.0,0.0,0.0,0.0,0.0,0.0,0.0,0.0,0.0,0.0,0.0,0.0,0.0,0.0,0.0,0.0,0.0,0.0,0.0,0.0,0.0,0.0,0.0,0.0,0.0,0.0,0.0,0.0,0.0,0.0,0.0,0.0,0.0,0.0,0.0,0.0,0.0,0.0,0.0,0.0,0.0,0.0,0.0,0.0,0.0,0.0,0.0,0.0,0.0,0.0,0.0,1.1136,1.1772,1.2511,1.3177,1.3565,1.3565,1.2687,1.2171,1.2406,1.1477,0.0,0.0,0.0,0.0,0.0,0.0,0.0,0.0,0.0,0.0,0.0,0.0,0.0,0.0,0.0,0.0,0.0,0.0,0.0,0.0,0.0,0.0,0.0,0.0,0.0,0.0,0.0,0.0,0.0,0.0,0.0,0.0,0.0,0.0,0.0,0.0,0.0,0.0,0.0,0.0,0.0,0.0,0.0,0.0,0.0,0.0,0.0,0.0,0.0,0.0,0.0,0.0,0.0,0.0,0.0,0.0,0.0,0.0,0.0,0.0,0.0,0.0,0.0,0.0,0.0,0.0,0.0,0.0,0.0,0.0,0.0,0.0,0.0,0.0,0.0,0.0,0.0,0.0,0.0,0.0,0.0,0.0,0.0,0.0,0.0,0.0,0.0,0.0,0.0,0.0,0.0,0.0,0.0,0.0,0.0,0.0,0.0,0.0,0.0,0.0,0.0,0.0,1.0624,1.1355,1.2409,1.2921,1.3111,1.2906,1.2365,1.1855,1.1552,0.0,0.0,0.0,0.0,0.0,0.0,0.0,0.0,0.0,0.0,0.0,0.0,0.0,0.0,0.0,0.0,0.0,0.0,0.0,0.0,0.0,0.0,0.0,0.0,0.0,0.0,0.0,0.0,0.0,0.0,0.0,0.0,0.0,0.0,0.0,0.0,0.0,0.0,0.0,0.0,0.0,0.0,0.0,0.0,0.0,0.0,0.0,0.0,0.0,0.0,0.0,0.0,0.0,0.0,0.0,0.0,0.0,0.0,0.0,0.0,0.0,0.0,0.0,0.0,0.0,0.0,0.0,0.0,0.0,0.0,0.0,0.0,0.0,0.0,0.0,0.0,0.0,0.0,0.0,0.0,0.0,0.0,0.0,0.0,0.0,0.0,0.0,0.0,0.0,0.0,0.0,0.0,0.0,0.0,0.0,0.0,0.0,0.0,0.0,0.0,0.0,0.0,0.9852,1.0358,1.1004,1.2102,1.2416,1.2416,1.2094,1.1765,1.1374,1.0895,0.0,0.0,0.0,0.0,0.0,0.0,0.0,0.0,0.0,0.0,0.0,0.0,0.0,0.0,0.0,0.0,0.0,0.0,0.0,0.0,0.0,0.0,0.0,0.0,0.0,0.0,0.0,0.0,0.0,0.0,0.0,0.0,0.0,0.0,0.0,0.0,0.0,0.0,0.0,0.0,0.0,0.0,0.0,0.0,0.0,0.0,0.0,0.0,0.0,0.0,0.0,0.0,0.0,0.0,0.0,0.0,0.0,0.0,0.0,0.0,0.0,0.0,0.0,0.0,0.0,0.0,0.0,0.0,0.0,0.0,0.0,0.0,0.0,0.0,0.0,0.0,0.0,0.0,0.0,0.0,0.0,0.0,0.0,0.0,0.0,0.0,0.0,0.0,0.0,0.0,0.0,0.0,0.0,0.0,0.0,0.0,0.0,0.0,0.0,0.0,0.0,0.0,1.0165,1.053,1.0836,1.1556,1.1622,1.149,1.1106,1.0777,1.0568,0.0,0.0,0.0,0.0,0.0,0.0,0.0,0.0,0.0,0.0,0.0,0.0,0.0,0.0,0.0,0.0,0.0,0.0,0.0,0.0,0.0,0.0,0.0,0.0,0.0,0.0,0.0,0.0,0.0,0.0,0.0,0.0,0.0,0.0,0.0,0.0,0.0,0.0,0.0,0.0,0.0,0.0,0.0,0.0,0.0,0.0,0.0,0.0,0.0,0.0,0.0,0.0,0.0,0.0,0.0,0.0,0.0,0.0,0.0,0.0,0.0,0.0,0.0,0.0,0.0,0.0,0.0,0.0,0.0,0.0,0.0,0.0,0.0,0.0,0.0,0.0,0.0,0.0,0.0,0.0,0.0,0.0,0.0,0.0,0.0,0.0,0.0,0.0,0.0,0.0,0.0,0.0,0.0,0.0,0.0,0.0,0.0,0.0,0.0,0.0,0.0,0.0,0.0,1.0286,1.053,1.0836,1.1556,1.1622,1.149,1.1106,1.0777,1.0504,1.0235,0.0,0.0,0.0,0.0,0.0,0.0,0.0,0.0,0.0,0.0,0.0,0.0,0.0,0.0,0.0,0.0,0.0,0.0,0.0,0.0,0.0,0.0,0.0,0.0,0.0,0.0,0.0,0.0,0.0,0.0,0.0,0.0,0.0,0.0,0.0,0.0,0.0,0.0,0.0,0.0,0.0,0.0,0.0,0.0,0.0,0.0,0.0,0.0,0.0,0.0,0.0,0.0,0.0,0.0,0.0,0.0,0.0,0.0,0.0,0.0,0.0,0.0,0.0,0.0,0.0,0.0,0.0,0.0,0.0,0.0,0.0,0.0,0.0,0.0,0.0,0.0,0.0,0.0,0.0,0.0,0.0,0.0,0.0,0.0,0.0,0.0,0.0,0.0,0.0,0.0,0.0,0.0,0.0,0.0,0.0,0.0,0.0,0.0,0.0,0.0,0.0,0.0,1.0279,1.053,1.0836,1.1556,1.1622,1.1439,1.0924,1.0704,1.0389,0.9936,0.0,0.0,0.0,0.0,0.0,0.0,0.0,0.0,0.0,0.0,0.0,0.0,0.0,0.0,0.0,0.0,0.0,0.0,0.0,0.0,0.0,0.0,0.0,0.0,0.0,0.0,0.0,0.0,0.0,0.0,0.0,0.0,0.0,0.0,0.0,0.0,0.0,0.0,0.0,0.0,0.0,0.0,0.0,0.0,0.0,0.0,0.0,0.0,0.0,0.0,0.0,0.0,0.0,0.0,0.0,0.0,0.0,0.0,0.0,0.0,0.0,0.0,0.0,0.0,0.0,0.0,0.0,0.0,0.0,0.0,0.0,0.0,0.0,0.0,0.0,0.0,0.0,0.0,0.0,0.0,0.0,0.0,0.0,0.0,0.0,0.0,0.0,0.0,0.0,0.0,0.0,0.0,0.0,0.0,0.0,0.0,0.0,0.0,0.0,0.0,0.0,0.0,1.0286,1.053,1.0836,1.1556,1.1622,1.1311,1.0682,1.0602,1.0324,0.9702,0.0,0.0,0.0,0.0,0.0,0.0,0.0,0.0,0.0,0.0,0.0,0.0,0.0,0.0,0.0,0.0,0.0,0.0,0.0,0.0,0.0,0.0,0.0,0.0,0.0,0.0,0.0,0.0,0.0,0.0,0.0,0.0,0.0,0.0,0.0,0.0,0.0,0.0,0.0,0.0,0.0,0.0,0.0,0.0,0.0,0.0,0.0,0.0,0.0,0.0,0.0,0.0,0.0,0.0,0.0,0.0,0.0,0.0,0.0,0.0,0.274,0.2691,0.0,0.0,0.0,0.0,0.0,0.0,0.0,0.0,0.0,0.0,0.0,0.0,0.0,0.0,0.0,0.0,0.0,0.0,0.0,0.0,0.0,0.0,0.0,0.0,0.0,0.0,0.0,0.0,0.0,0.0,0.0,0.0,0.0,0.0,0.0,0.0,0.0,0.0,0.0,0.0,1.045,1.0587,1.0836,1.1556,1.1622,1.1461,1.1004,1.0733,1.0419,1.0024,0.9978,0.0,0.0,0.0,0.0,0.0,0.0,0.0,0.0,0.0,0.0,0.0,0.0,0.0,0.0,0.0,0.0,0.0,0.0,0.0,0.0,0.0,0.0,0.0,0.0,0.0,0.0,0.0,0.0,0.0,0.0,0.0,0.0,0.0,0.0,0.0,0.0,0.0,0.0,0.0,0.0,0.0,0.0,0.0,0.0,0.0,0.0,0.0,0.0,0.0,0.0,0.0,0.0,0.0,0.0,0.0,0.0,0.0,0.0,0.0,0.2966,0.2875,0.0,0.0,0.0,0.0,0.0,0.0,0.0,0.0,0.0,0.0,0.0,0.0,0.0,0.0,0.0,0.0,0.0,0.0,0.0,0.0,0.0,0.0,0.0,0.0,0.0,0.0,0.0,0.0,0.0,0.0,0.0,0.0,0.0,0.0,0.0,0.0,0.0,0.0,0.0,0.0,1.0521,1.0726,1.1011,1.1571,1.1622,1.149,1.1106,1.0777,1.0448,1.0119,0.9903,0.0,0.0,0.0,0.0,0.0,0.0,0.0,0.0,0.0,0.0,0.0,0.0,0.0,0.0,0.0,0.0,0.0,0.0,0.0,0.0,0.0,0.0,0.0,0.0,0.0,0.0,0.0,0.0,0.0,0.0,0.0,0.0,0.0,0.0,0.0,0.0,0.0,0.0,0.0,0.0,0.0,0.0,0.0,0.0,0.0,0.0,0.0,0.0,0.0,0.0,0.0,0.0,0.0,0.4032,0.3883,0.3759,0.3591,0.3516,0.3505,0.333,0.3187,0.3007,0.2956,0.0,0.0,0.0,0.0,0.0,0.0,0.0,0.0,0.0,0.0,0.0,0.0,0.0,0.0,0.0,0.0,0.0,0.0,0.0,0.0,0.0,0.0,0.575,0.5937,0.5982,0.59,0.5546,0.0,0.0,0.0,0.0,0.0,0.0,0.0,0.0,0.0,0.0,0.0,1.055,1.0872,1.1202,1.1586,1.1622,1.1512,1.1187,1.0806,1.047,1.0199,0.9826,0.9725,0.0,0.0,0.0,0.0,0.0,0.0,0.0,0.0,0.0,0.0,0.0,0.0,0.0,0.0,0.0,0.0,0.0,0.0,0.0,0.0,0.0,0.0,0.0,0.0,0.0,0.0,0.0,0.0,0.0,0.0,0.0,0.0,-0.0526,0.073,0.0,0.0,0.0,0.0,0.0,0.0,0.0,0.0,0.0,0.0,0.0,0.0,0.0,0.2842,0.3152,0.325,0.3479,0.384,0.4418,0.4367,0.3767,0.3895,0.3952,0.395,0.3924,0.0,0.3179,0.2858,0.0,0.0,0.0,0.0,0.0,0.0,0.0,0.0,0.0,0.0,0.0,0.0,0.0,0.0,0.0,0.0,0.0,0.0,0.0,0.0,0.0,0.0,0.6057,0.6302,0.6347,0.6335,0.629,0.6272,0.6435,0.6797,0.6923,0.7085,0.0,0.0,0.0,0.0,0.0,0.0,1.055,1.0872,1.1202,1.1586,1.1622,1.1608,1.1564,1.0938,1.0565,1.0528,0.995,0.9614,0.9666,0.9836,0.0,0.0,0.0,0.0,0.0,0.0,0.0,0.0,0.0,0.0,0.0,0.0,0.0,0.0,0.0,0.0,0.0,0.0,0.0,0.0,0.0,0.0,0.0,0.0,0.0,0.0,0.0,0.0,0.0,-0.0606,-0.0312,-0.0176,-0.0,-0.0168,0.0,0.0,0.0,0.0,0.0,0.0,0.0,0.0,0.0,0.2995,0.3383,0.3671,0.3828,0.403,0.421,0.4367,0.4479,0.4475,0.4369,0.4449,0.4485,0.4485,0.4485,0.4351,0.4085,0.3524,0.3056,0.2753,0.0,0.0,0.0,0.0,0.5248,0.586,0.625,0.6581,0.678,0.6597,0.0,0.0,0.0,0.0,0.0,0.0,0.0,0.5998,0.6388,0.6542,0.6643,0.683,0.7214,0.7429,0.7076,0.7797,0.8236,0.7328,0.7229,0.75,0.8093,0.8302,0.0,0.0,0.0,1.0492,1.0821,1.115,1.1468,1.1608,1.1622,1.1622,1.1622,1.0967,1.0587,1.0587,0.9972,0.9614,0.9614,0.9725,0.9836,0.0,0.0,0.0,0.0,0.0,0.0,0.0,0.0,0.0,0.0,0.0,0.0,0.0,0.0,0.0,0.0,0.0,0.0,0.0,0.0,0.0,0.0,0.0,0.0,0.0,0.0,0.0,0.0,-0.0253,-0.0133,-0.0933,0.006,0.0526,0.0,0.0,0.0,0.0,0.0,0.0,0.4263,0.3181,0.2732,0.3231,0.3903,0.4297,0.4434,0.4702,0.4834,0.483,0.4563,0.4575,0.4834,0.4834,0.4834,0.4834,0.4834,0.4834,0.4794,0.4259,0.4183,0.4509,0.4903,0.5158,0.5316,0.5497,0.5958,0.6497,0.6817,0.7049,0.7224,0.7114,0.6826,0.6478,0.6006,0.0,0.0,0.0,0.0,0.6474,0.7019,0.7163,0.7135,0.7317,0.7806,0.8148,0.7868,0.8928,0.9472,0.8006,0.7952,0.8362,0.8922,0.8922,0.0,0.9861,1.045,1.0799,1.1041,1.1417,1.1622,1.1622,1.1622,1.1622,1.1622,1.1041,1.0675,1.0594,1.0053,0.9702,0.9621,0.9614,0.9673,0.9888,0.0,0.0,0.0,0.0,0.0,0.0,0.0,0.0,0.0,0.0,0.0,0.0,0.0,0.0,0.0,0.0,0.0,0.0,0.0,0.0,0.0,0.0,0.0,0.0,0.0,0.0,0.0,0.0,0.0,-0.0939,-0.0067,0.0,0.0,0.0,0.0,0.2354,0.335,0.3992,0.4287,0.4024,0.3671,0.3495,0.3852,0.4293,0.4804,0.4824,0.4834,0.4834,0.4816,0.4816,0.4834,0.4834,0.4834,0.4834,0.4834,0.4834,0.483,0.4796,0.6527,0.9152,0.8593,0.8203,0.7875,0.704,0.7153,0.7711,0.7728,0.7728,0.7772,0.8105,0.7849,0.7317,0.6786,0.6505,0.0,0.0,0.6643,0.6773,0.7313,0.7456,0.75,0.7691,0.7811,0.799,0.8551,0.9084,0.945,0.9267,0.9594,1.0006,1.0181,0.0,1.0086,1.0272,1.0719,1.1055,1.107,1.1417,1.1622,1.1622,1.1622,1.1622,1.1622,1.1306,1.0916,1.0609,1.0265,0.9936,0.9629,0.9614,0.9614,0.9614,0.9614,0.0,0.0,0.0,0.0,0.0,0.0,0.0,0.0,0.0,0.0,0.0,0.0,0.0,0.0,0.0,0.0,0.0,0.0,0.0,0.0,0.0,0.0,0.0,0.0,0.0,0.0,0.0,0.0,-0.0145,0.0154,0.0,0.1968,0.1099,0.1356,0.3528,0.4132,0.4457,0.4634,0.4334,0.4167,0.4189,0.42,0.4408,0.483,0.4834,0.4834,0.4834,0.4834,0.4834,0.4834,0.4834,0.4834,0.4834,0.4834,0.4834,0.4935,0.703,0.8528,0.9604,0.9348,0.9198,0.9043,0.8237,0.8207,0.8459,0.858,0.8544,0.839,0.8057,0.7663,0.7261,0.6948,0.6895,0.6972,0.7147,0.7281,0.7472,0.7894,0.8004,0.802,0.8085,0.9004,0.9683,0.9218,1.0606,1.1657,1.0888,1.0721,1.0681,1.0739,1.0581,1.0562,1.1023,1.1085,1.1224,1.1641,1.1611,1.1622,1.1622,1.1622,1.1622,1.1622,1.107,1.0711,1.0594,1.0082,0.9738,0.9621,0.9614,0.9709,0.9921,0.9929,1.0021,0.0,0.0,0.0,0.0,0.0,0.0,0.0,0.0,0.0,0.0,0.0,0.0,0.0,0.0,0.0,0.0,0.0,0.0,0.0,0.0,0.0,0.0,0.0,0.0,0.0,-0.0521,0.0,0.0393,0.1198,0.2021,0.2672,0.249,0.2832,0.4084,0.4489,0.4712,0.4828,0.4608,0.4534,0.4657,0.4542,0.4594,0.4832,0.4834,0.4834,0.4834,0.4834,0.4834,0.4834,0.4834,0.4834,0.4834,0.4834,0.5434,0.6631,0.8726,0.9628,0.9628,0.9628,0.9628,0.9571,0.91,0.8995,0.9108,0.9234,0.9153,0.8913,0.8385,0.7971,0.7642,0.746,0.7443,0.7529,0.7707,0.7845,0.802,0.8377,0.8467,0.8455,0.8398,0.9321,1.0085,0.9861,1.1094,1.2257,1.207,1.1741,1.1403,1.1309,1.1207,1.1199,1.1605,1.1575,1.1677,1.1927,1.1845,1.1677,1.1637,1.1622,1.1622,1.1622,1.1165,1.0865,1.0755,1.0346,1.006,0.9943,0.9943,0.9994,1.0097,0.9991,1.0147,1.0587,0.0,0.0,0.0,0.0,0.0,0.0,0.0,0.0,0.0,0.0,0.0,0.0,0.0,0.0,0.0,0.0,0.0,0.0,0.0,0.0,0.0,0.0,0.0,-0.1124,0.0652,0.1502,0.0594,0.2872,0.4263,0.3251,0.3965,0.4375,0.4083,0.4547,0.4841,0.4834,0.4834,0.4834,0.4834,0.4834,0.4834,0.4834,0.4834,0.4834,0.4834,0.4834,0.4834,0.4834,0.4834,0.4834,0.4834,0.4834,0.6631,0.9529,0.9529,0.9529,0.9529,0.9628,0.9628,0.9628,0.9628,0.9628,0.9628,0.9628,0.9506,0.9328,0.9161,0.8869,0.8552,0.8369,0.8191,0.8085,0.8264,0.8316,0.8394,0.8739,0.8828,0.8787,0.8621,0.8668,0.9087,1.0336,1.0643,1.1209,1.2902,1.2746,1.2251,1.2036,1.2012,1.2025,1.2025,1.2344,0.0,1.2043,1.1978,1.1919,1.1626,1.1645,1.1637,1.1637,1.163,1.1483,1.1092,1.1063,1.0916,1.0602,1.0587,1.0448,1.0141,0.9826,0.9985,1.0616,0.0,0.0,0.0,0.0,0.0,0.0,0.0,0.0,0.0,0.0,0.0,0.0,0.0,0.0,0.0,0.0,0.0,0.0,0.0,0.0,0.0,-0.1213,-0.1299,-0.1287,-0.0869,-0.0093,0.1246,0.2117,0.309,0.442,0.4748,0.4802,0.4628,0.4875,0.4975,0.4843,0.4834,0.4834,0.4834,0.4834,0.4834,0.4834,0.4834,0.4834,0.4834,0.4834,0.4834,0.4834,0.4834,0.4834,0.4834,0.4834,0.5934,0.7932,0.8326,0.8528,0.8832,0.9327,0.9628,0.9628,0.9628,0.9628,0.9628,0.9628,0.9506,0.9348,0.9299,0.9133,0.8942,0.8893,0.884,0.8812,0.8861,0.8877,0.8897,0.8995,0.9019,0.9011,0.8962,1.0031,1.1115,1.1266,1.2416,1.3425,1.3437,1.3387,1.318,1.3104,1.2955,1.2977,1.3205,1.3035,1.284,1.2753,1.2328,1.2094,1.2241,1.205,1.1904,1.1904,1.1692,1.1483,1.1092,1.085,1.0682,1.0594,1.0587,1.0653,1.0799,1.0982,1.1145,0.0,0.0,0.0,0.0,0.0,0.0,0.0,0.0,0.0,0.0,0.0,0.0,0.0,0.0,0.0,0.0,0.0,0.0,0.0,0.0,0.0,0.0,-0.1343,-0.144,-0.1474,-0.1055,-0.02,0.1557,0.2123,0.3117,0.4949,0.51,0.5028,0.4955,0.4977,0.4947,0.4841,0.4979,0.4994,0.4841,0.4983,0.5063,0.5063,0.4912,0.4834,0.4834,0.4834,0.4834,0.4834,0.4834,0.4834,0.4834,0.4834,0.5334,0.6334,0.8028,0.8528,0.8432,0.0,0.0,0.0,0.0,0.9628,0.9628,0.9628,0.9559,0.947,0.947,0.9348,0.9206,0.9206,0.9157,0.9096,0.9096,0.9096,0.9116,0.9185,0.9206,0.9296,0.9768,1.0693,1.1733,1.2322,1.3349,1.4158,1.4176,1.4095,0.0,1.4179,1.3843,1.3586,1.3694,1.3512,1.3316,1.3045,1.2672,1.2409,1.2328,1.2145,1.1977,1.1845,1.167,0.0,0.0,0.0,1.0997,1.0997,1.0865,0.0,0.0,0.0,1.1483,1.1622,1.1622,0.0,0.0,1.1368,1.1457,0.0,0.0,0.0,0.0,0.0,0.0,0.0,0.0,0.0,0.0,0.0,0.0,0.0,0.0,0.0,0.0,-0.1462,-0.1546,-0.1661,-0.0637,0.0538,0.1635,0.2622,0.372,0.5041,0.5188,0.5139,0.5139,0.4988,0.4896,0.4896,0.5204,0.0,0.0,0.0,0.5382,0.5382,0.5059,0.4875,0.4834,0.4877,0.4896,0.4896,0.4896,0.4896,0.4896,0.4896,0.4873,0.5035,0.8028,0.8928,0.863,0.9327,0.9628,0.9628,0.9628,0.9628,0.9628,0.9628,0.0,0.0,0.9628,0.9518,0.9384,0.9384,0.9279,0.9157,0.9157,0.9157,0.9194,0.9344,0.9384,0.9673,1.0528,1.081,1.1412,1.3135,1.3538,1.3894,1.4784,1.475,1.4744,1.5172,1.451,1.3895,1.3823,1.3979,1.3814,1.3199,1.3053,1.2804,1.2255,1.2131,0.0,1.1692,1.1703,1.1604,1.163,1.1622,1.1622,1.1622,1.1282,1.1328,1.1622,1.1336,1.1275,1.1622,1.1622,1.1622,1.1622,1.1622,1.16,0.0,0.0,0.0,0.0,0.0,0.0,0.0,0.0,0.0,0.0,0.0,0.0,0.0,0.0,0.0,-0.1482,-0.159,-0.1686,-0.1759,-0.0776,0.0442,0.1639,0.1988,0.3008,0.5131,0.5339,0.5328,0.5328,0.5296,0.5275,0.5275,0.5343,0.5349,0.5277,0.5345,0.5382,0.5382,0.531,0.5126,0.4839,0.5135,0.0,0.5275,0.5275,0.5275,0.5275,0.5275,0.5108,0.4935,0.6434,0.7932,0.943,0.9529,0.9628,0.9628,0.9628,0.9628,0.9628,0.9628,0.9628,0.9628,0.9628,0.9604,0.9575,0.9575,0.9551,0.0,0.9527,0.9527,0.9531,0.9567,0.9575,0.9575,0.9768,1.0538,1.1443,1.2366,1.3147,1.4019,1.4823,1.4917,1.5055,1.5485,1.5007,1.4536,1.4641,1.4538,1.4231,1.3843,1.3331,1.306,1.3199,1.2738,1.2401,1.2343,1.2094,1.1831,1.1637,1.1622,1.1622,1.1622,1.1564,1.1556,1.1622,1.1564,1.1556,1.1622,1.1622,1.1622,1.1622,1.1622,1.1483,0.0,0.0,0.0,0.0,0.0,0.0,0.0,0.0,0.0,0.0,0.0,-0.1253,-0.1313,0.0,-0.151,-0.16,-0.1691,-0.1765,-0.1811,-0.1366,-0.0227,0.157,0.2351,0.3358,0.5268,0.5382,0.5382,0.5382,0.5382,0.5382,0.5382,0.5382,0.5382,0.5382,0.5382,0.5382,0.5382,0.5382,0.529,0.511,0.5294,0.5333,0.5249,0.5339,0.5382,0.5371,0.5188,0.5417,0.6037,0.7036,0.8375,0.9746,0.9661,0.9628,0.9628,0.9628,0.9628,0.9628,0.9628,0.9628,0.9628,0.9628,0.9628,0.9628,0.9628,0.9628,0.9628,0.9628,0.9628,0.9628,0.9628,0.9628,0.9723,1.0306,1.0788,1.1434,1.2294,1.3317,1.4139,1.4583,1.491,1.5312,1.5596,1.5273,1.5035,1.5151,1.4911,1.4531,1.4048,1.3697,1.3433,1.3265,1.2958,1.2701,1.2533,1.2372,1.2211,1.205,1.2043,1.2043,1.2043,1.1882,1.1875,1.2036,1.1728,1.1721,1.2043,1.1882,1.1882,1.2043,1.2043,1.1867,0.0,0.0,0.0,0.0,0.0,0.0,0.0,0.0,-0.089,-0.0232,-0.0827,-0.1408,-0.1461,-0.154,-0.1622,-0.1698,-0.1763,-0.1814,-0.1844,-0.162,-0.081,0.0808,0.2152,0.3469,0.4817,0.4931,0.5043,0.5382,0.5382,0.5382,0.5382,0.5382,0.5382,0.5382,0.5382,0.5382,0.5382,0.5382,0.5382,0.5382,0.5359,0.5263,0.5112,0.5224,0.5275,0.5261,0.5765,0.6554,0.7538,0.841,0.9164,0.9868,0.9693,0.9628,0.9628,0.9628,0.9628,0.9628,0.9628,0.9628,0.9628,0.9628,0.9628,0.9628,0.9628,0.9628,0.9628,0.9628,0.9628,0.9628,0.9628,0.9628,0.9821,1.069,1.0886,1.1175,1.2145,1.3221,1.4004,1.4298,1.4935,1.5501,1.5701,1.5441,1.5269,1.5391,1.5071,1.4735,1.415,1.4026,1.3755,1.317,1.3045,1.2877,1.2548,1.2519,1.2519,1.2519,1.2519,1.2519,1.2519,1.227,1.2255,1.2519,1.2014,1.1999,1.2519,1.2255,1.2262,1.2519,1.2519,1.235,0.1541,0.1533,0.1692,0.1844,0.1511,0.1211,0.0,0.0,-0.0956,-0.0657,-0.1344,-0.1849,-0.159,-0.1647,-0.1699,-0.1727,-0.179,-0.1846,-0.1877,-0.0699,-0.0232,-0.1408,-0.0114,0.1566,0.3132,0.3244,0.3917,0.5268,0.5382,0.5382,0.5382,0.5382,0.5382,0.5382,0.5382,0.5382,0.5382,0.5382,0.5382,0.538,0.5273,0.5184,0.5102,0.4961,0.4896,0.5012,0.8511,0.9474,0.8543,0.9412,0.9823,0.9868,0.9693,0.9628,0.9628,0.9628,0.9628,0.9628,0.9628,0.9628,0.9628,0.9628,0.9628,0.9628,0.9628,0.9628,0.9628,0.9628,0.9628,0.9628,0.9628,0.9628,0.9628,0.9723,0.9821,1.0109,1.1175,1.2145,1.3119,1.41,1.4935,1.5568,1.5986,1.5588,1.5269,1.5391,1.5071,1.4816,1.4457,1.4157,1.3843,1.3477,1.3184,1.2877,1.2548,1.2519,1.2519,1.2519,1.2519,1.2519,1.2519,1.2482,1.2482,1.2519,1.2445,1.2445,1.2519,1.2482,1.2482,1.2519,1.2519,1.235,0.1604,0.1651,0.1859,0.2159,0.1865,0.1633,0.2029,0.0471,-0.0962,-0.0402,-0.1457,-0.2346,-0.2256,-0.2285,-0.2311,-0.2322,-0.215,-0.2078,-0.2214,-0.1519,-0.1163,-0.1721,-0.1222,0.0657,0.4023,0.358,0.3692,0.5268,0.5382,0.5402,0.5451,0.5408,0.5404,0.5453,0.5406,0.5382,0.5382,0.5382,0.5382,0.538,0.5331,0.5265,0.5181,0.5053,0.5428,0.6203,0.8531,0.9259,0.898,0.9754,1.0071,1.0026,0.9847,0.9713,0.9628,0.9628,0.9628,0.9628,0.9628,0.9628,0.9628,0.9628,0.9628,0.9628,0.9628,0.9628,0.9628,0.9628,0.9628,0.9628,0.9628,0.9628,0.9628,0.9628,0.9628,0.9723,1.0207,1.1565,1.2785,1.3037,1.444,1.5558,1.5562,1.5458,1.5362,1.5391,1.5313,1.5043,1.4531,1.4355,1.407,1.355,1.3375,1.3236,1.3104,1.3089,1.3089,1.3089,1.3089,1.3089,1.3089,1.2906,1.2892,1.3082,1.2716,1.2709,1.3089,1.2899,1.2899,1.3089,1.3089,1.3016,0.155,0.1695,0.1856,0.2091,0.1892,0.1825,0.2243,0.0606,-0.094,-0.0213,-0.1535,-0.2806,-0.2693,-0.2693,-0.2693,-0.2807,-0.2618,-0.2415,-0.2299,-0.2083,-0.2061,-0.2193,-0.2038,-0.0321,0.4166,0.3429,0.334,0.4815,0.5268,0.5408,0.5469,0.5414,0.541,0.5471,0.5412,0.5382,0.5382,0.5382,0.5382,0.5382,0.5357,0.5308,0.5243,0.5167,0.5803,0.6934,0.8151,0.8838,0.919,0.9989,1.0225,1.0188,0.9969,0.9807,0.9693,0.9644,0.9628,0.9628,0.9628,0.9628,0.9628,0.9628,0.9628,0.9628,0.9628,0.9628,0.9628,0.9628,0.9628,0.9628,0.9628,0.9628,0.9628,0.9628,0.9628,0.9628,0.9628,1.0984,1.2271,1.2331,1.3821,1.5194,1.52,1.5304,1.5347,1.5384,1.5431,1.5196,1.4553,1.4311,1.4018,1.3543,1.3492,1.3492,1.3492,1.3492,1.3492,1.3492,1.3492,1.3492,1.3492,1.3265,1.3258,1.3492,1.3031,1.3023,1.3492,1.3258,1.3265,1.3492,1.3492,1.3492,0.1123,0.1232,0.1366,0.1453,0.1566,0.168,0.1765,0.0447,-0.0787,-0.0457,-0.1812,-0.3026,-0.2693,-0.2693,-0.2806,-0.2919,-0.2846,-0.2517,-0.1913,-0.2134,-0.2521,-0.3066,-0.2893,-0.136,0.2092,0.204,0.2309,0.3576,0.4706,0.5382,0.5386,0.5382,0.5382,0.5386,0.5382,0.5382,0.5382,0.5382,0.5382,0.538,0.529,0.5247,0.5243,0.5212,0.5755,0.6658,0.8194,0.8913,0.9013,0.9954,1.0387,1.0294,0.9998,0.9884,0.9855,0.9689,0.9628,0.9628,0.9628,0.9628,0.9628,0.9628,0.9628,0.9628,0.9628,0.9628,0.9628,0.9628,0.9628,0.9628,0.9628,0.9628,0.9628,0.9628,0.9628,0.9628,0.9628,1.0498,1.1497,1.2141,1.3113,1.4033,1.4991,1.5128,1.5187,1.5347,1.5431,1.5196,1.4553,1.3916,1.3514,1.3499,1.3492,1.3492,1.3492,1.3492,1.3492,1.3492,1.3492,1.3492,1.3492,1.3484,1.3484,1.3492,1.3477,1.3477,1.3492,1.3484,1.3484,1.3492,1.3492,1.3492,0.1273,0.1396,0.1518,0.1607,0.1705,0.1793,0.1844,0.0463,-0.0925,-0.0806,-0.2118,-0.3242,-0.3098,-0.3063,-0.305,-0.3194,-0.306,-0.3011,-0.3025,-0.2917,-0.2861,-0.2914,-0.2811,-0.1669,0.1349,0.1605,0.2406,0.4514,0.5123,0.5406,0.5463,0.5412,0.5406,0.5463,0.541,0.5382,0.5382,0.5382,0.5382,0.5382,0.5349,0.5335,0.5335,0.5326,0.6093,0.7529,0.8125,0.903,1.0131,1.0409,1.0526,1.0379,1.0156,0.9994,0.9864,0.9693,0.9628,0.9628,0.9628,0.9628,0.9628,0.9628,0.9628,0.9628,0.9628,0.9628,0.9628,0.9628,0.9628,0.9628,0.9628,0.9628,0.9628,0.9628,0.9628,0.9628,0.9628,1.04,1.121,1.1187,1.2867,1.4242,1.4138,1.494,1.5595,1.546,1.5248,1.4955,1.4523,1.4084,1.3733,1.3521,1.3492,1.3492,1.3492,1.3492,1.3492,1.3492,1.3492,1.3492,1.3492,1.3492,1.3492,1.3492,1.3492,1.3492,1.3492,1.3492,1.3492,1.3492,1.3492,1.3492,0.1414,0.1528,0.163,0.1742,0.1821,0.1878,0.1898,0.0471,-0.081,-0.0788,-0.216,-0.3322,-0.3238,-0.3174,-0.3159,-0.3243,-0.3201,-0.3186,-0.3564,-0.3314,-0.3144,-0.3081,-0.3063,-0.1891,0.0836,0.118,0.24,0.5025,0.5331,0.5406,0.5459,0.5439,0.5437,0.5461,0.5439,0.5412,0.5382,0.5382,0.5382,0.5382,0.5382,0.5382,0.5382,0.5714,0.6599,0.8029,0.8361,0.9357,1.0692,1.0692,1.0578,1.0383,1.0221,1.0091,0.9953,0.9713,0.9665,0.9709,0.9648,0.9628,0.9628,0.9628,0.9669,0.9709,0.9648,0.9669,0.9705,0.9644,0.9628,0.9628,0.9628,0.9628,0.9628,0.9628,0.9628,0.9628,0.9628,1.0109,1.0631,1.071,1.246,1.4013,1.3837,1.4925,1.5804,1.5474,1.5248,1.4999,1.4677,1.426,1.3901,1.3689,1.3565,1.3492,1.3492,1.3492,1.3492,1.3492,1.3492,1.3492,1.3492,1.3492,1.3492,1.3492,1.3492,1.3492,1.3492,1.3492,1.3492,1.3492,1.3492,1.3492,0.1538,0.1625,0.1708,0.1852,0.1911,0.1932,0.1929,0.0587,-0.0679,-0.0644,-0.1957,-0.317,0.0,0.0,-0.2989,-0.311,-0.3093,-0.3187,-0.3538,-0.3441,-0.3368,0.0,0.0,0.0,0.0,0.0,0.2073,0.4916,0.5331,0.5384,0.5388,0.5461,0.5469,0.5398,0.5465,0.5465,0.539,0.5384,0.5382,0.5382,0.5382,0.5382,0.5382,0.627,0.7152,0.8029,0.9027,0.9911,1.068,1.0688,1.0546,1.031,1.0205,1.0156,1.0107,0.9754,0.973,0.9847,0.9685,0.9628,0.9628,0.9628,0.9738,0.9843,0.9677,0.9742,0.9839,0.9673,0.9628,0.9628,0.9628,0.9628,0.9628,0.9628,0.9628,0.9628,0.9628,0.9628,0.9768,1.0537,1.19,1.3223,1.3907,1.5062,1.5726,1.5413,1.5354,1.5313,1.4903,1.4414,1.4018,1.3989,1.3704,1.3514,1.3492,1.3492,1.3492,1.3492,1.3492,1.3492,1.3492,1.3492,1.3492,1.3492,1.3492,1.3492,1.3492,1.3492,1.3492,1.3492,1.3492,1.3492,0.1642,0.1748,0.1844,0.1904,0.1942,0.1953,0.1908,0.0572,-0.0546,-0.0517,-0.1824,-0.286,-0.2737,-0.2777,-0.2867,-0.2985,-0.3144,0.0,-0.3556,-0.3548,0.0,-0.3492,0.0,-0.2482,-0.0,0.0324,0.1527,0.4366,0.5105,0.5408,0.5471,0.5437,0.5463,0.5573,0.5471,0.5435,0.5475,0.5412,0.5382,0.5382,0.5382,0.5382,0.5382,0.627,0.7152,0.8029,0.9027,0.9847,1.0509,1.0639,1.0497,1.0201,1.0172,1.0075,0.9929,0.9709,0.9657,0.9689,0.9644,0.9628,0.9628,0.9628,0.9657,0.9685,0.964,0.9657,0.9685,0.964,0.9628,0.9628,0.9628,0.9628,0.9628,0.9628,0.9628,0.9628,0.9628,0.9628,0.9612,0.9853,1.1163,1.2538,1.3686,1.4556,1.5081,1.5005,1.5233,1.5313,1.4903,1.4801,1.4516,1.4033,1.3909,1.3762,1.3514,1.3492,1.3492,1.3492,1.3492,1.3492,1.3492,1.3492,1.3492,1.3492,1.3492,1.3492,1.3492,1.3492,1.3492,1.3492,1.3492,1.3492,0.1763,0.1853,0.193,0.1947,0.1944,0.1913,0.1483,0.0434,-0.051,-0.0751,-0.1849,-0.2658,-0.2512,-0.2582,-0.2703,0.0,0.0,0.0,-0.3435,-0.347,-0.3488,0.0,-0.3537,0.0,-0.022,0.0,0.1119,0.3837,0.4639,0.5231,0.5506,0.5539,0.5584,0.5641,0.5549,0.5482,0.5453,0.5406,0.5382,0.5382,0.5382,0.5382,0.5382,0.627,0.7152,0.8029,0.9027,0.9866,1.055,1.057,1.0461,1.0266,1.0103,0.9977,0.9864,0.9693,0.9673,0.973,0.9652,0.9677,0.973,0.9652,0.9681,0.9742,0.9742,0.9795,0.9847,0.9762,0.9742,0.9726,0.9648,0.9628,0.9628,0.9628,0.9628,0.9628,0.9628,0.9628,0.9821,1.0404,1.1182,1.221,1.3608,1.3979,1.4366,1.477,1.4852,1.5018,1.51,1.4947,1.475,1.4253,1.407,1.385,1.3521,1.3492,1.3492,1.3492,1.3492,1.3492,1.3492,1.3492,1.3492,1.3492,1.3492,1.3492,1.3492,1.3492,1.3492,1.3492,1.3492,1.3492,0.1882,0.1939,0.1981,0.1973,0.1928,0.1736,0.0968,0.0203,-0.0565,-0.1159,-0.1923,-0.2504,-0.2341,-0.2414,-0.2544,-0.2681,0.0,-0.2941,-0.3294,-0.3345,-0.3405,-0.3568,-0.3587,-0.2707,-0.0344,-0.0115,0.0924,0.3411,0.4073,0.4622,0.5313,0.5682,0.5727,0.5645,0.5643,0.5565,0.54,0.5388,0.5382,0.5382,0.5382,0.5382,0.5382,0.627,0.7152,0.8029,0.9027,0.9904,1.0647,1.0521,1.0428,1.0335,1.0038,0.9892,0.9831,0.9685,0.9738,0.986,0.9689,0.9758,0.9888,0.9693,0.973,0.9851,0.9851,0.9977,1.0087,0.99,0.9868,0.9843,0.9673,0.9628,0.9628,0.9628,0.9628,0.9628,0.9628,0.9628,0.992,1.1082,1.1468,1.1986,1.3208,1.3401,1.3675,1.4408,1.444,1.4566,1.5173,1.51,1.4867,1.4509,1.4216,1.3894,1.3528,1.3492,1.3492,1.3492,1.3492,1.3492,1.3492,1.3492,1.3492,1.3492,1.3492,1.3492,1.3492,1.3492,1.3492,1.3492,1.3492,1.3492,0.1707,0.1987,0.2002,0.1952,0.1912,0.1611,0.0731,0.0098,0.0,0.0,-0.1782,-0.2282,-0.22,-0.2323,-0.2508,-0.2732,-0.2901,-0.3112,-0.3422,-0.3466,-0.3496,0.0,-0.3587,-0.282,-0.0918,-0.069,0.0231,0.2821,0.309,0.3705,0.4901,0.5337,0.5661,0.5643,0.5643,0.5592,0.5486,0.5416,0.5382,0.5382,0.5382,0.5382,0.5382,0.627,0.7152,0.8029,0.9027,0.984,1.0489,1.0603,1.0383,0.9989,1.0079,0.9933,0.9669,0.964,0.9738,0.986,0.9689,0.9843,1.0059,0.9734,0.9648,0.9673,0.9673,0.9795,0.9896,0.9721,0.9774,0.9843,0.9673,0.9628,0.9628,0.9628,0.9628,0.9628,0.9628,0.9628,0.9628,0.992,1.0703,1.1375,1.1628,1.251,1.3211,1.3351,1.397,1.4482,1.4566,1.5032,1.5116,1.4531,1.4421,1.4143,1.3543,1.3492,1.3492,1.3492,1.3492,1.3492,1.3492,1.3492,1.3492,1.3492,1.3492,1.3492,1.3492,1.3492,1.3492,1.3492,1.3492,1.3492,-0.0998,0.0126,0.1141,-0.0246,-0.0117,0.0109,-0.0988,0.0,0.0,0.0,-0.2401,-0.2501,-0.2501,-0.2469,0.0,-0.2623,-0.2766,-0.2967,-0.3268,-0.3311,-0.3368,-0.3522,-0.3595,-0.2962,-0.1034,-0.0926,-0.0,0.2144,0.2641,0.3254,0.4215,0.4939,0.5402,0.5716,0.5669,0.56,0.5508,0.5424,0.5382,0.5382,0.5382,0.5382,0.5382,0.5826,0.649,0.7374,0.8254,0.9099,0.9911,1.0341,1.0351,1.0026,1.0022,0.986,0.964,0.973,0.9876,1.0018,0.9933,1.0079,1.0241,0.988,0.9762,0.9762,0.9762,0.9819,0.9868,0.9782,0.9819,0.9843,0.9673,0.9628,0.9628,0.9628,0.9628,0.9628,0.9628,0.9628,0.9628,0.9628,1.0019,1.0413,1.0708,1.1318,1.1946,1.2592,1.3043,1.3633,1.4307,1.4657,1.4821,1.4685,1.4714,1.445,1.3806,1.3748,1.3675,1.3506,1.3492,1.3418,1.325,1.3404,1.3411,1.3243,1.3411,1.3492,1.3492,1.3492,1.3492,1.3492,1.3492,1.3492,-0.2909,-0.2165,-0.1148,-0.2082,-0.1934,-0.1867,-0.2991,-0.287,0.0,-0.3069,-0.2982,-0.287,-0.2808,-0.2654,-0.2526,-0.2581,-0.2683,-0.2782,-0.3095,-0.3151,-0.3243,0.0,-0.3593,0.0,-0.1039,-0.0934,-0.0118,0.1808,0.2405,0.3007,0.375,0.4392,0.4999,0.5542,0.5456,0.5484,0.5508,0.5424,0.5382,0.5382,0.5382,0.5382,0.5382,0.5382,0.5826,0.6712,0.7593,0.8459,0.9413,1.0058,1.0306,1.0091,0.9985,0.9839,0.9705,0.988,1.0063,1.0213,1.0176,1.0306,1.0428,1.0063,0.9945,0.9929,0.9851,0.9884,0.9929,0.9851,0.9855,0.9843,0.9673,0.9628,0.9628,0.9628,0.9628,0.9628,0.9628,0.9628,0.9628,0.9628,0.9727,0.992,1.0314,1.0559,1.1027,1.1946,1.2252,1.279,1.3802,1.4223,1.4476,1.4739,1.4822,1.4706,1.4136,1.4084,1.3975,1.3718,1.3638,1.3484,1.3228,1.3397,1.3375,1.3119,1.3367,1.3528,1.3601,1.3528,1.3536,1.3601,1.3601,1.3558,-0.1007,-0.3821,-0.6221,-0.1415,-0.1885,-0.3708,-0.4344,0.0,-0.2648,-0.2994,-0.3109,-0.3047,-0.3039,-0.2863,-0.2747,-0.294,-0.2727,-0.2733,-0.309,-0.3187,-0.329,-0.3474,0.0,0.0,-0.0936,-0.0823,-0.0,0.1808,0.1905,0.251,0.3807,0.401,0.4221,0.4821,0.4866,0.5018,0.5508,0.5424,0.5382,0.5382,0.5382,0.5382,0.5382,0.5382,0.5826,0.6712,0.7593,0.8404,0.9154,1.0011,1.0229,0.9925,1.0075,1.0022,0.9884,1.0067,1.0253,1.0387,1.0217,1.0383,1.0611,1.0253,1.0136,1.0075,0.975,0.9876,1.0067,0.9742,0.9766,0.9843,0.9673,0.9628,0.9628,0.9628,0.9628,0.9628,0.9628,0.9628,0.9628,0.9628,1.0019,1.0314,1.0413,1.0849,1.1216,1.14,1.1987,1.2448,1.2534,1.3633,1.4384,1.4441,1.47,1.4801,1.445,1.4421,1.4414,1.4377,1.4099,1.3923,1.3894,1.3638,1.3484,1.3448,1.3477,1.3638,1.3938,1.3638,1.3653,1.3938,1.3938,1.3777,-0.5044,-0.5152,-0.5394,-0.4725,-0.4785,-0.4939,-0.5169,0.0,-0.3734,-0.382,-0.3582,-0.3427,-0.3488,-0.3064,-0.2687,-0.2895,-0.2652,-0.2542,-0.283,-0.2922,-0.3055,-0.3307,-0.3485,-0.2828,-0.1042,-0.0944,-0.0119,0.1785,0.1876,0.212,0.2673,0.3023,0.3614,0.4215,0.4154,0.4205,0.4365,0.4294,0.4484,0.4817,0.4817,0.5043,0.5382,0.5382,0.5603,0.5933,0.6848,0.7883,0.8932,1.0007,1.0282,1.0071,1.0253,1.0213,1.0075,1.0257,1.0371,1.044,1.0473,1.0505,1.0513,1.0371,1.0327,1.0257,0.9892,0.9811,0.9811,0.9669,0.975,0.9868,0.9803,0.9782,0.9758,0.9652,0.9628,0.9628,0.9628,0.9628,0.9628,0.9628,0.9727,0.992,0.992,1.0473,1.0997,1.0867,1.1489,1.211,1.2381,1.2875,1.3548,1.4307,1.4885,1.5109,1.4779,1.475,1.4677,1.4479,1.4348,1.4187,1.3989,1.4048,1.3989,1.3792,1.3982,1.4143,1.4275,1.4143,1.415,1.4275,1.4077,1.4018,-0.7716,-0.6426,-0.5399,-0.6998,-0.6579,-0.5711,0.0,0.0,-0.4428,-0.4276,-0.3981,-0.3751,-0.3896,-0.3313,-0.2904,-0.2999,-0.2684,-0.2494,-0.2658,-0.276,-0.2909,-0.3173,0.0,-0.2765,-0.1018,-0.0467,0.0356,0.1768,0.1849,0.1849,0.1901,0.226,0.2859,0.3588,0.3536,0.3481,0.3651,0.3609,0.3811,0.4257,0.4369,0.4706,0.5156,0.527,0.5382,0.5487,0.6367,0.7402,0.8497,0.9522,1.0067,1.018,1.0363,1.0355,1.0266,1.0444,1.0509,1.053,1.0647,1.0578,1.0444,1.0493,1.0404,1.0233,1.003,0.9884,0.9774,0.9721,0.9831,0.9965,0.9965,0.9925,0.9855,0.9734,0.9665,0.9628,0.9628,0.9628,0.9628,0.9628,0.9628,0.9628,0.9628,1.0158,1.0536,1.051,1.1031,1.1612,1.206,1.2283,1.2784,1.3717,1.4573,1.5079,1.5027,1.5087,1.4992,1.4772,1.4662,1.4509,1.4275,1.4399,1.4362,1.4128,1.4355,1.4516,1.4611,1.4516,1.4516,1.4604,1.437,1.4384,-0.7437,-0.7604,-0.7595,-0.7249,-0.6653,-0.5871,-0.5145,-0.4754,-0.4404,-0.4167,-0.4118,-0.4118,-0.4118,-0.3793,-0.354,-0.3334,-0.3081,-0.2868,-0.2741,-0.2797,-0.294,0.0,-0.3249,-0.2633,-0.0872,0.0789,0.1853,0.1883,0.1829,0.1809,0.184,0.1841,0.2086,0.2824,0.2781,0.2964,0.3589,0.3587,0.3587,0.3587,0.4257,0.448,0.448,0.5156,0.5382,0.5487,0.6267,0.7083,0.7828,0.8649,0.9533,1.018,1.0363,1.0432,1.0452,1.0627,1.0688,1.0688,1.0692,1.0578,1.0465,1.0635,1.0327,0.9925,1.0103,1.0156,1.0115,0.9933,1.0014,1.016,1.016,1.0022,0.9884,0.9884,0.975,0.9628,0.9628,0.9628,0.9628,0.9628,0.9628,0.9628,0.9628,0.9871,1.0161,1.0413,1.0758,1.0992,1.1294,1.194,1.2448,1.2448,1.3633,1.465,1.534,1.5423,1.5423,1.5423,1.5116,1.4852,1.4852,1.4633,1.4472,1.4465,1.4472,1.4626,1.494,1.4626,1.4633,1.494,1.4852,1.4852,-0.6236,-0.6398,-0.6377,-0.6081,-0.5621,-0.5273,-0.4878,-0.4536,-0.4308,-0.4151,-0.4118,-0.4118,-0.4118,-0.3857,-0.365,-0.386,-0.3643,-0.3459,-0.3654,0.0,0.0,-0.3608,-0.2436,-0.1461,-0.0918,0.0805,0.1844,0.1854,0.1818,0.1808,0.1838,0.1821,0.1937,0.2084,0.2075,0.2167,0.2355,0.2355,0.2579,0.303,0.3141,0.3475,0.3923,0.4374,0.4597,0.4594,0.4945,0.599,0.7612,0.821,0.9158,1.0367,1.0542,1.0611,1.0615,1.0672,1.0692,1.0676,1.0558,1.04,1.0257,1.0314,1.0128,0.9896,0.9953,0.9892,0.9811,0.9868,1.0018,1.016,1.016,1.0119,1.0042,0.9916,0.9843,0.977,0.9652,0.9628,0.9628,0.9628,0.9628,0.9628,0.9628,0.9972,1.0259,1.0256,1.0793,1.1126,1.0998,1.1353,1.1854,1.2363,1.279,1.3464,1.4657,1.5173,1.5431,1.5431,1.5328,1.5277,1.5277,1.5182,1.5123,1.5123,1.5123,1.5174,1.5277,1.5174,1.5065,1.4948,1.5167,1.516,0.0,-0.5619,-0.5725,-0.5452,-0.5167,0.0,-0.4701,-0.4401,-0.4197,-0.4075,-0.4085,-0.4118,-0.4118,-0.3924,-0.3845,-0.4058,-0.3925,-0.3823,-0.3775,0.0,0.0,-0.368,-0.2033,-0.0789,-0.0807,0.0802,0.1828,0.184,0.1812,0.1804,0.1822,0.1805,0.1804,0.1823,0.1823,0.1814,0.1795,0.1795,0.202,0.2356,0.2581,0.2918,0.3253,0.3701,0.3924,0.3921,0.4068,0.5247,0.0,0.7519,0.8723,1.0325,1.0542,1.0542,1.0595,1.0595,1.055,1.0477,1.0367,1.0213,1.0067,1.014,1.0034,0.9872,0.9807,0.9758,0.9746,0.9855,1.0067,1.0249,1.018,1.0213,1.0217,1.0034,0.9937,0.9855,0.9746,0.9673,0.9628,0.9628,0.9628,0.9628,0.9628,0.992,1.0058,1.0066,1.0613,1.0953,1.092,1.1144,1.1521,1.194,1.2192,1.2705,1.3548,1.4489,1.5166,1.534,1.5431,1.5431,1.5431,1.5431,1.5431,1.5431,1.5431,1.5431,1.5431,1.5347,1.5155,1.4967,1.5079,1.4982,0.0,-0.5287,-0.547,-0.5342,-0.498,-0.4629,-0.4444,-0.4257,0.0,-0.3896,-0.4031,-0.4121,-0.4129,-0.4137,-0.4093,-0.3985,-0.4039,-0.3913,-0.3392,-0.3467,0.0,0.0,-0.1797,-0.0758,-0.0781,0.0784,0.1807,0.1835,0.1811,0.1795,0.1795,0.1795,0.1795,0.1795,0.1795,0.1795,0.1795,0.1795,0.1795,0.1795,0.2356,0.2581,0.2693,0.3253,0.3475,0.3473,0.3417,0.4522,0.647,0.6587,0.7916,1.0143,1.0257,1.0268,1.0345,1.0329,1.0335,1.0193,1.0156,1.0038,0.9929,1.0075,1.0006,0.9839,0.9677,0.9746,0.9884,0.9868,1.0132,1.0375,1.0205,1.0286,1.0371,1.0201,1.0018,0.988,0.9868,0.9742,0.9628,0.9628,0.9628,0.9628,0.9628,0.9628,0.9669,0.9987,1.026,1.0523,1.0785,1.1087,1.1289,1.1289,1.1866,1.2363,1.2363,1.3633,1.4657,1.5257,1.5347,1.5431,1.5431,1.5431,1.5431,1.5431,1.5431,1.534,1.534,1.5173,1.509,1.509,1.4824,1.4734,-0.4611,0.0,-0.4362,-0.4232,-0.4081,-0.4019,0.0,-0.395,-0.3907,-0.388,0.0,-0.4145,-0.424,-0.433,-0.4496,-0.4686,-0.483,-0.4914,-0.492,-0.4637,0.0,-0.4178,-0.2192,-0.0885,-0.077,0.0779,0.1797,0.1805,0.1799,0.1795,0.1795,0.1795,0.1795,0.1795,0.1795,0.1795,0.1795,0.1795,0.1795,0.1795,0.1908,0.202,0.202,0.2131,0.2243,0.2243,0.2234,0.3123,0.4689,0.5562,0.7006,0.8585,0.9592,0.9904,0.996,1.0042,1.0162,1.0293,0.9991,1.0014,1.0059,0.9827,0.9726,0.9681,0.964,0.9746,0.9855,0.9726,0.9949,1.0217,1.0172,1.0193,1.0213,1.0172,1.0018,0.9847,0.9717,0.9657,0.9628,0.9628,0.9628,0.9628,0.9628,0.9628,0.9616,0.9669,0.9992,1.0233,1.0283,1.0697,1.0992,1.0992,1.1364,1.1774,1.2363,1.3633,1.4482,1.465,1.509,1.5431,1.5431,1.5431,1.5431,1.5431,1.5431,1.5257,1.4824,1.4999,1.4999,1.4824,1.4734,1.4734,-0.4519,-0.4345,-0.4204,-0.4131,-0.3995,-0.387,-0.387,0.0,0.0,0.0,0.0,-0.417,-0.4346,-0.4428,-0.4591,-0.4955,-0.5069,-0.5167,0.0,0.0,-0.457,-0.429,-0.241,-0.1107,-0.0885,0.0781,0.1795,0.1795,0.1795,0.1795,0.1795,0.1795,0.1795,0.1795,0.1795,0.1795,0.1795,0.1795,0.1795,0.1795,0.1795,0.1795,0.1795,0.1795,0.1795,0.1794,0.178,0.2558,0.391,0.5099,0.6433,0.7922,0.9151,0.9658,0.9686,0.97,0.9846,0.9859,0.9784,0.9799,0.9884,0.9689,0.9628,0.9628,0.9628,0.9693,0.9766,0.975,0.9945,1.016,1.016,1.0225,1.0266,1.0184,1.0018,0.986,0.9766,0.9685,0.9628,0.9628,0.9628,0.9628,0.9628,0.9628,0.9628,0.9628,0.9867,1.0132,1.0132,1.0422,1.0639,1.0636,1.0701,1.0937,1.1257,1.2266,1.3288,1.4307,1.4741,1.5082,1.5431,1.5431,1.5347,1.5264,1.5173,1.4908,1.4734,1.4741,1.4741,1.4566,1.4489,1.4412,-0.4519,-0.4549,-0.451,-0.4465,-0.4238,-0.4021,-0.4019,0.0,0.0,0.0,0.0,0.0,0.0,-0.4515,0.0,-0.4966,0.0,0.0,-0.5191,-0.5043,-0.475,-0.4464,-0.2929,-0.1762,-0.1227,0.0448,0.157,0.1795,0.1795,0.1795,0.1795,0.1795,0.1793,0.1789,0.1793,0.1793,0.1788,0.1793,0.1795,0.1795,0.1795,0.1795,0.1795,0.1795,0.1793,0.1787,0.1761,0.242,0.344,0.4604,0.5934,0.7346,0.8589,0.918,0.9381,0.9437,0.947,0.9449,0.9501,0.9473,0.9529,0.9628,0.9628,0.9628,0.9628,0.9628,0.9665,0.9835,0.9998,1.0119,1.0119,1.0233,1.0314,1.0156,0.9977,0.9847,0.9847,0.973,0.9628,0.9628,0.9628,0.9628,0.9628,0.9628,0.9628,0.9628,0.9888,0.9983,0.9983,1.0279,1.0366,1.0199,1.0215,1.0107,1.0012,1.0487,1.1752,1.3711,1.4139,1.4566,1.534,1.5347,1.5173,1.4999,1.4824,1.4657,1.4573,1.4482,1.4398,1.4314,1.4166,1.4088,-0.4519,-0.4641,-0.4699,-0.4343,-0.4195,-0.4154,-0.3969,0.0,0.0,0.0,0.0,0.0,0.0,-0.4724,-0.495,0.0,0.0,-0.5939,-0.6339,-0.6012,-0.5721,-0.5858,-0.4526,-0.333,-0.2634,-0.111,0.0448,0.1683,0.1795,0.1795,0.1795,0.1795,0.1783,0.1757,0.1782,0.1782,0.1757,0.1782,0.1795,0.1795,0.1795,0.1795,0.1795,0.1795,0.1781,0.1756,0.1752,0.1846,0.2041,0.3257,0.4477,0.5809,0.7,0.8033,0.8982,0.9044,0.9104,0.9242,0.948,0.9373,0.9335,0.9529,0.9628,0.9628,0.9628,0.9628,0.9665,0.9835,0.9904,0.9929,0.9929,0.9949,0.9961,0.9933,0.9795,0.9665,0.9665,0.9648,0.9628,0.9628,0.9628,0.9628,0.9628,0.9628,0.9628,0.9628,0.9604,0.9686,0.9686,0.9917,1.017,1.0143,1.0205,1.0168,1.0131,1.0143,1.0554,1.1494,1.2942,1.4223,1.509,1.4915,1.4734,1.4482,1.465,1.4489,1.4166,1.4321,1.4321,1.4166,1.4088,1.4088,-0.4519,-0.4676,-0.48,-0.4486,-0.4429,-0.4385,0.0,0.0,0.0,0.0,0.0,0.0,0.0,0.0,-0.5216,-0.5542,-0.588,-0.62,-0.648,-0.6419,-0.6248,-0.6204,-0.5052,-0.399,-0.3141,-0.1457,0.0223,0.1661,0.1785,0.178,0.1748,0.1761,0.1757,0.1726,0.1739,0.1739,0.1725,0.1739,0.1763,0.1795,0.1795,0.1795,0.1794,0.1778,0.1772,0.1772,0.1723,0.1712,0.1835,0.2986,0.3842,0.4523,0.6288,0.7283,0.7908,0.8553,0.8827,0.896,0.9127,0.9091,0.9027,0.9126,0.9229,0.943,0.943,0.9529,0.9644,0.9726,0.9811,0.9908,1.001,0.9961,0.9884,0.9884,0.9754,0.9628,0.9628,0.9628,0.9628,0.9628,0.9628,0.9628,0.9628,0.9628,0.9628,0.9628,0.9628,0.9628,0.9628,0.9751,0.9761,0.9752,0.9686,0.957,0.9461,0.9283,0.9777,1.0895,1.2083,1.319,1.4139,1.3957,1.3964,1.4391,1.3886,1.3555,1.3313,1.347,1.347,1.3392,1.3828,1.4168,-0.4519,-0.4684,-0.4786,-0.4626,0.0,0.0,0.0,0.0,0.0,0.0,0.0,0.0,0.0,-0.5069,0.0,-0.6032,-0.6252,-0.6401,-0.6545,-0.6668,-0.66,-0.6347,-0.5704,-0.4979,-0.4194,-0.2355,-0.0442,0.1524,0.1761,0.1753,0.1707,0.1726,0.1725,0.1695,0.1701,0.1701,0.1695,0.1701,0.1727,0.1774,0.1774,0.1774,0.1774,0.1757,0.1755,0.1761,0.1699,0.169,0.1823,0.2617,0.3239,0.3702,0.5723,0.6774,0.7264,0.7991,0.8343,0.8599,0.8674,0.8726,0.8726,0.8825,0.8928,0.9133,0.9133,0.9331,0.9529,0.9529,0.9626,0.9855,0.9998,0.9933,0.9823,0.9823,0.9726,0.9628,0.9628,0.9628,0.9628,0.9628,0.9628,0.9628,0.9628,0.9628,0.9628,0.9628,0.9628,0.9628,0.9628,0.9628,0.9571,0.9433,0.9263,0.9068,0.884,0.8666,0.9087,1.0381,1.1139,1.1992,1.2936,1.2766,1.3021,1.3971,1.2954,1.2443,1.2705,1.2443,1.2357,1.2363,1.3376,1.3959,-0.4519,-0.4564,-0.4575,-0.4441,-0.4718,0.0,-0.5076,-0.5069,0.0,-0.5311,0.0,0.0,0.0,-0.5197,-0.5553,-0.6157,-0.6445,-0.6676,-0.6912,-0.7046,-0.7122,-0.7141,-0.703,-0.7003,-0.6934,-0.5148,-0.2388,0.1498,0.1711,0.1709,0.1705,0.1706,0.1695,0.1666,0.169,0.1692,0.1665,0.1691,0.1706,0.1711,0.1711,0.1711,0.1712,0.1737,0.1721,0.1673,0.1692,0.1673,0.1628,0.1755,0.2492,0.3535,0.475,0.6412,0.8077,0.7129,0.7354,0.8055,0.8336,0.8432,0.8432,0.8726,0.8825,0.8825,0.8825,0.9031,0.9236,0.9236,0.9438,0.9648,0.9661,0.9657,0.9648,0.9648,0.9636,0.9628,0.9628,0.9628,0.9628,0.9628,0.9628,0.9628,0.9628,0.9628,0.9628,0.9628,0.9628,0.9628,0.9628,0.9628,0.9624,0.9608,0.9445,0.9198,0.8848,0.8666,0.8656,0.874,0.9602,1.0539,1.1729,1.1574,1.1837,1.279,1.1929,1.1843,1.2705,1.1843,1.1408,1.1413,1.2604,1.3167,-0.4519,-0.4689,-0.4889,-0.4746,-0.5037,0.0,0.0,-0.513,-0.5158,-0.5377,-0.5428,0.0,0.0,0.0,-0.5825,-0.6206,-0.6529,-0.6793,-0.6961,-0.7084,-0.7182,-0.7258,-0.7201,-0.726,-0.7354,-0.5499,-0.2805,0.042,0.0954,0.1373,0.1652,0.1668,0.1665,0.1635,0.1644,0.1645,0.1634,0.1644,0.165,0.165,0.1686,0.1704,0.1704,0.1698,0.1692,0.1687,0.1661,0.1648,0.1645,0.1637,0.1939,0.2347,0.3487,0.5216,0.7113,0.6704,0.7178,0.8041,0.8137,0.8137,0.8137,0.8233,0.8432,0.8528,0.8528,0.873,0.9031,0.9133,0.9232,0.943,0.9529,0.9628,0.9628,0.9628,0.9628,0.9628,0.9628,0.9628,0.9628,0.9628,0.9628,0.9628,0.9628,0.9628,0.9628,0.9628,0.9628,0.9628,0.9628,0.9628,0.9628,0.9628,0.9466,0.9254,0.9011,0.8828,0.8727,0.8727,0.8975,0.9515,1.0544,1.0458,1.0895,1.1843,1.0895,1.0702,1.1185,1.0702,1.0602,1.0775,1.1698,1.2635,-0.4519,-0.4721,-0.4969,-0.487,0.0,0.0,-0.5409,-0.536,-0.545,-0.5695,-0.5654,-0.5657,-0.5814,-0.5847,-0.5953,-0.6271,-0.6559,-0.6787,-0.691,-0.7027,-0.7116,-0.7163,-0.7127,-0.7191,-0.7247,-0.5304,-0.2863,-0.0206,0.0417,0.0726,0.1113,0.133,0.1433,0.1618,0.1617,0.1617,0.1617,0.1617,0.1612,0.1603,0.1653,0.1677,0.1676,0.1667,0.1667,0.1675,0.1644,0.1637,0.1646,0.1626,0.1818,0.212,0.2521,0.4028,0.5932,0.5932,0.6534,0.7537,0.7839,0.8038,0.8038,0.8038,0.8137,0.8233,0.8233,0.8432,0.8726,0.8931,0.9034,0.9133,0.943,0.9529,0.9628,0.9628,0.9628,0.9628,0.9628,0.9628,0.9628,0.9628,0.9628,0.9644,0.9701,0.9709,0.9709,0.9709,0.9709,0.9689,0.9632,0.9628,0.9628,0.9628,0.9466,0.9307,0.919,0.9011,0.8881,0.8824,0.871,0.8882,0.9432,0.9515,0.9946,1.0809,0.9946,0.9698,1.0244,0.9753,0.9687,1.0107,1.0938,1.1881,-0.4519,-0.4575,-0.4694,0.0,0.0,0.0,-0.6031,-0.6018,-0.5999,-0.6282,-0.6059,-0.5806,-0.6043,-0.5896,-0.589,-0.6358,-0.6537,-0.6662,-0.6785,-0.6907,-0.694,-0.6817,-0.691,-0.7,-0.6866,-0.4967,-0.2669,-0.0202,0.0,0.0,0.0,0.0505,0.101,0.1617,0.1616,0.1616,0.1616,0.1616,0.16,0.1571,0.1602,0.1616,0.1618,0.1648,0.1645,0.1619,0.1649,0.1645,0.1617,0.1617,0.222,0.3124,0.2019,0.2923,0.4824,0.4824,0.5429,0.6537,0.764,0.8038,0.8038,0.8038,0.8038,0.8038,0.8038,0.8137,0.8432,0.8432,0.8627,0.8825,0.9133,0.943,0.9628,0.9628,0.9628,0.9628,0.9628,0.9628,0.9628,0.9628,0.9628,0.9685,0.9855,0.9884,0.9884,0.9884,0.9884,0.9819,0.9648,0.9628,0.9628,0.9628,0.9466,0.9356,0.9356,0.9198,0.9019,0.8836,0.882,0.8743,0.8572,0.8568,0.8999,0.9859,0.9003,0.9093,1.0164,0.9272,0.8917,0.9108,1.031,1.0872,-0.4519,-0.4724,0.0,-0.4999,0.0,0.0,0.0,-0.608,0.0,0.0,-0.595,-0.5899,-0.6056,-0.61,-0.6127,-0.6181,-0.6431,-0.6632,-0.6668,-0.6779,-0.6842,-0.6806,-0.6834,-0.6798,-0.6752,-0.6215,-0.421,-0.0303,0.0,0.0,0.0,0.0101,0.0303,0.0505,0.0798,0.1189,0.1585,0.1564,0.1645,0.1636,0.157,0.1585,0.1586,0.1617,0.1625,0.1617,0.1626,0.1625,0.1617,0.1617,0.1818,0.2019,0.1717,0.2421,0.3725,0.3725,0.4828,0.6437,0.6736,0.7338,0.8021,0.7913,0.795,0.8021,0.7913,0.7953,0.8137,0.8333,0.8432,0.863,0.8829,0.9027,0.9126,0.9525,0.9628,0.9628,0.9628,0.9628,0.9665,0.9782,0.9807,0.9823,0.9876,0.9884,0.9843,0.9721,0.9705,0.9685,0.9632,0.9628,0.9628,0.9628,0.9579,0.9547,0.9547,0.9271,0.9076,0.9019,0.8779,0.8621,0.8568,0.8568,0.8798,0.9093,0.8833,0.9076,0.9661,0.9258,0.9173,0.947,0.9677,1.028,-0.4647,-0.4836,0.0,-0.5281,-0.5878,-0.6455,-0.6665,0.0,0.0,0.0,-0.604,-0.6026,-0.6195,-0.6208,-0.6203,-0.6222,-0.6407,-0.6545,-0.6545,-0.6651,-0.6711,-0.6662,-0.67,-0.6684,-0.6567,-0.6562,-0.5408,-0.2722,-0.1007,0.0,0.0,0.0,0.0,0.0,0.0294,0.0679,0.0971,0.1151,0.133,0.1603,0.1539,0.1547,0.1537,0.1592,0.161,0.1598,0.1598,0.1598,0.16,0.1612,0.1617,0.1617,0.1617,0.2019,0.2622,0.3022,0.4327,0.5832,0.6234,0.7102,0.7933,0.7841,0.7834,0.7858,0.7821,0.7875,0.796,0.8216,0.8237,0.8333,0.8531,0.8627,0.8726,0.9229,0.9327,0.943,0.943,0.9529,0.9657,0.9762,0.9782,0.9827,0.9969,0.9994,0.9961,0.9855,0.9717,0.9628,0.9628,0.9628,0.9628,0.9628,0.9628,0.9628,0.9628,0.9364,0.9202,0.9202,0.8934,0.8779,0.8779,0.8706,0.8714,0.882,0.8893,0.9072,0.9356,0.925,0.9348,0.9624,0.9514,0.9905,-0.4934,-0.4965,0.0,-0.5597,-0.6266,0.0,-0.6894,-0.6893,-0.6734,-0.6495,-0.6244,-0.6184,-0.6396,-0.626,-0.6187,-0.6401,-0.6437,-0.6437,-0.6437,-0.6532,-0.6562,-0.6448,-0.6535,-0.6559,-0.6448,-0.6442,-0.6345,-0.6348,-0.2808,-0.0401,-0.0,0.0,0.0,0.0,0.0,0.0,0.0,0.0474,0.094,0.1384,0.1413,0.1414,0.1391,0.1569,0.1594,0.1567,0.1567,0.1567,0.1569,0.1597,0.1609,0.1609,0.1611,0.1613,0.1713,0.272,0.372,0.4812,0.5817,0.6833,0.7691,0.7677,0.7597,0.7621,0.7736,0.779,0.7841,0.798,0.8028,0.8038,0.8333,0.8333,0.8432,0.8627,0.8931,0.9133,0.9236,0.9331,0.9537,0.9669,0.9677,0.9782,1.0128,1.0188,1.0176,1.0144,0.9847,0.9628,0.9628,0.9628,0.9628,0.9628,0.9628,0.9628,0.9628,0.9458,0.9356,0.9356,0.9194,0.9096,0.9096,0.8934,0.8852,0.8869,0.9035,0.9206,0.938,0.938,0.9466,0.9628,0.9628,0.9628,-0.6006,-0.5683,0.0,0.0,-0.69,-0.7245,-0.7372,-0.7257,-0.6952,-0.6458,-0.6495,-0.6578,-0.6426,-0.6396,-0.6377,-0.6429,-0.6437,-0.6437,-0.6437,-0.6458,-0.6467,-0.6439,-0.6461,-0.6467,-0.6439,-0.6361,-0.6312,-0.6222,-0.5349,-0.3466,-0.0193,0.0,0.0,0.0,0.0,0.0,0.0,0.0092,0.0181,0.0361,0.0738,0.0836,0.0926,0.1335,0.1542,0.1536,0.1536,0.1536,0.1536,0.1543,0.1545,0.1548,0.1572,0.1581,0.1584,0.1908,0.2598,0.3544,0.3839,0.505,0.6475,0.6371,0.6864,0.7584,0.7492,0.7628,0.7818,0.7851,0.7946,0.8038,0.8038,0.8038,0.8137,0.8137,0.8531,0.8928,0.9133,0.9031,0.9203,0.9891,0.9943,0.9912,1.0339,1.0375,1.0278,0.9989,0.9766,0.9628,0.9628,0.9628,0.9628,0.9628,0.9628,0.9628,0.9628,0.9458,0.9356,0.9356,0.9194,0.9096,0.9096,0.906,0.91,0.9238,0.9279,0.9388,0.9567,0.9567,0.9592,0.9628,0.9628,0.9628,-0.6459,0.0,0.0,-0.657,0.0,-0.7451,-0.7568,-0.7589,-0.7375,-0.6878,-0.6757,-0.6539,-0.6437,-0.6437,-0.6437,-0.6437,-0.6437,-0.6437,-0.6437,-0.6437,-0.6437,-0.6437,-0.6437,-0.6415,-0.6361,-0.6304,-0.6246,-0.6192,-0.6132,-0.5142,-0.3045,-0.1037,0.0,0.0,0.0,0.0,0.0,0.0,0.009,0.0359,0.0545,0.0821,0.1095,0.1397,0.141,0.1222,0.141,0.141,0.1411,0.152,0.1526,0.1528,0.1543,0.155,0.1551,0.1568,0.2243,0.3186,0.3186,0.4474,0.6067,0.5909,0.6539,0.738,0.7373,0.7529,0.7726,0.779,0.7923,0.8038,0.8038,0.8038,0.8038,0.8038,0.8333,0.863,0.8832,0.8829,0.8977,0.9458,0.9391,0.9449,0.9931,1.0068,1.0107,0.9912,0.9738,0.9628,0.9628,0.9628,0.9628,0.9628,0.9628,0.9628,0.9628,0.9458,0.9393,0.9482,0.9319,0.9259,0.9348,0.9352,0.9352,0.9356,0.9441,0.9535,0.9628,0.9628,0.9628,0.9628,0.9628,0.9628,-0.6808,0.0,-0.6309,-0.6576,-0.6959,0.0,-0.7512,-0.7651,-0.7647,-0.7388,-0.6932,-0.6537,-0.6437,-0.6437,-0.6437,-0.6437,-0.6437,-0.6429,-0.641,-0.6423,-0.642,-0.638,-0.6393,-0.6363,-0.6246,-0.6219,-0.6162,-0.6062,-0.5949,-0.5946,-0.6051,-0.2503,-0.0367,-0.0,0.0,0.0,0.0,0.0,0.0179,0.0536,0.0623,0.0801,0.125,0.1448,0.1189,0.0828,0.1012,0.1196,0.129,0.1406,0.151,0.1511,0.1516,0.1518,0.1519,0.1524,0.2091,0.2838,0.2838,0.3916,0.5403,0.5403,0.5972,0.6627,0.6837,0.7082,0.7338,0.7449,0.7801,0.8038,0.8038,0.8038,0.8038,0.8038,0.8137,0.8333,0.8432,0.8531,0.8744,0.8899,0.8933,0.9086,0.9407,0.9603,0.9782,0.9782,0.9638,0.9529,0.9628,0.9628,0.9628,0.9628,0.9628,0.9628,0.9628,0.949,0.9466,0.9616,0.9486,0.947,0.962,0.9628,0.9555,0.9405,0.9551,0.9628,0.9628,0.9628,0.9628,0.9628,0.9628,0.9628,0.0,0.0,-0.7207,0.0,-0.6647,-0.6898,0.0,0.0,-0.7098,-0.7218,-0.7158,-0.7039,-0.6742,-0.6539,-0.6437,-0.6437,-0.6437,-0.6401,-0.6306,-0.6374,-0.6361,-0.6157,-0.6227,-0.6244,-0.6121,-0.6013,-0.5945,-0.5928,-0.5839,-0.57,-0.5716,-0.3697,-0.171,-0.009,0.0,0.0,0.0,0.0,0.0,0.0087,0.0086,0.0172,0.0262,0.1032,0.1132,0.072,0.036,0.045,0.0811,0.1265,0.1447,0.145,0.1384,0.1487,0.149,0.1516,0.1603,0.1672,0.1672,0.2381,0.3326,0.3326,0.3944,0.4648,0.475,0.5527,0.6361,0.6378,0.7136,0.8038,0.8038,0.8038,0.8038,0.8038,0.8038,0.8137,0.8333,0.8237,0.8317,0.9102,0.9373,0.9432,0.9421,0.9278,0.9278,0.9482,0.9341,0.9335,0.9529,0.9628,0.9628,0.9628,0.9628,0.9628,0.9628,0.9604,0.9604,0.9624,0.9604,0.9604,0.9628,0.9628,0.9616,0.9592,0.9616,0.9628,0.9628,0.9628,0.9628,0.9628,0.9628,0.9628,-0.7314,-0.7203,-0.6937,0.0,-0.6156,-0.6505,-0.6702,-0.692,-0.7082,-0.7141,-0.7014,-0.6918,-0.6625,-0.6432,-0.6241,-0.6241,-0.6241,-0.6222,-0.6173,-0.6208,-0.6203,-0.6097,-0.6132,-0.6119,-0.5996,-0.5934,-0.5877,-0.5812,-0.5697,-0.5547,-0.5563,-0.3875,-0.2013,-0.0087,0.0,0.0,0.0,0.0,0.0,0.0,0.0,0.0,0.0,0.0423,0.0514,0.0264,0.0087,0.0087,0.0347,0.0527,0.0794,0.1061,0.1263,0.1455,0.1457,0.147,0.1467,0.1455,0.1455,0.2078,0.2867,0.2867,0.3578,0.4297,0.4258,0.4734,0.5424,0.6059,0.6594,0.7238,0.7839,0.8038,0.8038,0.8038,0.8038,0.8038,0.8137,0.8038,0.8079,0.8516,0.8798,0.8925,0.886,0.8884,0.8937,0.9133,0.9076,0.9031,0.9331,0.9335,0.943,0.9628,0.9628,0.9628,0.9628,0.9628,0.9628,0.9628,0.9628,0.9628,0.9628,0.9628,0.9628,0.9628,0.9628,0.9628,0.9628,0.9628,0.9628,0.9628,0.9628,0.9628,0.0,0.0,-0.6798,-0.5963,-0.6157,-0.6496,0.0,-0.6785,-0.7104,-0.7014,-0.6761,-0.6554,-0.64,-0.6208,-0.6086,-0.6086,-0.6086,-0.6075,-0.6043,-0.604,-0.6015,-0.5956,-0.595,-0.5915,-0.5822,-0.5784,-0.5746,-0.5692,-0.5572,-0.5507,-0.5432,-0.422,-0.2391,-0.0084,0.0,0.0,0.0,0.0,0.0,0.0,0.0,0.0,0.0,0.0,0.0,0.0,0.0,0.0,0.0,0.0,0.0175,0.0523,0.089,0.1076,0.1256,0.1256,0.1256,0.1436,0.1436,0.1883,0.251,0.251,0.2955,0.3587,0.3552,0.3914,0.4474,0.5475,0.6097,0.6628,0.769,0.8011,0.8038,0.8038,0.8038,0.8038,0.8038,0.8069,0.8085,0.8045,0.8168,0.8382,0.834,0.8432,0.863,0.8726,0.8726,0.8829,0.9031,0.9133,0.9236,0.943,0.9529,0.9628,0.9628,0.9628,0.9628,0.9628,0.9628,0.9628,0.9628,0.9628,0.9529,0.9529,0.9529,0.9628,0.9628,0.9628,0.9628,0.9628,0.9628,0.9628,0.0,-0.7265,0.0,-0.6869,-0.7016,-0.7149,0.0,-0.6962,-0.716,-0.6826,-0.6319,-0.6117,-0.6248,-0.6221,-0.6086,-0.6086,-0.6086,-0.6045,-0.5928,-0.5912,-0.5831,-0.5518,-0.5491,-0.5489,-0.5483,-0.5464,-0.5442,-0.5464,-0.5447,-0.5382,-0.5307,-0.5223,-0.3613,-0.0084,0.0,0.0,0.0,0.0,0.0,0.0,0.0,0.0,0.0,0.0,0.0,0.0,0.0,0.0,0.0,0.0,0.0,0.0,0.0089,0.0359,0.0718,0.0718,0.0987,0.1436,0.1436,0.1436,0.1435,0.1435,0.1524,0.1524,0.1527,0.2306,0.341,0.4276,0.5494,0.6608,0.7566,0.7929,0.8038,0.8038,0.8038,0.8038,0.8038,0.8153,0.8214,0.8069,0.8157,0.8211,0.8065,0.8038,0.8137,0.8432,0.8432,0.8531,0.8825,0.9031,0.9236,0.9236,0.943,0.9628,0.9628,0.9628,0.9628,0.9628,0.9628,0.9628,0.9628,0.9628,0.943,0.9232,0.943,0.9628,0.9628,0.9628,0.9628,0.9628,0.9628,0.9628,0.0,0.0,0.0,-0.6563,-0.668,-0.6938,-0.6959,-0.7281,-0.7603,-0.7823,-0.7668,-0.7639,-0.7895,-0.6642,-0.5627,-0.5627,-0.5627,-0.561,-0.5567,-0.5561,-0.5529,-0.5445,-0.5434,-0.5434,-0.5434,-0.5396,-0.5388,-0.5431,-0.5322,-0.5254,-0.5257,-0.5178,-0.4489,-0.3212,-0.1131,0.0,0.0,0.0,0.0,0.0,0.0,0.0,0.0,0.0,0.0,0.0,0.0,0.0,0.0,0.0,0.0,0.0,0.0,0.0088,0.0269,0.0269,0.0359,0.0628,0.1166,0.1436,0.1436,0.1436,0.1436,0.1439,0.1458,0.1773,0.2282,0.3485,0.4526,0.562,0.7337,0.7851,0.7919,0.8018,0.8038,0.8038,0.8038,0.8082,0.8106,0.8052,0.8082,0.8106,0.8048,0.8038,0.8038,0.8137,0.8137,0.8237,0.8528,0.863,0.8733,0.8928,0.9027,0.9126,0.9126,0.9126,0.9126,0.9126,0.9126,0.9126,0.9126,0.9126,0.9027,0.8928,0.9027,0.9126,0.9331,0.9331,0.9331,0.9331,0.9126,0.9229,-0.7467,0.0,0.0,0.0,-0.6977,-0.7254,-0.7303,-0.7606,-0.799,-0.8249,-0.8214,-0.8205,-0.8396,-0.6968,-0.574,-0.5998,-0.5702,-0.5538,-0.5538,-0.5419,-0.5306,-0.5306,-0.5276,-0.5265,-0.5303,-0.5273,-0.5265,-0.5303,-0.5197,-0.5129,-0.5129,-0.5055,-0.5023,-0.5023,-0.1735,0.0,0.0,0.0,0.0,0.0,0.0,0.0,0.0,0.0,0.0,0.0,0.0,0.0,0.0,0.0,0.0,0.0,0.0,0.0,0.0,0.0,0.0,0.009,0.0718,0.1076,0.1166,0.1166,0.1256,0.1349,0.1277,0.1207,0.1414,0.2519,0.3512,0.4643,0.6432,0.7158,0.7459,0.7902,0.8038,0.8038,0.8038,0.8038,0.8038,0.8038,0.8038,0.8038,0.8038,0.8038,0.8038,0.8038,0.8038,0.8038,0.8237,0.8333,0.8432,0.8627,0.8726,0.8825,0.8825,0.8825,0.8825,0.8825,0.8825,0.8825,0.8825,0.8825,0.8726,0.8627,0.8726,0.8829,0.8935,0.9031,0.9031,0.9031,0.8928,0.8928,0.0,0.0,0.0,0.0,-0.8093,-0.8175,-0.779,-0.8011,-0.8209,-0.7962,-0.7769,-0.7691,-0.781,-0.6977,-0.65,-0.7049,-0.6341,-0.5693,-0.5693,-0.5417,-0.5175,-0.5175,-0.5075,-0.505,-0.5165,-0.5075,-0.5059,-0.5173,-0.508,-0.5018,-0.5018,-0.5018,-0.5021,-0.5029,-0.1758,-0.0076,-0.0,0.0,0.0,0.0,0.0,0.0,0.0,0.0,0.0,0.0,0.0,0.0,0.0,0.0,0.0,0.0,0.0,0.0,0.0,0.0,0.0,0.0,0.0,0.0269,0.0718,0.0718,0.0987,0.1256,0.0807,0.0728,0.0829,0.1351,0.2396,0.3594,0.4824,0.5792,0.6672,0.7697,0.7932,0.8035,0.7939,0.7939,0.8038,0.8038,0.8038,0.8038,0.8038,0.8038,0.8038,0.8038,0.8038,0.8038,0.8038,0.8233,0.8432,0.8432,0.8627,0.8825,0.8825,0.8825,0.8825,0.8825,0.8825,0.8825,0.8825,0.8825,0.8627,0.8432,0.8627,0.8627,0.8432,0.8627,0.8825,0.8825,0.8825,0.8928,-0.7901,0.0,0.0,0.0,0.0,0.0,-0.8113,-0.8219,-0.846,-0.8955,-0.903,-0.8885,-0.872,-0.825,-0.7651,-0.6826,-0.5904,-0.5212,-0.506,-0.4953,-0.4931,-0.4931,-0.4828,-0.48,-0.492,-0.4904,-0.4934,-0.5056,-0.5034,-0.5018,-0.5018,-0.5018,-0.5018,-0.5021,-0.2905,-0.1207,-0.0,0.0,0.0,0.0,0.0,0.0,0.0,0.0,0.0,0.0,0.0,0.0,0.0,0.0,0.0,0.0,0.0,0.0,0.0,0.0,0.0,0.0,0.0,0.009,0.018,0.0179,0.0269,0.0449,0.1077,0.0728,0.0276,0.081,0.1277,0.1858,0.3413,0.5069,0.6154,0.5781,0.6789,0.7707,0.7015,0.7437,0.8038,0.8038,0.8038,0.8038,0.8038,0.8038,0.8038,0.8038,0.8038,0.8038,0.8038,0.8038,0.8137,0.8137,0.8137,0.8233,0.8233,0.8233,0.8233,0.8233,0.8233,0.8233,0.8233,0.8233,0.8237,0.8137,0.8137,0.8137,0.8137,0.8333,0.8528,0.8528,0.8528,0.863,0.0,0.0,0.0,-0.7901,0.0,0.0,-0.8369,-0.8453,-0.8651,-0.934,-0.9484,-0.9444,-0.9259,-0.8565,-0.7747,-0.6846,-0.5661,-0.4919,-0.4902,-0.4833,-0.476,-0.476,-0.4697,-0.4681,-0.4751,-0.476,-0.479,-0.486,-0.4866,-0.4866,-0.4866,-0.4866,-0.4868,-0.4947,-0.4006,-0.2339,-0.0,0.0,0.0,0.0,0.0,0.0,0.0,0.0,0.0,0.0,0.0,0.0,0.0,0.0,0.0,0.0,0.0,0.0,0.0,0.0,0.0,0.0,0.0,0.0,0.0,0.0,0.0,0.009,0.0628,0.0453,0.0091,0.036,0.0452,0.0822,0.2115,0.3345,0.4334,0.471,0.5696,0.6404,0.5836,0.6257,0.6967,0.7826,0.8038,0.8038,0.8038,0.8038,0.8038,0.8038,0.8038,0.8038,0.8038,0.8038,0.8038,0.8038,0.8038,0.8038,0.8038,0.8038,0.8038,0.8038,0.8038,0.8038,0.8038,0.8038,0.8038,0.8038,0.8038,0.8038,0.8038,0.8137,0.8233,0.8233,0.8333,0.8528,0.0,0.0,0.0,-0.7943,-0.7943,0.0,-0.8495,-0.8639,-0.8813,-0.9298,-0.9418,-0.9448,-0.9344,-0.8296,-0.7312,-0.6924,-0.5798,-0.4914,-0.4908,-0.4778,-0.4704,-0.4704,-0.4693,-0.469,-0.4704,-0.4704,-0.4712,-0.4723,-0.4726,-0.4726,-0.4726,-0.4726,-0.4729,-0.4812,-0.4762,-0.336,-0.056,-0.0143,0.0,0.0,0.0,0.0,0.0,0.0,0.0,0.0,0.0,0.0,0.0,0.0,0.0,0.0,0.0,0.0,0.0,0.0,0.0,0.0,0.0,0.0,0.0,0.0,0.0,0.0,0.0,0.0,0.0,0.0,0.0,0.018,0.1008,0.1288,0.1941,0.3866,0.4452,0.4569,0.4558,0.4681,0.5398,0.7288,0.7627,0.7637,0.7637,0.7637,0.7637,0.7637,0.7637,0.7637,0.7637,0.7739,0.7839,0.7839,0.7939,0.8038,0.8038,0.8038,0.8038,0.8038,0.8038,0.8038,0.8038,0.8038,0.8038,0.8038,0.8038,0.8038,0.8038,0.8038,0.8038,0.8038,0.8237,0.8531,0.0,0.0,-0.8213,-0.8213,-0.8213,0.0,-0.8075,-0.8375,-0.8705,-0.8813,-0.8998,-0.9027,-0.8522,-0.856,-0.8296,-0.712,-0.6428,-0.5709,-0.4766,-0.4577,-0.4504,-0.4504,-0.4425,-0.4404,-0.4496,-0.4504,-0.4615,-0.4718,-0.4726,-0.4726,-0.4726,-0.4726,-0.4726,-0.4729,-0.4615,-0.4271,-0.3639,-0.1195,0.0,0.0,0.0,0.0,0.0,0.0,0.0,0.0,0.0,0.0,0.0,0.0,0.0,0.0,0.0,0.0,0.0,0.0,0.0,0.0,0.0,0.0,0.0,0.0,0.0,0.0,0.0,0.0,0.0,0.0,0.0,0.0,0.027,0.0811,0.1539,0.1943,0.2783,0.354,0.3425,0.4157,0.4888,0.5298,0.5468,0.5425,0.5425,0.5425,0.5425,0.5425,0.5425,0.5425,0.5425,0.6132,0.6736,0.6736,0.7437,0.8038,0.8038,0.8038,0.8038,0.8038,0.8038,0.8038,0.8038,0.8038,0.8038,0.8038,0.8038,0.8038,0.8038,0.8038,0.8038,0.8038,0.8038,0.8233,-0.8873,-0.8681,-0.8453,-0.8321,-0.8387,0.0,0.0,-0.8495,-0.8873,-0.8873,-0.9035,-0.8983,-0.8731,-0.8502,-0.818,-0.7477,-0.6794,-0.6164,-0.5514,-0.4857,-0.4384,-0.4384,-0.4336,-0.4322,-0.4379,-0.4384,-0.4412,-0.4471,-0.4477,-0.4477,-0.4477,-0.4477,-0.4477,-0.4477,-0.4423,-0.4393,-0.4393,-0.2917,-0.1399,0.0,0.0,0.0,0.0,0.0,0.0,0.0,0.0,0.0,0.0,0.0,0.0,0.0,0.0,0.0,0.0,0.0,0.0,0.0,0.0,0.0,0.0,0.0,0.0,0.0,0.0,0.0,0.0,0.0,0.0,0.0,0.0,0.0358,0.0719,0.1,0.1728,0.2376,0.2241,0.2761,0.3193,0.3226,0.3181,0.3524,0.4624,0.4824,0.4824,0.4824,0.4824,0.4824,0.4824,0.5227,0.5832,0.6334,0.6836,0.7437,0.7939,0.8038,0.8038,0.8038,0.8038,0.8038,0.8038,0.8038,0.8038,0.8038,0.8038,0.8038,0.8038,0.8038,0.8038,0.8038,0.8137,0.8233,-0.9148,-0.895,-0.8705,-0.8489,-0.8597,-0.8687,0.0,0.0,0.0,-0.9016,-0.9089,-0.9126,-0.9126,-0.85,-0.8057,-0.8057,-0.7305,-0.6711,-0.6677,-0.5567,-0.4656,-0.4593,-0.4417,-0.4359,-0.44,-0.4331,-0.4276,-0.43,-0.4278,-0.4276,-0.43,-0.43,-0.43,-0.43,-0.43,-0.43,-0.43,-0.433,-0.3122,-0.0833,-0.0571,-0.0289,0.0,0.0,0.0,0.0,0.0,0.0,0.0,0.0,0.0,0.0,0.0,0.0,0.0,0.0,0.0,0.0,0.0,0.0,0.0,0.0,0.0,0.0,0.0,0.0,0.0,0.0,0.0,0.0,0.0,0.0,0.009,0.0448,0.0897,0.1263,0.1382,0.15,0.1528,0.1564,0.1592,0.211,0.3922,0.4225,0.4225,0.4225,0.4225,0.4225,0.4225,0.4323,0.4826,0.5732,0.6134,0.6736,0.764,0.7839,0.8038,0.8038,0.8038,0.8038,0.8038,0.8038,0.8038,0.8038,0.8038,0.8038,0.8038,0.8038,0.8038,0.8038,0.8233,0.8333,-0.9436,-0.9232,-0.9077,-0.9047,-0.9059,-0.9011,-0.8693,0.0,-0.9298,-0.8819,0.0,-0.9126,-0.9126,0.0,0.0,-0.8936,-0.8397,-0.7901,-0.7689,-0.6845,-0.603,-0.5534,-0.4754,-0.4389,-0.473,-0.4394,-0.4183,-0.4292,-0.42,-0.4186,-0.4295,-0.43,-0.43,-0.43,-0.43,-0.43,-0.43,-0.4314,-0.4118,-0.378,-0.2496,-0.1194,0.0,0.0,0.0,0.0,0.0,0.0,0.0,0.0,0.0,0.0,0.0,0.0,0.0,0.0,0.0,0.0,0.0,0.0,0.0,0.0,0.0,0.0,0.0,0.0,0.0,0.0,0.0,0.0,0.0,0.0,0.0,0.009,0.0448,0.0902,0.1382,0.1483,0.1503,0.156,0.1575,0.1684,0.1913,0.1918,0.1918,0.1918,0.1918,0.1918,0.1918,0.2822,0.3423,0.3525,0.5231,0.6437,0.6537,0.7437,0.8038,0.8038,0.8038,0.8038,0.8038,0.8038,0.8038,0.8038,0.8038,0.8038,0.8038,0.8038,0.8038,0.8038,0.8038,0.8038,-0.9484,-0.9394,-0.9268,-0.9168,-0.919,-0.9196,-0.8777,-0.9094,-0.9376,-0.8986,0.0,0.0,0.0,0.0,0.0,0.0,-0.8845,-0.8542,-0.8296,-0.7492,-0.6698,-0.6203,-0.5371,-0.4684,-0.444,-0.4116,-0.4064,-0.4186,-0.4148,-0.417,-0.4295,-0.43,-0.43,-0.43,-0.43,-0.43,-0.43,-0.43,-0.43,-0.43,-0.3668,-0.3075,-0.2464,-0.0774,0.0,0.0,0.0,0.0,0.0,0.0,0.0,0.0,0.0,0.0,0.0,0.0,0.0,0.0,0.0,0.0,0.0,0.0,0.0,0.0,0.0,0.0,0.0,0.0,0.0,0.0,0.0,0.0,0.0,0.0,0.0179,0.0539,0.127,0.1468,0.1489,0.1514,0.1533,0.1549,0.1562,0.1579,0.1591,0.1591,0.1591,0.1591,0.1591,0.2005,0.2521,0.3123,0.4026,0.5031,0.6337,0.6836,0.7338,0.7939,0.8038,0.8038,0.8038,0.8038,0.8038,0.8038,0.8038,0.8038,0.8038,0.8038,0.8038,0.8038,0.8038,0.8038,-0.9484,-0.9484,-0.9436,-0.9232,-0.9334,-0.9382,-0.8986,-0.9202,-0.9406,-0.9186,-0.9126,0.0,0.0,0.0,-0.9126,-0.9126,0.0,-0.9035,-0.865,-0.8127,-0.7458,-0.6809,-0.5977,-0.5137,-0.4316,-0.4142,-0.4058,-0.4058,-0.4066,-0.4121,-0.4243,-0.4281,-0.43,-0.43,-0.43,-0.43,-0.43,-0.43,-0.43,-0.43,-0.43,-0.4306,-0.4247,-0.2125,-0.0761,0.0,0.0,0.0,0.0,0.0,0.0,0.0,0.0,0.0,0.0,0.0,0.0,0.0,0.0,0.0,0.0,0.0,0.0,0.0,0.0,0.0,0.0,0.0,0.0,0.0,0.0,0.0,0.0,0.0,0.0,0.018,0.0903,0.1276,0.1473,0.149,0.1504,0.1516,0.1525,0.1544,0.1559,0.1559,0.1559,0.1562,0.157,0.1591,0.1908,0.272,0.3022,0.3825,0.5432,0.6034,0.6836,0.7939,0.8038,0.8038,0.8038,0.8038,0.8038,0.8038,0.8038,0.8038,0.8038,0.8038,0.8038,0.8038,0.8038,0.8038,-0.9484,-0.9484,-0.9478,-0.9472,-0.9478,-0.9478,-0.946,-0.9472,-0.9406,-0.9186,-0.9126,-0.9126,-0.9126,-0.9126,-0.9126,-0.9126,-0.9298,0.0,0.0,-0.8914,-0.8644,-0.7526,-0.6659,-0.5743,-0.4658,-0.4483,-0.4281,-0.3931,-0.388,-0.3993,-0.4118,-0.4235,-0.43,-0.43,-0.43,-0.43,-0.43,-0.43,-0.43,-0.43,-0.43,-0.43,-0.43,-0.4236,-0.2621,0.0,0.0,0.0,0.0,0.0,0.0,0.0,0.0,0.0,0.0,0.0,0.0,0.0,0.0,0.0,0.0,0.0,0.0,0.0,0.0,0.0,0.0,0.0,0.0,0.0,0.0,0.0,0.0,0.0,0.0,0.0,0.0,0.0728,0.1454,0.1513,0.1502,0.1491,0.1521,0.1527,0.1528,0.1528,0.1528,0.1538,0.1568,0.1572,0.1584,0.1613,0.2622,0.3224,0.3324,0.5231,0.6836,0.7939,0.8038,0.8038,0.8038,0.8038,0.8038,0.8038,0.8038,0.8038,0.8038,0.8038,0.8038,0.8038,0.8038,0.8038,-0.9484,-0.9484,-0.9484,-0.9484,-0.9484,-0.9484,-0.9484,-0.9484,-0.946,-0.9364,-0.934,-0.934,-0.934,-0.934,-0.934,-0.934,-0.9424,-0.9295,0.0,-0.8385,-0.7855,-0.7116,-0.6952,-0.6363,-0.4928,-0.4676,-0.4365,-0.3865,-0.3814,-0.3903,-0.4107,-0.4156,-0.4216,-0.4298,-0.43,-0.43,-0.43,-0.43,-0.43,-0.43,-0.43,-0.43,-0.43,-0.43,-0.3761,-0.2751,-0.0805,0.0,0.0,0.0,0.0,0.0,0.0,0.0,0.0,0.0,0.0,0.0,0.0,0.0,0.0,0.0,0.0,0.0,0.0,0.0,0.0,0.0,0.0,0.0,0.0,0.0,0.0,0.0,0.0,0.0,0.0,0.027,0.063,0.1279,0.1457,0.1454,0.1464,0.1466,0.1473,0.1493,0.1496,0.15,0.151,0.1547,0.1575,0.1585,0.1904,0.2422,0.3123,0.5131,0.6836,0.7939,0.8038,0.8038,0.8038,0.8038,0.8038,0.8038,0.8038,0.8038,0.8038,0.8038,0.8038,0.8038,0.8038,0.8038,-0.9484,-0.9484,-0.9484,-0.9484,-0.9484,-0.9484,-0.9484,-0.9484,-0.9484,-0.9484,-0.9414,-0.935,-0.935,-0.9221,-0.9163,-0.9163,-0.9163,-0.9035,0.0,-0.8131,-0.7678,-0.732,-0.7226,-0.6601,-0.5061,-0.4845,-0.4497,-0.38,-0.379,-0.3841,-0.4042,-0.4094,-0.4172,-0.4298,-0.43,-0.43,-0.43,-0.43,-0.43,-0.43,-0.43,-0.43,-0.43,-0.43,-0.43,-0.4164,-0.2348,-0.0939,-0.0067,-0.1075,-0.0942,0.0,0.0,0.0,0.0,0.0,0.0,0.0,0.0,0.0,0.0,0.0,0.0,0.0,0.0,0.0,0.0,0.0,0.0,0.0,0.0,0.0,0.0,0.0,0.0,0.0,0.0,0.0,0.0179,0.0807,0.1166,0.1436,0.1436,0.1436,0.1442,0.1461,0.1465,0.1468,0.1479,0.1524,0.156,0.157,0.1598,0.2019,0.3123,0.4828,0.6331,0.7338,0.7739,0.8038,0.8038,0.8038,0.8038,0.8038,0.8038,0.8038,0.8038,0.8038,0.8038,0.8038,0.8038,0.8038]}]]